[[{"header":{"parameterUnit":"m.s-1","parameterCategory":1,"la1":30.6,"la2":29.2853,"lo1":-89.7004,"lo2":-87.6739,"dy":0.0162,"dx":0.0183,"nx":112,"ny":82,"refTime":"2024-07-30T18:00:00:Z","depth":0,"parameterNumber":2,"parameterNumberName":"U-component_of_WINDS"},"data":[0.0,0.0,0.0,0.0,0.0,0.0,0.0,0.0,0.0,0.0,0.0,0.0,0.0,0.0,0.0,0.0,0.0,0.0,0.0,0.0,0.0,0.0,0.0,0.0,0.0,0.0,0.0,0.0,0.0,0.0,0.0,0.0,0.0,0.0,0.0,0.0,0.0,0.0,0.0,0.0,0.0,0.0,0.0,0.0,0.0,0.0,0.0,0.0,0.0,0.0,0.0,0.0,0.0,0.0,0.0,0.0,0.0,0.0,0.0,0.0,0.0,0.0,0.0,0.0,0.0,0.0,0.0,0.0,0.0,0.0,0.0,0.0,0.0,0.0,0.0,0.0,0.0,0.0,0.0,0.0,0.0,0.0,0.0,0.0,0.0,0.0,0.0,0.0,0.0,0.0,0.4476,0.5492,0.5406,0.5233,0.5195,0.5176,0.5243,0.5415,0.0,0.0,0.0,0.0,0.0,0.0,0.0,0.0,0.0,0.0,0.0,0.0,0.0,0.0,0.0,0.0,0.0,0.0,0.0,0.0,0.0,0.0,0.0,0.0,0.0,0.0,0.0,0.0,0.0,0.0,0.0,0.0,0.0,0.0,0.0,0.0,0.0,0.0,0.0,0.0,0.0,0.0,0.0,0.0,0.0,0.0,0.0,0.0,0.0,0.0,0.0,0.0,0.0,0.0,0.0,0.0,0.0,0.0,0.0,0.0,0.0,0.0,0.0,0.0,0.0,0.0,0.0,0.0,0.0,0.0,0.0,0.0,0.0,0.0,0.0,0.0,0.0,0.0,0.0,0.0,0.0,0.0,0.0,0.0,0.0,0.0,0.0,0.0,0.0,0.0,0.0,0.0,0.0,0.0,0.0,0.0,0.0,0.0,0.0,0.0,0.0,0.0,0.0,0.0,0.4305,0.5096,0.5146,0.5117,0.5107,0.5107,0.5215,0.5473,0.0,0.0,0.0,0.0,0.0,0.0,0.0,0.0,0.0,0.0,0.0,0.0,0.0,0.0,0.0,0.0,0.0,0.0,0.0,0.0,0.0,0.0,0.0,0.0,0.0,0.0,0.0,0.0,0.0,0.0,0.0,0.0,0.0,0.0,0.0,0.0,0.0,0.0,0.0,0.0,0.0,0.0,0.0,0.0,0.0,0.0,0.0,0.0,0.0,0.0,0.0,0.0,0.0,0.0,0.0,0.0,0.0,0.0,0.0,0.0,0.0,0.0,0.0,0.0,0.0,0.0,0.0,0.0,0.0,0.0,0.0,0.0,0.0,0.0,0.0,0.0,0.0,0.0,0.0,0.0,0.0,0.0,0.0,0.0,0.0,0.0,0.0,0.0,0.0,0.0,0.0,0.0,0.0,0.0,0.0,0.0,0.0,0.0,0.0,0.0,0.0,0.0,0.0,0.4766,0.4778,0.5117,0.5117,0.5098,0.5088,0.5205,0.535,0.5539,0.4744,0.0,0.0,0.0,0.0,0.0,0.0,0.0,0.0,0.0,0.0,0.0,0.0,0.0,0.0,0.0,0.0,0.0,0.0,0.0,0.0,0.0,0.0,0.0,0.0,0.0,0.0,0.0,0.0,0.0,0.0,0.0,0.0,0.0,0.0,0.0,0.0,0.0,0.0,0.0,0.0,0.0,0.0,0.0,0.0,0.0,0.0,0.0,0.0,0.0,0.0,0.0,0.0,0.0,0.0,0.0,0.0,0.0,0.0,0.0,0.0,0.0,0.0,0.0,0.0,0.0,0.0,0.0,0.0,0.0,0.0,0.0,0.0,0.0,0.0,0.0,0.0,0.0,0.0,0.0,0.0,0.0,0.0,0.0,0.0,0.0,0.0,0.0,0.0,0.0,0.0,0.0,0.0,0.0,0.0,0.0,0.0,0.0,0.0,0.0,0.0,0.0,0.0,0.5193,0.5205,0.5195,0.5166,0.5127,0.5098,0.5234,0.5397,0.5539,0.4728,0.0,0.0,0.0,0.0,0.0,0.0,0.0,0.0,0.0,0.0,0.0,0.0,0.0,0.0,0.0,0.0,0.0,0.0,0.0,0.0,0.0,0.0,0.0,0.0,0.0,0.0,0.0,0.0,0.0,0.0,0.0,0.0,0.0,0.0,0.0,0.0,0.0,0.0,0.0,0.0,0.0,0.0,0.0,0.0,0.0,0.0,0.0,0.0,0.0,0.0,0.0,0.0,0.0,0.0,0.0,0.0,0.0,0.0,0.0,0.0,0.0,0.0,0.0,0.0,0.0,0.0,0.0,0.0,0.0,0.0,0.0,0.0,0.0,0.0,0.0,0.0,0.0,0.0,0.0,0.0,0.0,0.0,0.0,0.0,0.0,0.0,0.0,0.0,0.0,0.0,0.0,0.0,0.0,0.0,0.0,0.0,0.0,0.0,0.0,0.0,0.0,0.0,0.5058,0.5282,0.5215,0.5195,0.5166,0.5117,0.5108,0.5195,0.5407,0.4595,0.0,0.0,0.0,0.0,0.0,0.0,0.0,0.0,0.0,0.0,0.0,0.0,0.0,0.0,0.0,0.0,0.0,0.0,0.0,0.0,0.0,0.0,0.0,0.0,0.0,0.0,0.0,0.0,0.0,0.0,0.0,0.0,0.0,0.0,0.0,0.0,0.0,0.0,0.0,0.0,0.0,0.0,0.0,0.0,0.0,0.0,0.0,0.0,0.0,0.0,0.0,0.0,0.0,0.0,0.0,0.0,0.0,0.0,0.0,0.0,0.0,0.0,0.0,0.0,0.0,0.0,0.0,0.0,0.0,0.0,0.0,0.0,0.0,0.0,0.0,0.0,0.0,0.0,0.0,0.0,0.0,0.0,0.0,0.0,0.0,0.0,0.0,0.0,0.0,0.0,0.0,0.0,0.0,0.0,0.0,0.0,0.0,0.0,0.0,0.0,0.0,0.0,0.5295,0.535,0.5331,0.5253,0.5185,0.5166,0.5117,0.5243,0.5576,0.0,0.0,0.0,0.0,0.0,0.0,0.0,0.0,0.0,0.0,0.0,0.0,0.0,0.0,0.0,0.0,0.0,0.0,0.0,0.0,0.0,0.0,0.0,0.0,0.0,0.0,0.0,0.0,0.0,0.0,0.0,0.0,0.0,0.0,0.0,0.0,0.0,0.0,0.0,0.0,0.0,0.0,0.0,0.0,0.0,0.0,0.0,0.0,0.0,0.0,0.0,0.0,0.0,0.0,0.0,0.0,0.0,0.0,0.0,0.0,0.0,0.0,0.0,0.0,0.0,0.0,0.0,0.0,0.0,0.0,0.0,0.0,0.0,0.0,0.0,0.0,0.0,0.0,0.0,0.0,0.0,0.0,0.0,0.0,0.0,0.0,0.0,0.0,0.0,0.0,0.0,0.0,0.0,0.0,0.0,0.0,0.0,0.0,0.0,0.0,0.0,0.0,0.5396,0.5465,0.5427,0.5398,0.5292,0.5224,0.5195,0.5137,0.5243,0.5574,0.0,0.0,0.0,0.0,0.0,0.0,0.0,0.0,0.0,0.0,0.0,0.0,0.0,0.0,0.0,0.0,0.0,0.0,0.0,0.0,0.0,0.0,0.0,0.0,0.0,0.0,0.0,0.0,0.0,0.0,0.0,0.0,0.0,0.0,0.0,0.0,0.0,0.0,0.0,0.0,0.0,0.0,0.0,0.0,0.0,0.0,0.0,0.0,0.0,0.0,0.0,0.0,0.0,0.0,0.0,0.0,0.0,0.0,0.0,0.0,0.0,0.0,0.0,0.0,0.0,0.0,0.0,0.0,0.0,0.0,0.0,0.0,0.0,0.0,0.0,0.0,0.0,0.0,0.0,0.0,0.0,0.0,0.0,0.0,0.0,0.0,0.0,0.0,0.0,0.0,0.0,0.0,0.0,0.0,0.0,0.0,0.0,0.0,0.0,0.0,0.0,0.0,0.5386,0.5492,0.5473,0.5407,0.534,0.5272,0.5215,0.5137,0.5185,0.0,0.0,0.0,0.0,0.0,0.0,0.0,0.0,0.0,0.0,0.0,0.0,0.0,0.0,0.0,0.0,0.0,0.0,0.0,0.0,0.0,0.0,0.0,0.0,0.0,0.0,0.0,0.0,0.0,0.0,0.0,0.0,0.0,0.0,0.0,0.0,0.0,0.0,0.0,0.0,0.0,0.0,0.0,0.0,0.0,0.0,0.0,0.0,0.0,0.0,0.0,0.0,0.0,0.0,0.0,0.0,0.0,0.0,0.0,0.0,0.0,0.0,0.0,0.0,0.0,0.0,0.0,0.0,0.0,0.0,0.0,0.0,0.0,0.0,0.0,0.0,0.0,0.0,0.0,0.0,0.0,0.0,0.0,0.0,0.0,0.0,0.0,0.0,0.0,0.0,0.0,0.0,0.0,0.0,0.0,0.0,0.0,0.0,0.0,0.0,0.0,0.0,0.0,0.5512,0.5558,0.5492,0.5473,0.5407,0.534,0.5282,0.5205,0.5291,0.5593,0.0,0.0,0.0,0.0,0.0,0.0,0.0,0.0,0.0,0.0,0.0,0.0,0.0,0.0,0.0,0.0,0.0,0.0,0.0,0.0,0.0,0.0,0.0,0.0,0.0,0.0,0.0,0.0,0.0,0.0,0.0,0.0,0.0,0.0,0.0,0.0,0.0,0.0,0.0,0.0,0.0,0.0,0.0,0.0,0.0,0.0,0.0,0.0,0.0,0.0,0.0,0.0,0.0,0.0,0.0,0.0,0.0,0.0,0.0,0.0,0.0,0.0,0.0,0.0,0.0,0.0,0.0,0.0,0.0,0.0,0.0,0.0,0.0,0.0,0.0,0.0,0.0,0.0,0.0,0.0,0.0,0.0,0.0,0.0,0.0,0.0,0.0,0.0,0.0,0.0,0.0,0.0,0.0,0.0,0.0,0.0,0.0,0.0,0.0,0.0,0.0,0.0,0.5504,0.5539,0.5492,0.5492,0.5446,0.5407,0.5425,0.5359,0.5463,0.5797,0.0,0.0,0.0,0.0,0.0,0.0,0.0,0.0,0.0,0.0,0.0,0.0,0.0,0.0,0.0,0.0,0.0,0.0,0.0,0.0,0.0,0.0,0.0,0.0,0.0,0.0,0.0,0.0,0.0,0.0,0.0,0.0,0.0,0.0,0.0,0.0,0.0,0.0,0.0,0.0,0.0,0.0,0.0,0.0,0.0,0.0,0.0,0.0,0.0,0.0,0.0,0.0,0.0,0.0,0.0,0.0,0.0,0.0,0.0,0.0,0.0,0.0,0.0,0.0,0.0,0.0,0.0,0.0,0.0,0.0,0.0,0.0,0.0,0.0,0.0,0.0,0.0,0.0,0.0,0.0,0.0,0.0,0.0,0.0,0.0,0.0,0.0,0.0,0.0,0.0,0.0,0.0,0.0,0.0,0.0,0.0,0.0,0.0,0.0,0.0,0.0,0.0,0.5441,0.553,0.5492,0.5492,0.5446,0.5465,0.5558,0.552,0.5614,0.5943,0.0,0.0,0.0,0.0,0.0,0.0,0.0,0.0,0.0,0.0,0.0,0.0,0.0,0.0,0.0,0.0,0.0,0.0,0.0,0.0,0.0,0.0,0.0,0.0,0.0,0.0,0.0,0.0,0.0,0.0,0.0,0.0,0.0,0.0,0.0,0.0,0.0,0.0,0.0,0.0,0.0,0.0,0.0,0.0,0.0,0.0,0.0,0.0,0.0,0.0,0.0,0.0,0.0,0.0,0.0,0.0,0.0,0.0,0.0,0.0,0.682,0.6396,0.0,0.0,0.0,0.0,0.0,0.0,0.0,0.0,0.0,0.0,0.0,0.0,0.0,0.0,0.0,0.0,0.0,0.0,0.0,0.0,0.0,0.0,0.0,0.0,0.0,0.0,0.0,0.0,0.0,0.0,0.0,0.0,0.0,0.0,0.0,0.0,0.0,0.0,0.0,0.0,0.5807,0.5697,0.5492,0.5492,0.5492,0.5454,0.5368,0.5349,0.5453,0.5741,0.5143,0.0,0.0,0.0,0.0,0.0,0.0,0.0,0.0,0.0,0.0,0.0,0.0,0.0,0.0,0.0,0.0,0.0,0.0,0.0,0.0,0.0,0.0,0.0,0.0,0.0,0.0,0.0,0.0,0.0,0.0,0.0,0.0,0.0,0.0,0.0,0.0,0.0,0.0,0.0,0.0,0.0,0.0,0.0,0.0,0.0,0.0,0.0,0.0,0.0,0.0,0.0,0.0,0.0,0.0,0.0,0.0,0.0,0.0,0.0,0.7827,0.7417,0.0,0.0,0.0,0.0,0.0,0.0,0.0,0.0,0.0,0.0,0.0,0.0,0.0,0.0,0.0,0.0,0.0,0.0,0.0,0.0,0.0,0.0,0.0,0.0,0.0,0.0,0.0,0.0,0.0,0.0,0.0,0.0,0.0,0.0,0.0,0.0,0.0,0.0,0.0,0.0,0.5834,0.5689,0.5492,0.5492,0.5492,0.5492,0.5492,0.5492,0.5558,0.5734,0.5241,0.0,0.0,0.0,0.0,0.0,0.0,0.0,0.0,0.0,0.0,0.0,0.0,0.0,0.0,0.0,0.0,0.0,0.0,0.0,0.0,0.0,0.0,0.0,0.0,0.0,0.0,0.0,0.0,0.0,0.0,0.0,0.0,0.0,0.0,0.0,0.0,0.0,0.0,0.0,0.0,0.0,0.0,0.0,0.0,0.0,0.0,0.0,0.0,0.0,0.0,0.0,0.0,0.0,0.923,0.9435,0.9878,0.8949,0.8779,0.9241,0.891,0.8432,0.792,0.7527,0.0,0.0,0.0,0.0,0.0,0.0,0.0,0.0,0.0,0.0,0.0,0.0,0.0,0.0,0.0,0.0,0.0,0.0,0.0,0.0,0.0,0.0,0.7386,0.7417,0.7417,0.7056,0.5756,0.0,0.0,0.0,0.0,0.0,0.0,0.0,0.0,0.0,0.0,0.0,0.5745,0.5625,0.5492,0.5492,0.5492,0.553,0.5635,0.5654,0.5692,0.5756,0.5345,0.515,0.0,0.0,0.0,0.0,0.0,0.0,0.0,0.0,0.0,0.0,0.0,0.0,0.0,0.0,0.0,0.0,0.0,0.0,0.0,0.0,0.0,0.0,0.0,0.0,0.0,0.0,0.0,0.0,0.0,0.0,0.0,0.0,0.5455,0.5586,0.0,0.0,0.0,0.0,0.0,0.0,0.0,0.0,0.0,0.0,0.0,0.0,0.0,0.9354,0.9413,1.0044,1.0371,1.0411,1.0821,1.1104,1.1166,1.1018,1.0964,1.1067,1.0993,0.0,0.8103,0.8367,0.0,0.0,0.0,0.0,0.0,0.0,0.0,0.0,0.0,0.0,0.0,0.0,0.0,0.0,0.0,0.0,0.0,0.0,0.0,0.0,0.0,0.0,0.7966,0.7241,0.7061,0.6961,0.6597,0.6457,0.6242,0.5602,0.5321,0.5032,0.0,0.0,0.0,0.0,0.0,0.0,0.5727,0.5625,0.5492,0.5492,0.5492,0.5473,0.5446,0.5437,0.5503,0.5614,0.5505,0.5529,0.5712,0.5127,0.0,0.0,0.0,0.0,0.0,0.0,0.0,0.0,0.0,0.0,0.0,0.0,0.0,0.0,0.0,0.0,0.0,0.0,0.0,0.0,0.0,0.0,0.0,0.0,0.0,0.0,0.0,0.0,0.0,0.566,0.6453,0.6179,0.6871,0.7036,0.0,0.0,0.0,0.0,0.0,0.0,0.0,0.0,0.0,0.9796,1.0084,1.0368,1.062,1.1191,1.1672,1.2001,1.2518,1.2938,1.3233,1.2901,1.2765,1.2765,1.2188,1.1383,1.0522,0.975,0.9185,0.882,0.0,0.0,0.0,0.0,0.8607,0.8248,0.8608,0.8451,0.8054,0.7889,0.0,0.0,0.0,0.0,0.0,0.0,0.0,0.815,0.8079,0.8046,0.7962,0.7739,0.7671,0.7603,0.7337,0.7062,0.6772,0.6402,0.6511,0.6441,0.5774,0.5675,0.0,0.0,0.0,0.586,0.6145,0.5978,0.5847,0.5847,0.5847,0.5724,0.5485,0.5673,0.5704,0.5494,0.5435,0.5501,0.5793,0.5302,0.5027,0.0,0.0,0.0,0.0,0.0,0.0,0.0,0.0,0.0,0.0,0.0,0.0,0.0,0.0,0.0,0.0,0.0,0.0,0.0,0.0,0.0,0.0,0.0,0.0,0.0,0.0,0.0,0.0,0.6446,0.7248,0.7,0.7781,0.802,0.0,0.0,0.0,0.0,0.0,0.0,0.9305,1.0036,1.0594,1.0873,1.1122,1.1454,1.1826,1.2403,1.2895,1.3351,1.3852,1.4248,1.4568,1.4123,1.3838,1.3712,1.2941,1.2579,1.2452,1.1008,1.0244,0.9967,0.942,0.9233,0.9285,0.9517,0.9294,0.8937,0.9423,0.9234,0.8741,0.8462,0.8268,0.8069,0.7715,0.0,0.0,0.0,0.0,0.8321,0.8517,0.8314,0.8068,0.8068,0.8072,0.8015,0.7754,0.7527,0.727,0.6995,0.7237,0.7297,0.6695,0.664,0.0,0.6158,0.6254,0.637,0.6403,0.6216,0.6094,0.6094,0.6094,0.5985,0.5684,0.6,0.6,0.5513,0.5472,0.5529,0.5644,0.5339,0.5176,0.5182,0.0,0.0,0.0,0.0,0.0,0.0,0.0,0.0,0.0,0.0,0.0,0.0,0.0,0.0,0.0,0.0,0.0,0.0,0.0,0.0,0.0,0.0,0.0,0.0,0.0,0.0,0.0,0.0,0.0,0.816,0.8655,0.0,0.0,0.0,0.0,0.9779,1.0276,1.0488,1.0168,1.1492,1.2066,1.1652,1.255,1.3051,1.302,1.3661,1.4022,1.4047,1.4601,1.4619,1.4209,1.4185,1.3922,1.3402,1.339,1.3122,1.2715,1.1872,1.1575,1.1617,1.109,1.0923,1.0934,1.0418,1.0058,0.9853,1.0069,0.9907,0.9592,0.981,0.9508,0.9021,0.8999,0.901,0.0,0.0,0.9424,0.9617,0.8953,0.8767,0.8592,0.7901,0.7725,0.7725,0.7695,0.7734,0.7644,0.7175,0.6855,0.6581,0.6348,0.0,0.6411,0.614,0.6208,0.6266,0.6144,0.6119,0.6095,0.6095,0.6095,0.6086,0.6067,0.6314,0.6244,0.5725,0.587,0.5744,0.5244,0.5319,0.5299,0.5117,0.493,0.0,0.0,0.0,0.0,0.0,0.0,0.0,0.0,0.0,0.0,0.0,0.0,0.0,0.0,0.0,0.0,0.0,0.0,0.0,0.0,0.0,0.0,0.0,0.0,0.0,0.0,0.0,0.0,0.9303,1.0118,0.0,0.9654,1.0418,1.0842,1.0497,1.1064,1.1479,1.1685,1.2225,1.2761,1.3223,1.3576,1.3935,1.425,1.4184,1.4325,1.4694,1.4564,1.4587,1.4798,1.4798,1.4656,1.4469,1.4161,1.3938,1.3782,1.3137,1.2595,1.2114,1.1914,1.1839,1.1858,1.1648,1.1478,1.1238,1.0756,1.0438,1.0164,0.9651,0.933,0.9248,0.9659,0.9617,0.9541,1.0106,0.999,0.9576,0.9077,0.8736,0.8386,0.7832,0.7695,0.7695,0.7695,0.7725,0.7618,0.7224,0.7326,0.7256,0.6728,0.6742,0.662,0.607,0.6356,0.6602,0.655,0.655,0.655,0.655,0.655,0.6421,0.6126,0.6353,0.6297,0.5789,0.5631,0.5522,0.5454,0.53,0.5243,0.53,0.4697,0.4196,0.0,0.0,0.0,0.0,0.0,0.0,0.0,0.0,0.0,0.0,0.0,0.0,0.0,0.0,0.0,0.0,0.0,0.0,0.0,0.0,0.0,0.0,0.0,0.0,0.0,0.9341,1.0257,1.0445,1.1462,1.1777,1.0883,1.1647,1.2013,1.1465,1.201,1.2436,1.2637,1.3119,1.3558,1.3924,1.4062,1.4235,1.4383,1.4296,1.4393,1.4754,1.4653,1.4653,1.488,1.488,1.4789,1.4593,1.428,1.414,1.4093,1.3763,1.3258,1.2699,1.2544,1.2482,1.2472,1.2359,1.2254,1.2086,1.144,1.1195,1.1014,1.0361,1.0133,1.023,1.0654,1.0621,1.0507,1.0919,1.0592,0.9969,0.9401,0.894,0.8486,0.8047,0.7802,0.7695,0.7695,0.7608,0.748,0.7324,0.7491,0.7492,0.6895,0.6878,0.6758,0.6269,0.6538,0.6793,0.6793,0.6793,0.6793,0.6793,0.6793,0.6684,0.6358,0.6498,0.6391,0.5898,0.5659,0.5501,0.5444,0.5281,0.5204,0.5204,0.441,0.3861,0.3602,0.0,0.0,0.0,0.0,0.0,0.0,0.0,0.0,0.0,0.0,0.0,0.0,0.0,0.0,0.0,0.0,0.0,0.0,0.0,0.0,0.0,0.0,0.0,0.9956,1.0406,1.0969,1.1588,1.2572,1.305,1.2591,1.3142,1.3291,1.278,1.3203,1.3329,1.2985,1.4155,1.4474,1.3656,1.3993,1.3952,1.3451,1.3993,1.4298,1.4298,1.4834,1.4834,1.4384,1.4384,1.4093,1.361,1.361,1.361,1.3621,1.3621,1.3621,1.3569,1.3124,1.2903,1.2851,1.2461,1.2339,1.2275,1.2189,1.2136,1.2083,1.2007,1.2007,1.2007,1.2007,1.2007,1.1916,1.1439,1.1215,1.0884,1.0069,0.9416,0.8916,0.8477,0.8036,0.7705,0.7695,0.744,0.7292,0.7468,0.7361,0.7143,0.6842,0.6811,0.6811,0.6781,0.6781,0.0,0.6811,0.6811,0.6811,0.6811,0.6811,0.6811,0.6811,0.6783,0.6561,0.6045,0.5993,0.5723,0.5127,0.5281,0.5185,0.4793,0.4118,0.3656,0.3395,0.0,0.0,0.0,0.0,0.0,0.0,0.0,0.0,0.0,0.0,0.0,0.0,0.0,0.0,0.0,0.0,0.0,0.0,0.0,0.0,0.0,1.0401,1.1181,1.1152,1.16,1.2303,1.3292,1.3348,1.3371,1.3703,1.3532,1.3564,1.3861,1.3674,1.3818,1.4387,1.4116,1.4163,1.4613,1.4385,1.4413,1.4639,1.4474,1.4359,1.4359,1.4122,1.4046,1.4114,1.4114,1.415,1.4186,1.4186,1.4186,1.414,1.3763,1.3716,1.3858,1.3523,1.3424,1.3414,1.3289,1.3031,1.2741,1.2696,1.248,1.2222,1.2126,1.2083,1.204,1.2007,1.2007,1.1986,1.1855,1.1382,1.0791,1.0475,0.9701,0.888,0.8438,0.828,0.814,0.7843,0.7936,0.8015,0.7822,0.7755,0.7514,0.6906,0.6885,0.6876,0.6621,0.672,0.6811,0.6811,0.6811,0.6811,0.6811,0.6811,0.6811,0.6811,0.6502,0.6228,0.6092,0.5701,0.5422,0.5253,0.5059,0.4755,0.4293,0.3765,0.3376,0.0,0.0,0.0,0.0,0.0,0.0,0.0,0.0,0.0,0.0,0.0,0.0,0.0,0.0,0.0,0.0,0.0,0.0,0.0,0.0,0.0,0.0,1.1882,1.2622,1.306,1.3179,1.349,1.4262,1.427,1.4173,1.4099,1.4027,1.4017,1.4089,1.4232,1.4488,1.4941,1.4797,1.4808,1.5042,1.4792,1.4676,1.4834,1.4558,1.4373,1.4373,1.4093,1.3999,1.415,1.415,1.4244,1.4373,1.4373,1.428,1.4046,1.3716,1.3668,1.3821,0.0,0.0,0.0,0.0,1.3445,1.3171,1.3171,1.3041,1.2834,1.2734,1.2734,1.2734,1.2699,1.2654,1.2613,1.242,1.1784,1.1094,1.0825,0.9897,0.8949,0.8662,0.8493,0.8346,0.8118,0.811,0.814,0.8009,0.7859,0.0,0.7106,0.7026,0.6987,0.687,0.6814,0.6811,0.6811,0.6811,0.6811,0.6811,0.6811,0.6811,0.6811,0.6437,0.0,0.0,0.0,0.5372,0.5137,0.4764,0.0,0.0,0.0,0.0,0.0,0.2882,0.0,0.0,0.3668,0.3844,0.0,0.0,0.0,0.0,0.0,0.0,0.0,0.0,0.0,0.0,0.0,0.0,0.0,0.0,0.0,0.0,1.3275,1.4079,1.5183,1.4888,1.4624,1.4759,1.5178,1.5073,1.4137,1.4474,1.4537,1.4026,1.4782,1.5229,1.5061,1.5752,0.0,0.0,0.0,1.4834,1.4373,1.4373,1.4373,1.4373,1.4373,1.4419,1.4419,1.4419,1.4477,1.4477,1.4419,1.414,1.3668,1.3563,1.3515,1.3515,1.3362,1.342,1.3621,1.3621,1.3621,1.3621,1.3621,0.0,0.0,1.3515,1.3515,1.3478,1.3478,1.3478,1.3385,1.2986,1.2193,1.1431,1.1103,1.0037,0.9012,0.9004,0.873,0.8459,0.8413,0.8202,0.8058,0.8166,0.7951,0.769,0.7526,0.7298,0.714,0.7228,0.6987,0.6811,0.6811,0.6811,0.6811,0.6811,0.6811,0.0,0.6811,0.6565,0.6314,0.6098,0.5909,0.5533,0.4981,0.4507,0.4117,0.385,0.361,0.3334,0.3019,0.3229,0.3328,0.3355,0.358,0.3802,0.0,0.0,0.0,0.0,0.0,0.0,0.0,0.0,0.0,0.0,0.0,0.0,0.0,0.0,0.0,1.3356,1.4352,1.5296,1.6075,1.5813,1.5484,1.5383,1.5113,1.4931,1.4879,1.4642,1.4677,1.5203,1.5171,1.5392,1.5991,1.5576,1.5232,1.5108,1.4743,1.4512,1.4373,1.4373,1.4373,1.4373,1.4373,0.0,1.4662,1.4662,1.4743,1.4926,1.4558,1.4326,1.4186,1.3304,1.3064,1.3314,1.3716,1.3716,1.3621,1.3621,1.3621,1.3621,1.3621,1.3372,1.3112,1.3112,1.2939,1.2715,1.2715,1.2715,0.0,1.2619,1.1752,1.0927,1.1107,1.0091,0.8985,0.8936,0.89,0.8794,0.8558,0.8664,0.8802,0.8802,0.8762,0.8737,0.866,0.7884,0.7185,0.6927,0.6824,0.6811,0.6811,0.6811,0.6811,0.6811,0.6811,0.6811,0.6811,0.6565,0.6466,0.6626,0.6409,0.5964,0.5331,0.486,0.4426,0.4053,0.3629,0.3318,0.3089,0.3342,0.3556,0.3722,0.408,0.4416,0.0,0.0,0.0,0.0,0.0,0.0,0.0,0.0,0.0,0.0,0.0,1.1266,1.2157,0.0,1.3899,1.4816,1.5325,1.5799,1.6458,1.6245,1.5939,1.5855,1.5459,1.5131,1.4903,1.4926,1.5096,1.54,1.5501,1.568,1.5932,1.5591,1.5277,1.5108,1.488,1.4743,1.4743,1.4743,1.4743,1.4743,1.4743,1.4789,1.488,1.488,1.4971,1.5108,1.4834,1.4605,1.4326,1.3552,1.3074,1.289,1.342,1.3668,1.3763,1.342,1.342,1.3563,1.3372,1.317,1.2967,1.2793,1.2657,1.248,1.248,1.248,1.248,1.248,1.1779,1.1013,1.0947,1.0116,0.9254,0.9024,0.8958,0.8964,0.8776,0.8887,0.9016,0.9016,0.9016,0.8956,0.8767,0.8262,0.7757,0.7397,0.7021,0.6811,0.6811,0.6811,0.6811,0.6811,0.6811,0.6811,0.6811,0.6565,0.6475,0.6584,0.6253,0.5875,0.5457,0.4953,0.4541,0.4168,0.3791,0.3506,0.3289,0.3508,0.3742,0.4018,0.4425,0.4752,0.0,0.0,0.0,0.0,0.0,0.0,0.0,1.0122,1.0341,1.1676,1.2269,1.2877,1.3822,1.4466,1.514,1.6035,1.6066,1.6173,1.6617,1.6349,1.6144,1.6144,1.5824,1.5412,1.4891,1.5198,1.5412,1.5355,1.5635,1.5768,1.5591,1.5546,1.5367,1.5108,1.5108,1.5108,1.5108,1.5108,1.5108,1.5108,1.5108,1.5108,1.5108,1.5108,1.5108,1.5108,1.5017,1.464,1.4035,1.361,1.3084,1.2559,1.2842,1.3324,1.3773,1.317,1.318,1.343,1.3074,1.2929,1.2832,1.252,1.2382,1.2274,1.2274,1.2283,1.2283,1.2283,1.1725,1.1098,1.0785,1.0197,0.9606,0.9221,0.9136,0.911,0.9033,0.9016,0.9016,0.9016,0.9016,0.8922,0.8652,0.8531,0.8359,0.7954,0.732,0.6884,0.6884,0.6824,0.6811,0.6811,0.6811,0.6811,0.6811,0.6635,0.6526,0.6479,0.6153,0.5874,0.5664,0.5136,0.4676,0.4335,0.405,0.3787,0.3553,0.3744,0.401,0.4368,0.4748,0.504,0.8899,0.9542,1.0199,1.0688,1.0457,1.074,0.0,1.3038,1.2801,1.4556,1.4959,1.5073,1.5241,1.5787,1.614,1.6031,1.644,1.6714,1.6552,1.6207,1.6044,1.6044,1.5768,1.5501,1.5267,1.5165,1.5232,1.5546,1.5322,1.5334,1.5591,1.5334,1.5153,1.5108,1.5108,1.5108,1.5108,1.5108,1.5108,1.5108,1.5108,1.5108,1.5108,1.5108,1.5108,1.5062,1.4651,1.3931,1.2957,1.2909,1.2822,1.2725,1.2206,1.255,1.3266,1.3007,1.292,1.2978,1.292,1.2666,1.2372,1.2175,1.1877,1.1578,1.1469,1.1418,1.1418,1.1418,1.11,1.0759,1.0716,1.0368,0.9939,0.9624,0.9547,0.9444,0.9093,0.9016,0.9016,0.9016,0.9016,0.9007,0.8964,0.8712,0.8359,0.7954,0.7534,0.7252,0.7252,0.6978,0.6811,0.6811,0.6811,0.6811,0.6811,0.694,0.6943,0.6781,0.6878,0.6724,0.6225,0.5711,0.5203,0.4754,0.4415,0.4077,0.3763,0.4154,0.452,0.4926,0.5198,0.5479,1.0964,1.1094,1.1068,1.2329,1.2459,1.268,1.4167,1.4128,1.4215,1.5684,1.5984,1.6036,1.6281,1.654,1.6612,1.6338,1.6316,1.6349,1.6207,1.5901,1.5736,1.5836,1.5647,1.5468,1.5312,1.5267,1.5255,1.5277,1.5198,1.5153,1.5277,1.5198,1.5108,1.5108,1.5108,1.5108,1.5108,1.5108,1.5108,1.5108,1.5108,1.5108,1.5108,1.5108,1.5108,1.5108,1.488,1.4212,1.3266,1.3266,1.2929,1.2353,1.2116,1.2264,1.255,1.2569,1.2676,1.2881,1.2627,1.2431,1.2274,1.1977,1.1728,1.1477,1.1418,1.1377,1.1326,1.1326,1.1165,1.0994,1.0779,1.06,1.0334,0.9743,0.9606,0.9495,0.9101,0.9016,0.9016,0.9016,0.9016,0.9016,0.9016,0.8887,0.8725,0.857,0.804,0.7654,0.7654,0.7329,0.7012,0.6807,0.6811,0.6811,0.6811,0.6872,0.6902,0.6811,0.6872,0.6772,0.6437,0.6065,0.571,0.5447,0.4968,0.4642,0.4496,0.4503,0.467,0.4961,0.5304,0.5638,1.2206,1.2285,1.2275,1.3657,1.4141,1.4402,1.4842,1.4922,1.522,1.6162,1.6327,1.6455,1.6883,1.682,1.6693,1.6595,1.6306,1.6044,1.5957,1.5736,1.5614,1.5715,1.5659,1.5525,1.5402,1.5357,1.5267,1.5165,1.5108,1.5108,1.5108,1.5108,1.5108,1.5108,1.5108,1.5108,1.5108,1.5108,1.5108,1.5108,1.5108,1.5108,1.5108,1.4971,1.4971,1.5108,1.4971,1.4408,1.3621,1.3621,1.2997,1.2076,1.2076,1.2076,1.2126,1.2224,1.2431,1.2627,1.2332,1.2224,1.2175,1.1877,1.1678,1.1628,1.1578,1.1477,1.1418,1.1418,1.1418,1.1358,1.104,1.0971,1.0781,0.9976,0.9796,0.9658,0.9127,0.9016,0.9016,0.9016,0.9016,0.9016,0.9016,0.9016,0.9016,0.9016,0.8553,0.8168,0.8065,0.762,0.7175,0.6824,0.6811,0.6811,0.6811,0.6811,0.6811,0.6811,0.6811,0.672,0.649,0.6329,0.6129,0.5921,0.5484,0.5182,0.5087,0.4858,0.4884,0.5137,0.546,0.5804,1.202,1.2873,1.3853,1.4428,1.5003,1.5516,1.5718,1.5752,1.5847,1.6139,1.6219,1.638,1.6909,1.6612,1.6398,1.6752,1.6479,1.61,1.5836,1.5792,1.5792,1.5792,1.5792,1.5748,1.5715,1.5447,1.5312,1.5312,1.5153,1.5108,1.5108,1.5108,1.5108,1.5108,1.5108,1.5108,1.5108,1.5108,1.5108,1.5108,1.5108,1.5108,1.5062,1.4605,1.4651,1.5062,1.4605,1.4093,1.3621,1.3621,1.2997,1.2076,1.2076,1.2076,1.2076,1.2076,1.2126,1.2126,1.2126,1.2126,1.2076,1.1927,1.1877,1.1877,1.1719,1.1669,1.1678,1.1678,1.1678,1.1669,1.166,1.166,1.1407,1.0484,1.0301,1.0048,0.9178,0.9016,0.9016,0.9016,0.9016,0.9016,0.9016,0.9016,0.9016,0.9016,0.8999,0.8853,0.8523,0.7774,0.7175,0.6824,0.6811,0.6811,0.6811,0.6811,0.6811,0.6811,0.6811,0.672,0.649,0.649,0.6337,0.599,0.5921,0.5672,0.5277,0.5137,0.5327,0.578,0.578,0.6153,1.3422,1.4023,1.4559,1.5539,1.5944,1.6153,1.6357,1.6401,1.6368,1.6287,1.6021,1.5899,1.6204,1.5969,1.5773,1.5969,1.5942,1.5881,1.5792,1.5792,1.5792,1.5792,1.5792,1.5792,1.5748,1.5626,1.5537,1.5424,1.5379,1.5379,1.5379,1.53,1.521,1.521,1.5165,1.5108,1.5108,1.5108,1.5108,1.5108,1.5108,1.5108,1.5108,1.4926,1.4789,1.4651,1.4891,1.4501,1.3732,1.3732,1.3304,1.2638,1.2264,1.2076,1.2076,1.2076,1.2076,1.2076,1.2076,1.2076,1.2076,1.2026,1.1977,1.1877,1.1828,1.1769,1.1728,1.1728,1.1728,1.1728,1.1728,1.1728,1.1474,1.0639,1.0454,1.0198,0.9301,0.9136,0.9096,0.9016,0.9016,0.9016,0.9016,0.9016,0.9016,0.9016,0.9016,0.8879,0.8531,0.8265,0.7861,0.7201,0.7132,0.7038,0.6837,0.6811,0.6811,0.6811,0.6811,0.6781,0.6712,0.6681,0.6651,0.6529,0.6329,0.6044,0.5703,0.5484,0.5421,0.5547,0.5765,0.6083,1.4542,1.4912,1.5199,1.6388,1.6716,1.6767,1.6562,1.6595,1.6489,1.5819,1.5556,1.5496,1.5656,1.5352,1.5306,1.5979,1.5743,1.562,1.5976,1.5925,1.5792,1.5792,1.5792,1.5792,1.5792,1.5748,1.5703,1.557,1.5513,1.5513,1.5513,1.5435,1.5345,1.5312,1.521,1.5165,1.5108,1.5108,1.5108,1.5153,1.5153,1.521,1.5244,1.4869,1.464,1.4501,1.4743,1.4351,1.3589,1.3779,1.3447,1.2793,1.2363,1.2175,1.2175,1.2126,1.2076,1.2076,1.2076,1.2076,1.2076,1.2076,1.2026,1.1977,1.1977,1.1927,1.1828,1.1828,1.1828,1.1828,1.1828,1.1828,1.1657,1.0964,1.0803,1.0543,0.9635,0.9468,0.9383,0.9131,0.9056,0.9056,0.9024,0.9016,0.9016,0.9016,0.9016,0.8879,0.8531,0.8488,0.8248,0.7586,0.7397,0.7218,0.6987,0.688,0.6833,0.6811,0.6811,0.6833,0.6833,0.6833,0.6833,0.6863,0.6695,0.6443,0.6106,0.5928,0.5835,0.5797,0.6014,0.6268,1.5299,1.559,1.5878,1.6978,1.7365,1.731,1.6411,1.6471,1.6253,1.4818,1.4851,1.5113,1.5234,1.4853,1.5043,1.6527,1.579,1.5387,1.6318,1.6088,1.5792,1.5792,1.5792,1.5792,1.5792,1.5792,1.5748,1.5715,1.5614,1.5513,1.5513,1.5513,1.5424,1.5312,1.5312,1.5255,1.5108,1.5108,1.5198,1.5312,1.5312,1.5345,1.5424,1.4479,1.4247,1.4606,1.4201,1.3695,1.3266,1.3779,1.342,1.2529,1.2372,1.2323,1.2274,1.2175,1.2126,1.2126,1.2126,1.2126,1.2076,1.2076,1.2076,1.2076,1.2076,1.2076,1.2076,1.2076,1.2076,1.2076,1.2076,1.2076,1.1975,1.1438,1.1291,1.1028,1.0099,0.9922,0.9774,0.9296,0.9177,0.9136,0.9016,0.9016,0.9016,0.9016,0.9016,0.8887,0.8566,0.8514,0.8377,0.8007,0.7594,0.7363,0.7338,0.7097,0.692,0.6846,0.6872,0.6915,0.6915,0.6915,0.6936,0.6987,0.7017,0.6846,0.649,0.6521,0.6521,0.649,0.649,0.6643,1.645,1.6952,1.7383,1.7639,1.7747,1.7531,1.6583,1.6399,1.619,1.5141,1.4199,1.3736,1.4296,1.4056,1.4075,1.4907,1.533,1.568,1.5944,1.5881,1.5792,1.5792,1.5792,1.5792,1.5792,1.5792,1.5792,1.5792,1.5748,1.5703,1.5703,1.5659,1.5614,1.5582,1.5525,1.5424,1.5379,1.5379,1.5424,1.5424,1.5424,1.5277,1.4892,1.4663,1.419,1.3589,1.3978,1.3836,1.3362,1.3505,1.342,1.3132,1.2618,1.2431,1.2431,1.2421,1.2382,1.2382,1.2274,1.2175,1.2076,1.2076,1.2076,1.2076,1.2076,1.2076,1.2076,1.2076,1.2076,1.2076,1.2076,1.2076,1.1975,1.1533,1.1442,1.1167,1.0272,1.0058,0.9891,0.9296,0.9136,0.9056,0.9016,0.9096,0.9136,0.9136,0.9136,0.9102,0.9046,0.9029,0.8889,0.8589,0.8493,0.8308,0.8008,0.7628,0.7416,0.7384,0.7134,0.6957,0.6957,0.6957,0.6987,0.7017,0.7056,0.6906,0.6573,0.6665,0.6656,0.6573,0.6573,0.6717,1.7281,1.765,1.7882,1.7882,1.7963,1.7678,1.6308,1.6123,1.5806,1.4272,1.3484,1.3116,1.3174,1.3185,1.3506,1.4378,1.4858,1.5381,1.6027,1.5925,1.5792,1.5792,1.5792,1.5792,1.5792,1.5792,1.5792,1.5792,1.5792,1.5792,1.5792,1.5748,1.5715,1.5715,1.5614,1.5558,1.5513,1.5513,1.5513,1.557,1.557,1.5468,1.5175,1.4949,1.4433,1.3684,1.4071,1.3847,1.319,1.342,1.3372,1.3142,1.2725,1.2578,1.2578,1.2529,1.248,1.248,1.2421,1.2323,1.2274,1.2126,1.2076,1.2076,1.2076,1.2076,1.2076,1.2076,1.2076,1.2076,1.2076,1.2076,1.2021,1.1801,1.1746,1.1572,1.0849,1.0576,1.0225,0.9403,0.9168,0.9128,0.9096,0.9177,0.9248,0.9248,0.9248,0.9257,0.9306,0.9266,0.9138,0.9035,0.8905,0.8718,0.8486,0.8103,0.781,0.7608,0.7409,0.7235,0.7056,0.7056,0.7056,0.7077,0.7116,0.7047,0.6867,0.6927,0.6927,0.6867,0.6867,0.6927,1.7892,1.7963,1.7963,1.7963,1.8054,1.7669,1.5942,1.5694,1.5227,1.3031,1.2782,1.2794,1.2115,1.2333,1.3051,1.4332,1.4413,1.4773,1.6188,1.6044,1.5792,1.5792,1.5792,1.5792,1.5792,1.5792,1.5792,1.5792,1.5792,1.5792,1.5792,1.5792,1.5748,1.5715,1.5715,1.5659,1.5558,1.5558,1.5614,1.5715,1.5715,1.5703,1.5703,1.5198,1.4731,1.4212,1.4165,1.3658,1.2929,1.3344,1.3248,1.2881,1.2774,1.2735,1.2725,1.2578,1.2529,1.2529,1.2529,1.2529,1.248,1.2224,1.2126,1.2126,1.2126,1.2126,1.2076,1.2076,1.2076,1.2076,1.2076,1.2076,1.2076,1.2076,1.2076,1.1966,1.1572,1.1113,1.0511,0.951,0.9319,0.9288,0.9217,0.9288,0.9328,0.9328,0.9328,0.9377,0.9515,0.9355,0.9257,0.9368,0.9074,0.8925,0.8925,0.855,0.8137,0.7762,0.7661,0.7467,0.7134,0.7125,0.7145,0.7196,0.7196,0.7196,0.7196,0.7196,0.7196,0.7196,0.7196,0.7166,1.8372,1.84,1.84,1.84,1.8061,1.7348,1.5986,1.5319,0.0,1.319,1.2362,1.1885,1.1986,1.186,1.2146,1.3475,1.4051,1.4663,1.5768,1.5836,1.5792,1.5792,1.5792,1.5792,1.5792,1.5792,1.5792,1.5792,1.5792,1.5792,1.5792,1.5792,1.5792,1.5792,1.5792,1.5792,1.5748,1.5748,1.5748,1.5792,1.5792,1.557,1.5198,1.4674,1.4165,1.3705,1.3296,1.3065,1.2929,1.2978,1.2978,1.2881,1.2881,1.2881,1.2881,1.2832,1.2832,1.2832,1.2676,1.2686,1.2627,1.248,1.2382,1.2283,1.2283,1.2175,1.2076,1.2076,1.2076,1.2076,1.2076,1.2076,1.2076,1.2076,1.2076,1.1966,1.1572,1.0858,1.0107,0.9564,0.9377,0.9279,0.9288,0.9377,0.9475,0.9475,0.9475,0.9515,0.9643,0.9524,0.9475,0.9634,0.957,0.9533,0.9533,0.8894,0.8436,0.8362,0.768,0.7269,0.7196,0.7166,0.7196,0.7196,0.7196,0.7196,0.7196,0.7196,0.7196,0.7196,0.7196,0.7196,1.8419,1.8517,1.8517,1.8517,1.8054,1.7183,1.5609,0.0,0.0,1.2347,1.1646,1.1339,1.1339,1.1429,1.1709,1.2392,1.293,1.3692,1.488,1.5019,1.5211,1.5732,1.5792,1.5792,1.5792,1.5792,1.5792,1.5792,1.5792,1.5792,1.5792,1.5792,1.5792,1.5792,1.5792,1.5792,1.5792,1.5792,1.5792,1.5792,1.5792,1.5703,1.548,1.5187,1.4812,1.4362,1.3847,1.3478,1.3248,1.3248,1.3113,1.2929,1.3162,1.3113,1.2881,1.2881,1.2881,1.2881,1.2832,1.2783,1.2774,1.2735,1.2578,1.2382,1.2382,1.2382,1.2332,1.2332,1.2332,1.2332,1.2332,1.2274,1.2175,1.2175,1.2175,1.1902,1.1343,1.0847,1.0313,0.9632,0.9506,0.9506,0.9417,0.9515,0.9603,0.9603,0.9603,0.9643,0.9683,0.9643,0.9643,0.9683,0.9683,0.9683,0.9683,0.9161,0.8719,0.8507,0.7895,0.7424,0.7205,0.7196,0.7196,0.7196,0.7196,0.7196,0.7196,0.7196,0.7196,0.7196,0.7196,0.7235,1.8194,1.8419,1.8517,1.8517,1.7955,1.6944,1.5202,1.4218,0.0,1.145,1.1108,1.1062,1.0849,1.1123,1.1442,1.1748,1.2095,1.2855,1.4305,1.4517,1.4861,1.5772,1.5881,1.5881,1.5881,1.5881,1.5836,1.5836,1.5836,1.5792,1.5792,1.5792,1.5792,1.5792,1.5792,1.5792,1.5792,1.5792,1.5792,1.5792,1.5792,1.5792,1.5792,1.5703,1.5424,1.5062,1.4536,1.4071,1.3752,1.3752,1.3478,1.3065,1.3478,1.3296,1.2881,1.2881,1.2881,1.2881,1.2881,1.2881,1.2881,1.2881,1.2735,1.2529,1.2529,1.2529,1.248,1.248,1.248,1.248,1.248,1.2431,1.2323,1.2323,1.2274,1.1944,1.1121,1.0945,1.0705,0.9749,0.9634,0.9683,0.9563,0.9643,0.9683,0.9683,0.9683,0.9683,0.9683,0.9683,0.9683,0.9683,0.9683,0.9683,0.9683,0.9336,0.8958,0.8645,0.81,0.7639,0.7342,0.7241,0.7196,0.7196,0.7196,0.7225,0.7235,0.7235,0.7264,0.7264,0.7264,0.7333,1.7674,1.8096,1.8517,1.8517,1.7632,1.6424,1.5103,0.0,1.2713,1.1366,1.1155,1.1192,1.1155,1.1047,1.1292,1.2264,0.0,1.3032,1.4639,1.5104,1.5494,1.6083,1.6156,1.6156,1.6156,1.6044,1.6001,1.6001,1.5869,1.5792,1.5792,1.5792,1.5792,1.5792,1.5792,1.5792,1.5792,1.5792,1.5792,1.5792,1.5792,1.5792,1.5792,1.5334,1.5153,1.5062,1.4536,1.4305,1.4258,1.4258,1.3978,1.3525,1.3563,1.3296,1.2881,1.2881,1.2881,1.2881,1.2881,1.2881,1.2881,1.2881,1.2783,1.2676,1.2676,1.2578,1.248,1.248,1.248,1.248,1.248,1.248,1.248,1.248,1.248,1.2243,1.1337,1.1158,1.0869,0.9941,0.9783,0.9783,0.9683,0.9683,0.9683,0.9683,0.9683,0.9683,0.9683,0.9683,0.9683,0.9683,0.9683,0.9683,0.9683,0.9336,0.9078,0.9032,0.8246,0.7775,0.773,0.7397,0.7196,0.7196,0.7196,0.7264,0.7381,0.7381,0.7411,0.748,0.748,0.749,1.7576,1.8205,1.8535,1.8115,1.7404,1.6344,1.4687,1.37,1.2749,1.1471,1.1239,1.1262,1.1262,1.1192,1.1366,1.2015,1.1804,1.221,1.4149,1.4158,1.4483,1.5831,1.6019,1.6073,1.6207,1.6144,1.6144,1.6144,1.6013,1.5913,1.5913,1.5836,1.5792,1.5792,1.5792,1.5792,1.5792,1.5792,1.5792,1.5792,1.5792,1.5792,1.5792,1.5614,1.5513,1.5468,1.5006,1.4777,1.4777,1.4777,1.4316,1.361,1.3894,1.3573,1.2881,1.2881,1.2881,1.2881,1.2881,1.2881,1.2881,1.2881,1.2881,1.2832,1.2832,1.2783,1.2735,1.2735,1.2735,1.2735,1.2735,1.2676,1.2578,1.2529,1.248,1.2319,1.1732,1.1391,1.1031,1.0422,1.0111,0.9902,0.9793,0.9753,0.9753,0.9753,0.9713,0.9762,0.9872,0.9832,0.9793,0.9872,0.9753,0.9683,0.9683,0.9336,0.9124,0.9152,0.8623,0.8307,0.8408,0.8248,0.8154,0.8154,0.8154,0.8042,0.7828,0.7828,0.7706,0.749,0.749,0.7643,1.6813,1.7583,1.8044,1.7576,1.6993,1.6132,1.4424,1.3586,1.2827,1.1565,1.133,1.133,1.133,1.1353,1.1451,0.0,1.1626,1.2058,1.3761,1.3762,1.4205,1.5724,1.61,1.6239,1.6401,1.6549,1.665,1.6595,1.638,1.625,1.625,1.6044,1.5881,1.5792,1.5792,1.5792,1.5792,1.5792,1.5792,1.5792,1.5792,1.5792,1.5792,1.5792,1.5792,1.5792,1.5424,1.5289,1.5289,1.5153,1.4593,1.3847,1.4025,1.3621,1.2881,1.2881,1.2881,1.2881,1.2881,1.2881,1.2881,1.2881,1.2881,1.2881,1.2881,1.2881,1.2881,1.2881,1.2881,1.2881,1.2881,1.2832,1.2735,1.2627,1.2627,1.2512,1.21,1.171,1.1318,1.0784,1.044,1.0162,0.9881,0.9862,0.9862,0.9862,0.9832,0.9832,0.998,0.9902,0.9902,0.998,0.9872,0.9793,0.9793,0.9523,0.9385,0.9451,0.9065,0.8875,0.899,0.8866,0.8799,0.8799,0.8799,0.8579,0.8118,0.8251,0.8074,0.7549,0.7837,0.8194,1.5023,1.5966,1.6907,1.6892,1.6455,1.567,1.4383,1.3641,1.2827,1.1565,1.1353,1.1399,1.1399,1.1444,1.1489,1.1504,1.2263,1.3067,1.3638,1.4506,1.5267,1.5847,1.6504,1.6869,1.6883,1.737,1.7625,1.7517,1.7063,1.6795,1.6795,1.6392,1.6057,1.5792,1.5792,1.5792,1.5792,1.5792,1.5792,1.5792,1.5792,1.5792,1.5792,1.5792,1.5792,1.5792,1.5792,1.5792,1.5748,1.5289,1.4777,1.4258,1.38,1.3344,1.2881,1.2881,1.2881,1.2881,1.2881,1.2881,1.2881,1.2881,1.2881,1.2881,1.2881,1.2881,1.2881,1.2881,1.2881,1.2881,1.2881,1.2881,1.2881,1.2881,1.2881,1.2764,1.2278,1.218,1.1918,1.0968,1.0794,1.0627,1.0096,0.998,0.998,0.998,0.998,0.998,0.998,0.998,0.998,0.998,0.998,0.998,0.998,0.998,0.998,0.998,0.9592,0.9402,0.9411,0.9028,0.8799,0.8799,0.8799,0.8613,0.8204,0.8656,0.8477,0.7725,0.8594,0.9219,1.4443,1.5075,1.5576,1.5145,1.4902,1.4443,1.3166,1.2747,1.2409,1.1595,1.1444,1.1466,1.1466,1.1489,1.178,1.2652,1.2654,0.0,1.4571,1.5037,1.5515,1.6284,1.7047,1.7517,1.7517,1.7693,1.7625,1.7297,1.738,1.7297,1.6951,1.7034,1.6795,1.61,1.5957,1.5957,1.6069,1.5957,1.5957,1.6057,1.6057,1.5925,1.5603,1.5925,1.5836,1.5435,1.557,1.5736,1.5869,1.5051,1.4628,1.4525,1.3847,1.3344,1.3036,1.2929,1.2881,1.2881,1.2881,1.2881,1.2881,1.2881,1.2881,1.2881,1.2881,1.2881,1.2881,1.2881,1.2881,1.2881,1.2881,1.2881,1.2881,1.2881,1.2881,1.2842,1.2705,1.2441,1.2015,1.1475,1.1081,1.07,1.0165,1.0088,1.0088,1.0088,1.0019,1.0059,1.0176,1.0127,1.0088,1.0205,1.0244,1.0205,1.0019,0.998,1.0059,1.0205,1.0079,1.0088,1.0192,1.0091,1.0022,1.0022,1.0022,0.984,0.9437,0.9587,0.9367,0.8798,0.9421,0.9762,0.0,1.4092,1.4357,1.3995,1.3908,1.3621,1.2582,1.2361,1.2236,1.162,1.1489,1.1489,1.1489,1.1489,1.1838,1.2871,1.2874,1.3281,1.4732,1.5342,1.603,1.7071,1.7637,1.8029,1.8291,1.8305,1.8187,1.7948,1.7787,1.7707,1.7571,1.7449,1.7131,1.6607,1.638,1.6337,1.6436,1.6175,1.6144,1.62,1.62,1.6057,1.578,1.6069,1.5881,1.539,1.5647,1.578,0.0,1.4903,1.4617,1.4617,1.3789,1.3334,1.3104,1.3055,1.3007,1.3007,1.3007,1.3007,1.3007,1.2978,1.2929,1.2881,1.2881,1.2881,1.2881,1.2881,1.2881,1.2881,1.2881,1.2881,1.2881,1.2881,1.2881,1.2881,1.2881,1.2666,1.2295,1.1724,1.1338,1.0967,1.0302,1.0166,1.0196,1.0196,1.0166,1.0205,1.04,1.0351,1.0312,1.039,1.0467,1.0428,1.0244,1.0244,1.0283,1.04,1.039,1.0467,1.0582,1.0582,1.0582,1.0582,1.0736,1.0623,1.0169,1.0039,0.9988,1.0004,1.0021,1.0102,0.0,1.3011,1.3263,1.3263,1.3289,1.3129,1.2507,1.2352,0.0,1.1643,1.1511,1.1504,1.1562,1.1562,1.178,1.2439,1.3074,1.3699,1.4355,1.5545,1.6822,1.8114,1.8274,1.8491,1.9043,1.9101,1.9101,1.9064,1.8305,1.8028,1.8422,1.7679,1.724,1.724,1.6976,1.6795,1.6795,1.6392,1.6244,1.6244,1.6188,1.6188,1.6156,1.6144,1.5881,1.5468,1.5881,1.5836,1.5424,1.4846,1.4663,1.4571,1.3589,1.3218,1.3208,1.3218,1.3218,1.3218,1.3218,1.3218,1.317,1.3113,1.3027,1.2929,1.2929,1.2929,1.2881,1.2881,1.2881,1.2881,1.2881,1.2881,1.2881,1.2881,1.2881,1.2881,1.2881,1.2881,1.2627,1.1822,1.1655,1.139,1.0557,1.0391,1.0361,1.0468,1.0438,1.0457,1.0582,1.0582,1.0582,1.0582,1.0621,1.0621,1.0659,1.0621,1.0582,1.0621,1.0621,1.0621,1.0659,1.0659,1.0697,1.0697,1.1067,1.103,1.0626,1.023,1.0467,1.1244,1.049,1.0338,1.2621,0.0,1.194,1.194,1.2064,1.2134,0.0,1.1941,1.1896,0.0,0.0,1.1649,1.2105,1.2192,1.2594,1.3811,1.4145,1.4643,1.5739,1.7009,1.8104,1.8958,1.9046,1.9067,1.9087,1.9101,1.8988,1.8669,1.8461,1.8226,1.7988,1.7747,1.7679,1.7679,1.731,1.6934,1.6552,1.6436,1.6392,1.6436,1.6076,1.5888,1.5888,1.5501,1.5232,1.504,1.488,1.4915,1.4949,1.4061,1.4025,1.4408,1.3552,1.3266,1.3314,1.3266,1.3218,1.3218,1.3218,1.3218,1.3218,1.318,1.318,1.3132,1.3132,1.3007,1.2881,1.2881,1.2881,1.2881,1.2881,1.2881,1.2881,1.2881,1.2881,1.2881,1.2881,1.2881,1.2725,1.2178,1.207,1.1949,1.1529,1.1152,1.0964,1.1055,1.0794,1.0544,1.0582,1.0582,1.0582,1.0582,1.0697,1.085,1.1132,1.0802,1.0621,1.0746,1.0736,1.0926,1.1255,1.1292,1.1442,1.1737,1.1847,1.1827,1.1703,1.1637,1.1693,1.1884,1.1698,1.1673,1.2549,1.251,1.2372,1.2372,1.246,1.2547,1.2547,0.0,0.0,0.0,0.0,1.2065,1.275,1.2739,1.309,1.4519,1.4885,1.5566,1.7155,1.7944,1.862,1.9266,1.9339,1.9302,1.9176,1.9176,1.9064,1.8784,1.8592,1.8383,1.8108,1.7908,1.772,1.7516,1.7338,1.7089,1.6808,1.6565,1.6479,1.6466,1.602,1.5788,1.5788,1.5322,1.4915,1.4686,1.4697,1.4697,1.464,1.4082,1.4093,1.4326,1.3658,1.342,1.3467,1.3409,1.3362,1.3362,1.3362,1.3314,1.3314,1.3314,1.3266,1.3218,1.3218,1.3132,1.3007,1.2978,1.2978,1.2978,1.2929,1.2881,1.2881,1.2881,1.2881,1.2881,1.2881,1.2881,1.285,1.2629,1.2594,1.2534,1.2445,1.2027,1.1716,1.1724,1.1433,1.1193,1.1012,1.118,1.1292,1.1292,1.133,1.1479,1.1653,1.1442,1.1255,1.1115,1.1115,1.1228,1.1479,1.1664,1.1957,1.2318,1.2318,1.2437,1.2615,1.2437,1.2318,1.2318,1.2174,1.2113,1.2584,1.3259,1.3637,1.3304,1.3335,1.3404,1.3294,0.0,0.0,0.0,0.0,0.0,0.0,1.3444,1.3724,1.511,1.5782,1.6708,1.8288,1.8614,1.8844,1.9354,1.9413,1.9413,1.9339,1.9339,1.9265,1.9139,1.8693,1.8422,1.8422,1.7908,1.7475,1.7115,1.7173,1.7173,1.7157,1.6778,1.6565,1.6565,1.6051,1.5876,1.5964,1.5322,1.4869,1.4558,1.488,1.4743,1.428,1.4419,1.4419,1.4326,1.3905,1.3705,1.3716,1.361,1.3621,1.3621,1.3621,1.3515,1.3409,1.3409,1.3362,1.3266,1.3266,1.3266,1.3228,1.3162,1.3123,1.3075,1.2968,1.2968,1.2968,1.2968,1.3017,1.3065,1.3065,1.3113,1.3185,1.3261,1.3278,1.332,1.3448,1.2997,1.2602,1.2454,1.2189,1.1899,1.1645,1.1884,1.2113,1.2113,1.2113,1.2113,1.2174,1.215,1.1993,1.1737,1.1627,1.1627,1.1664,1.2066,1.2389,1.2673,1.2673,1.2861,1.3198,1.2861,1.2673,1.2673,1.2389,1.2258,1.3042,1.4176,1.4738,1.293,1.3067,1.3503,1.2875,0.0,0.0,0.0,0.0,0.0,0.0,1.4903,1.5412,1.6655,1.7807,1.8591,1.8672,1.9105,1.9471,1.956,1.9574,1.9538,1.9413,1.9376,1.9376,1.9376,1.8602,1.8159,1.8068,1.7323,1.6846,1.6761,1.6791,1.6833,1.696,1.6876,1.6833,1.6833,1.6312,1.6312,1.6693,1.549,1.4994,1.513,1.4686,1.4233,1.3752,1.4387,1.4536,1.4384,1.4326,1.428,1.4233,1.3763,1.3621,1.3621,1.3621,1.3573,1.3573,1.3573,1.3563,1.3515,1.3515,1.3515,1.3515,1.3372,1.3276,1.317,1.317,1.3122,1.3122,1.3122,1.3505,1.3836,1.3836,1.4154,1.4411,1.4426,1.446,1.4484,1.4643,1.3876,1.3301,1.3356,1.2617,1.2084,1.2004,1.2077,1.2113,1.2113,1.2113,1.221,1.2496,1.2318,1.2282,1.2579,1.2222,1.2138,1.2413,1.2838,1.3047,1.3129,1.3129,1.3129,1.3198,1.3129,1.3129,1.3129,1.3047,1.3012,1.2573,1.3566,1.4165,1.3585,1.4312,1.5065,1.4721,0.0,0.0,0.0,0.0,0.0,0.0,1.5573,1.6107,1.7514,1.8368,1.8959,1.9216,1.9474,1.9669,1.9669,1.9669,1.9632,1.9538,1.9501,1.9501,1.9413,1.9049,1.8602,1.808,1.768,1.7269,1.6803,1.6846,1.6876,1.696,1.7044,1.7002,1.6876,1.6355,1.6256,1.6441,1.5567,1.5254,1.5344,1.5085,1.4812,1.4617,1.4926,1.4903,1.4686,1.4686,1.4558,1.4373,1.414,1.3952,1.3821,1.3821,1.3716,1.3621,1.3621,1.3621,1.3621,1.3621,1.3621,1.3573,1.3515,1.3409,1.3314,1.3218,1.3409,1.3637,1.3637,1.4014,1.4387,1.4387,1.4571,1.4801,1.5017,1.5062,1.5209,1.5623,1.4865,1.411,1.4004,1.3347,1.2756,1.2508,1.272,1.2849,1.2849,1.2849,1.3041,1.3527,1.3445,1.3238,1.2896,1.2661,1.2696,1.3057,1.3242,1.3357,1.3357,1.3357,1.3357,1.3357,1.3357,1.3357,1.3357,1.3357,1.3357,1.2137,1.2974,1.3633,1.4534,0.0,1.5939,1.6105,0.0,0.0,0.0,0.0,0.0,1.6142,1.6475,1.7123,1.8361,1.8991,1.9436,1.9778,1.9818,1.9818,1.9818,1.9747,1.969,1.9647,1.9611,1.9574,1.9487,1.9376,1.9011,1.8341,1.8106,1.772,1.7115,1.7044,1.7002,1.7044,1.7157,1.7115,1.696,1.657,1.6373,1.6343,1.5908,1.5656,1.5611,1.5567,1.5534,1.5389,1.5478,1.5355,1.504,1.4994,1.4731,1.4373,1.4373,1.4291,1.4104,1.4104,1.3962,1.381,1.381,1.381,1.3763,1.3716,1.3668,1.3668,1.3621,1.3515,1.342,1.3314,1.3695,1.4071,1.4071,1.4525,1.4971,1.4971,1.5017,1.5242,1.5611,1.5656,1.5844,1.6392,1.5678,1.4933,1.4572,1.4034,1.3533,1.3039,1.3276,1.348,1.348,1.3527,1.3775,1.4322,1.4373,1.4011,1.3163,1.3072,1.3182,1.348,1.348,1.348,1.348,1.3459,1.3425,1.3425,1.3344,1.331,1.331,1.331,1.3357,1.2297,1.3208,1.4088,1.5453,1.5073,0.0,1.5226,1.5325,0.0,1.6171,0.0,0.0,1.7052,1.8189,1.9284,1.9637,2.0541,2.0959,2.0261,2.0174,2.0174,2.0174,1.9874,1.969,1.969,1.969,1.969,1.969,1.9325,1.9049,1.8855,1.812,1.7707,1.7639,1.724,1.7086,1.7199,1.7199,1.7199,1.7199,1.7157,1.7115,1.7115,1.6765,1.6497,1.6225,1.6175,1.5856,1.5433,1.58,1.5812,1.5501,1.5198,1.4789,1.4373,1.4373,1.4384,1.4373,1.4373,1.4384,1.4326,1.4326,1.4326,1.4291,1.4067,1.3962,1.3915,1.3668,1.361,1.3563,1.3563,1.3952,1.4373,1.4373,1.5085,1.57,1.57,1.6064,1.638,1.6423,1.6423,1.6479,1.6633,1.622,1.5651,1.521,1.4686,1.4123,1.3523,1.3493,1.348,1.348,1.3659,1.3939,1.4259,1.432,1.4116,1.368,1.3518,1.348,1.348,1.348,1.348,1.348,1.3267,1.3141,1.3141,1.2885,1.2745,1.2745,1.2745,1.2885,1.1804,1.269,1.3659,1.5589,1.5731,0.0,0.0,1.6978,1.7682,1.7806,1.8451,1.8818,1.8203,1.9007,1.9693,1.9515,2.0408,2.1039,2.0731,2.0698,2.0698,2.0698,2.0548,2.0462,2.0462,2.0174,2.0015,2.0015,1.9675,1.9347,1.9035,1.85,1.8068,1.7747,1.7352,1.7157,1.7199,1.7199,1.7199,1.7199,1.7199,1.7199,1.7199,1.7073,1.6976,1.685,1.682,1.6723,1.6527,1.6454,1.625,1.5913,1.5334,1.4971,1.4834,1.4834,1.4743,1.4569,1.4569,1.4512,1.4373,1.4373,1.4373,1.4373,1.4291,1.4244,1.4244,1.414,1.4093,1.3999,1.3668,1.4222,1.4834,1.4834,1.5546,1.625,1.625,1.638,1.6522,1.6522,1.6233,1.6007,1.6061,1.5385,1.479,1.4623,1.4065,1.3585,1.3323,1.3195,1.3138,1.3138,1.3791,1.4293,1.4423,1.474,1.485,1.471,1.4187,1.3747,1.3438,1.3459,1.3459,1.3459,1.3116,1.2978,1.2978,1.3082,1.3151,1.3151,1.3151,1.3185,1.1543,1.2394,1.3382,0.0,0.0,0.0,1.6848,1.7877,1.8739,1.8723,1.9144,1.9538,1.9496,1.9766,2.0009,2.0017,2.0809,2.1339,2.1197,2.1166,2.1166,2.1166,2.1007,2.0893,2.078,2.0431,2.0174,2.0085,1.9854,1.953,1.9139,1.8707,1.8266,1.7787,1.7393,1.7199,1.7199,1.7199,1.7199,1.7199,1.7199,1.7199,1.7199,1.7199,1.7199,1.7199,1.7199,1.7157,1.7031,1.668,1.6262,1.5792,1.5289,1.5108,1.5108,1.5108,1.4971,1.4846,1.4846,1.4754,1.4605,1.4605,1.4605,1.4605,1.4512,1.4466,1.4512,1.4558,1.4558,1.4501,1.4258,1.472,1.5277,1.54,1.5988,1.6565,1.6607,1.6607,1.6577,1.6607,1.6166,1.5838,1.5919,1.5118,1.4374,1.4299,1.3774,1.3313,1.3151,1.3,1.2995,1.3228,1.3907,1.445,1.4665,1.5067,1.5139,1.479,1.4444,1.4061,1.3649,1.348,1.3391,1.3391,1.3,1.2826,1.2896,1.3035,1.3138,1.3254,1.3254,1.3288,1.168,1.2495,1.3491,0.0,0.0,0.0,1.7169,1.7668,1.8149,1.8639,1.8783,1.9327,2.0906,2.0551,2.036,2.1411,2.1945,2.2036,2.1554,2.1524,2.1524,2.1524,2.1229,2.0862,2.0548,2.0382,2.0158,1.9833,1.9726,1.9545,1.9139,1.8707,1.8305,1.7828,1.7393,1.7199,1.7199,1.7199,1.7199,1.7199,1.7199,1.7199,1.7199,1.7199,1.7199,1.7199,1.7199,1.7018,1.668,1.6362,1.5792,1.5108,1.5108,1.5108,1.5108,1.5108,1.5108,1.5108,1.5108,1.5108,1.5108,1.5108,1.5108,1.5062,1.4789,1.4708,1.4754,1.4869,1.4903,1.4994,1.5344,1.5534,1.5668,1.6027,1.6423,1.6718,1.6876,1.6803,1.6718,1.6876,1.6386,1.6087,1.6421,1.5593,1.4787,1.4553,1.4086,1.3582,1.2981,1.292,1.318,1.3919,1.3997,1.4299,1.5061,1.521,1.4827,1.3673,1.4225,1.4461,1.4097,1.3649,1.3391,1.3391,1.2826,1.265,1.2896,1.265,1.265,1.2896,1.2896,1.3082,1.1701,1.2495,0.0,1.5619,0.0,0.0,0.0,1.8969,0.0,0.0,2.1385,2.1252,2.1194,2.1431,2.1545,2.1362,2.1855,2.2225,2.2077,2.2049,2.2049,2.2049,2.1738,2.1448,2.1355,2.0795,2.041,2.0323,2.0061,1.9812,1.9617,1.8921,1.8461,1.8305,1.7598,1.7199,1.7199,1.7199,1.7199,1.7199,1.7199,1.7199,1.7199,1.7352,1.7323,1.7199,1.7352,1.7186,1.6833,1.665,1.6454,1.6287,1.6287,1.6225,1.6076,1.6076,1.6001,1.5881,1.5881,1.5691,1.5457,1.5457,1.5289,1.5108,1.5017,1.5153,1.5322,1.5367,1.5591,1.5901,1.6238,1.6324,1.6324,1.6157,1.6497,1.6846,1.6876,1.6876,1.6791,1.6552,1.5756,1.5224,1.5398,1.4633,1.4072,1.4308,1.4144,1.3819,1.3431,1.338,1.3576,1.403,1.4234,1.4533,1.5076,1.5313,1.5416,1.5374,1.4866,1.4199,1.3284,1.3342,1.3391,1.3391,1.3,1.2826,1.2896,1.3069,1.3173,1.3254,1.3254,1.3185,1.2172,1.3201,0.0,1.6036,1.7023,1.7826,1.8663,0.0,2.0904,2.2384,2.2339,2.1993,2.1822,2.1924,2.1975,2.1822,2.217,2.246,2.246,2.246,2.246,2.246,2.2135,2.1844,2.157,2.1055,2.063,2.0342,2.0131,1.9884,1.9639,1.9184,1.8769,1.8422,1.7908,1.7516,1.7323,1.7406,1.7406,1.7323,1.7406,1.7502,1.7502,1.7406,1.7352,1.7323,1.731,1.7214,1.706,1.6824,1.6756,1.6786,1.6786,1.6685,1.6522,1.6522,1.6362,1.62,1.62,1.6057,1.5824,1.5824,1.5691,1.5513,1.5334,1.5546,1.5824,1.5824,1.6088,1.6479,1.6808,1.6892,1.685,1.66,1.6765,1.696,1.7002,1.696,1.6863,1.6667,1.6011,1.5472,1.564,1.4866,1.4322,1.4679,1.4329,1.3986,1.3836,1.3662,1.3825,1.4351,1.4577,1.4891,1.5472,1.5644,1.576,1.5934,1.5368,1.4574,1.3584,1.3471,1.3391,1.3391,1.3069,1.2978,1.3104,1.3288,1.3459,1.3573,1.3573,1.3391,1.2819,1.4179,0.0,1.6266,1.706,0.0,1.9646,1.9978,2.0475,2.2281,2.2107,2.1848,2.2583,2.2194,2.1977,2.2617,2.2738,2.2738,2.2712,2.2712,2.2685,2.2632,2.236,2.1961,2.1308,2.1118,2.0764,2.017,2.0061,1.9869,1.9479,1.9406,1.9058,1.8383,1.8319,1.8042,1.7516,1.7788,1.7788,1.7516,1.7788,1.7922,1.7922,1.7502,1.7406,1.7557,1.7214,1.716,1.7353,1.705,1.6925,1.6954,1.6912,1.6824,1.665,1.6637,1.6522,1.6362,1.6318,1.6275,1.6275,1.6231,1.6244,1.6156,1.578,1.5913,1.6231,1.6231,1.6479,1.6808,1.7144,1.724,1.724,1.724,1.7128,1.7044,1.7157,1.7115,1.7044,1.7157,1.6714,1.6438,1.6634,1.5792,1.5194,1.5422,1.4805,1.4289,1.4289,1.4017,1.4152,1.4989,1.5079,1.5411,1.6238,1.6175,1.607,1.5919,1.5828,1.5465,1.4794,1.3947,1.3476,1.3425,1.3151,1.3151,1.3425,1.3425,1.3573,1.3788,1.3788,1.3607,1.2219,1.3375,0.0,0.0,1.7112,1.8353,1.9695,1.9832,2.0201,2.2011,2.2089,2.2076,2.287,2.2895,2.2842,2.2975,2.301,2.2935,2.2738,2.2712,2.2508,2.2044,2.1705,2.1339,2.0942,2.0646,2.0426,2.027,2.0235,2.015,1.996,1.9457,1.9035,1.8779,1.8279,1.7909,1.7828,1.7882,1.7882,1.7828,1.7882,1.7963,1.8123,1.8029,1.7989,1.8029,1.7598,1.7639,1.7975,1.7707,1.7787,1.8135,1.7962,1.7855,1.7828,1.7666,1.7584,1.7502,1.7269,1.706,1.6795,1.6637,1.6392,1.62,1.61,1.6306,1.6595,1.6595,1.685,1.7157,1.7393,1.7434,1.7475,1.7706,1.7461,1.7157,1.7199,1.7199,1.7073,1.685,1.6347,1.6074,1.6262,1.579,1.5488,1.5973,1.5874,1.5758,1.5758,1.5715,1.5868,1.6464,1.6393,1.6541,1.7173,1.706,1.705,1.7316,1.6598,1.6349,1.6678,1.5167,1.415,1.3721,1.3641,1.3641,1.3708,1.3708,1.3741,1.3788,1.3573,1.3323,1.2537,0.0,0.0,1.7198,0.0,1.8672,1.9398,1.9451,1.9734,2.1085,2.1437,2.1657,2.2069,2.2458,2.2705,2.2705,2.2935,2.306,2.291,2.2773,2.2588,2.2287,2.1823,2.1401,2.1071,2.0761,2.046,2.0304,2.0304,2.0185,1.998,1.9624,1.9258,1.8921,1.8553,1.8268,1.8043,1.8123,1.8123,1.8043,1.8123,1.8242,1.8361,1.8242,1.8202,1.8202,1.7935,1.8029,1.8307,1.8175,1.8268,1.8478,1.84,1.8282,1.8202,1.8083,1.7963,1.7882,1.7611,1.7393,1.7214,1.7018,1.682,1.665,1.6479,1.668,1.6892,1.6765,1.6934,1.724,1.7323,1.7434,1.7516,1.7693,1.7625,1.7543,1.7543,1.7543,1.7488,1.7323,1.7032,1.6887,1.6993,1.6773,1.6682,1.6993,1.685,1.671,1.671,1.6582,1.6667,1.7118,1.7034,1.7173,1.7652,1.7488,1.7516,1.7975,1.7304,1.6996,1.7301,1.6298,1.551,1.5059,1.4218,1.4053,1.452,1.4019,1.3788,1.3788,1.3641,1.3357,1.2752,0.0,1.6892,1.8669,1.9002,0.0,1.9087,1.9104,1.9285,1.9956,2.055,2.1003,2.1146,2.1679,2.2086,2.2086,2.2399,2.2639,2.2614,2.2358,2.2124,2.2088,2.1602,2.1117,2.0811,2.0512,2.0249,2.0051,2.0032,1.9958,1.9752,1.9576,1.9265,1.874,1.8602,1.8333,1.7924,1.8117,1.8117,1.7924,1.8229,1.8349,1.8324,1.8266,1.8242,1.8242,1.8242,1.8361,1.8517,1.8517,1.8517,1.8517,1.8478,1.8361,1.8242,1.8202,1.8123,1.7963,1.7693,1.7611,1.7611,1.7406,1.7323,1.7282,1.6976,1.7102,1.7282,1.6976,1.7115,1.7323,1.7365,1.7488,1.7611,1.7557,1.7733,1.7882,1.7882,1.7882,1.7882,1.7882,1.7882,1.7882,1.7882,1.7882,1.7882,1.7882,1.7598,1.7407,1.7407,1.7146,1.7092,1.7407,1.7449,1.7585,1.7963,1.7814,1.7855,1.8242,1.7855,1.7584,1.7505,1.7115,1.6777,1.657,1.4828,1.4324,1.5065,1.413,1.3687,1.3687,1.3607,1.3323,0.0,0.0,1.6073,0.0,1.9034,1.8948,1.9135,1.9134,1.9135,1.9244,1.9866,2.0626,2.1312,2.1339,2.1253,2.1253,2.0987,2.0767,2.0748,2.0331,1.9917,1.9607,1.9312,1.8975,1.8656,1.8563,1.8682,1.8978,1.8989,1.9126,1.9457,1.8673,1.8187,1.8129,1.7413,1.6965,1.6894,1.693,1.693,1.6908,1.7464,1.7731,1.7745,1.824,1.8478,1.8478,1.8478,1.8478,1.8517,1.8517,1.8517,1.8478,1.8321,1.8321,1.8439,1.8282,1.8282,1.84,1.8189,1.8109,1.8069,1.7868,1.7801,1.7801,1.7747,1.7747,1.7801,1.7747,1.7747,1.7842,1.8043,1.8069,1.8069,1.7801,1.7801,1.7855,1.7882,1.7882,1.7882,1.7882,1.7882,1.7882,1.7882,1.7882,1.7882,1.7882,1.7828,1.7828,1.7828,1.7788,1.7828,1.8069,1.8069,1.8149,1.84,1.84,1.84,1.8478,1.8228,1.8201,1.8313,1.71,1.6634,1.7158,1.5479,1.4453,1.4158,1.3509,1.321,1.3176,1.2838,1.265,1.317,1.4938,1.679,0.0,1.9301,1.9313,1.9405,1.9331,1.9274,1.9225,1.9338,1.9615,2.0065,2.0334,2.043,2.0294,2.0222,2.0123,1.9975,1.9634,1.9329,1.9163,1.8895,1.8631,1.8498,1.8315,1.8267,1.8461,1.8459,1.8498,1.8514,1.811,1.7827,1.7655,1.7153,1.6872,1.6872,1.6747,1.6691,1.6691,1.7309,1.7421,1.7126,1.8082,1.8517,1.8517,1.8517,1.8517,1.8517,1.8517,1.8517,1.8478,1.84,1.8439,1.8478,1.84,1.8439,1.8478,1.8282,1.8202,1.8163,1.7963,1.7882,1.7882,1.7882,1.7882,1.7882,1.7882,1.7882,1.7922,1.8003,1.7909,1.7774,1.7679,1.7557,1.7475,1.7502,1.7693,1.7935,1.8202,1.8242,1.8242,1.8242,1.8242,1.8242,1.8242,1.8242,1.8242,1.8242,1.8029,1.7895,1.7975,1.7774,1.7693,1.7774,1.7774,1.7855,1.8095,1.8016,1.8016,1.8095,1.7504,1.7063,1.6849,1.5182,1.4217,1.4071,1.3224,1.2685,1.2496,1.2306,1.2126,0.0,0.0,1.6674,1.8679,1.9247,1.9363,1.9582,1.9518,1.9409,1.9346,1.9097,1.8913,1.9019,1.9289,1.9434,1.9178,1.9184,1.9169,1.8965,1.8638,1.8451,1.8534,1.8254,1.8053,1.8053,1.7819,1.7731,1.7853,1.7791,1.7695,1.7584,1.7403,1.7184,1.6967,1.6642,1.6441,1.6441,1.6301,1.6247,1.6247,1.7022,1.7198,1.6789,1.7993,1.8472,1.8317,1.8447,1.8517,1.8517,1.8517,1.8517,1.8517,1.8517,1.8517,1.8517,1.8517,1.8517,1.8478,1.8321,1.8282,1.8242,1.8083,1.8043,1.8043,1.8043,1.8043,1.8043,1.8043,1.7963,1.7868,1.7868,1.7652,1.7393,1.7269,1.7144,1.706,1.7157,1.7516,1.7922,1.8254,1.8439,1.8517,1.8517,1.8517,1.8517,1.8517,1.8517,1.8478,1.8347,1.8002,1.776,1.7679,1.7393,1.7199,1.7199,1.7199,1.7323,1.7639,1.7639,1.7639,1.7639,1.7544,1.7107,1.6308,1.4814,1.4036,1.3989,1.2818,1.2115,1.1825,1.1788,1.1745,0.0,1.3643,0.0,1.7734,1.8552,1.877,1.952,1.9591,1.9471,1.9409,1.9225,1.9033,1.8861,1.8485,1.8121,1.7932,1.7482,1.714,1.714,1.668,1.6452,1.6707,1.6507,1.6314,1.6314,1.633,1.6449,1.6849,1.6632,1.6661,1.7021,1.6255,1.5797,1.5797,1.5234,1.4893,1.4893,1.4969,1.5,1.5015,1.6317,1.6921,1.6935,1.8129,1.8333,1.7757,1.8289,1.8517,1.8517,1.8517,1.8517,1.8517,1.8517,1.8517,1.8517,1.8517,1.8517,1.8517,1.8478,1.8478,1.8478,1.8478,1.8478,1.8478,1.8478,1.8478,1.8478,1.8478,1.8135,1.7801,1.7801,1.7516,1.7115,1.665,1.6552,1.665,1.7115,1.7516,1.7787,1.7828,1.8214,1.8517,1.8517,1.8517,1.8517,1.8517,1.8517,1.8347,1.7882,1.7841,1.7639,1.7282,1.7199,1.7199,1.7199,1.7199,1.7199,1.724,1.724,1.724,1.724,1.6808,1.6313,1.5743,1.4773,1.4113,1.3738,1.2146,1.1345,1.1308,1.1282,1.1452,0.0,0.0,0.0,1.6573,1.7908,1.8821,1.9124,1.9416,1.963,1.9604,1.9175,1.8807,1.8734,1.8526,1.817,1.7563,1.7215,1.6892,1.6543,1.6316,1.625,1.6344,1.6277,1.6194,1.6194,1.6123,1.6131,1.6288,1.604,1.5964,1.6076,1.5933,1.5754,1.5587,1.537,1.5133,1.4871,1.4902,1.4918,1.498,1.6279,1.6713,1.6384,1.8004,1.8152,1.7143,1.7729,1.7951,1.7955,1.8349,1.8517,1.8517,1.8517,1.8517,1.8517,1.8517,1.8517,1.8517,1.8697,1.876,1.876,1.876,1.876,1.8721,1.8542,1.8307,1.8055,1.8055,1.776,1.7393,1.7393,1.706,1.665,1.6175,1.6132,1.6219,1.638,1.671,1.7186,1.7895,1.8135,1.8293,1.8644,1.8683,1.8683,1.8683,1.8464,1.8228,1.7962,1.7516,1.7157,1.6892,1.6693,1.6522,1.6423,1.6423,1.6509,1.6735,1.6735,1.6735,1.6735,1.6607,1.6262,1.5764,1.4554,1.3558,1.2811,1.1894,1.1147,1.0659,1.0903,1.0904,1.1819,0.0,0.0,1.5937,1.7186,1.8201,1.8739,1.9092,1.9282,1.9251,1.8995,1.877,1.8679,1.8545,1.817,1.7396,1.7134,1.6815,1.6277,1.625,1.6277,1.6277,1.6277,1.6277,1.6277,1.6179,1.6136,1.6136,1.594,1.5826,1.5826,1.5898,1.5826,1.5638,1.5536,1.5359,1.5102,1.5011,1.5072,1.5225,1.6214,1.6517,1.6285,1.7605,1.7598,1.6573,1.7143,1.734,1.7323,1.7731,1.7913,1.7913,1.7913,1.8026,1.8208,1.8309,1.8436,1.8697,1.895,1.9064,1.9064,1.9109,1.9035,1.895,1.8836,1.8475,1.8082,1.7975,1.7598,1.7227,1.7115,1.682,1.6509,1.6207,1.6281,1.6454,1.6539,1.6595,1.6863,1.7625,1.7814,1.7948,1.8305,1.8344,1.8344,1.8344,1.8135,1.7935,1.7828,1.7393,1.7073,1.6993,1.6752,1.6582,1.6527,1.6367,1.638,1.6595,1.6423,1.6337,1.6337,1.6306,1.6132,1.5792,1.4541,1.3401,1.2338,1.1491,1.0754,1.0079,1.0337,1.0213,0.0,0.0,0.0,1.5771,1.64,1.6817,1.8378,1.8601,1.8434,1.8334,1.8663,1.8895,1.866,1.845,1.8065,1.7344,1.7117,1.6815,1.6305,1.6344,1.6409,1.6425,1.6409,1.6409,1.6425,1.6425,1.6425,1.6398,1.6328,1.6301,1.6301,1.6034,1.5907,1.5907,1.5667,1.5507,1.5522,1.5328,1.5344,1.5623,1.6018,1.6371,1.6726,1.7005,1.6714,1.6059,1.6553,1.6754,1.667,1.6712,1.6691,1.6691,1.6691,1.7056,1.7613,1.7906,1.8352,1.8921,1.9288,1.9413,1.945,1.9573,1.9406,1.9176,1.9332,1.9064,1.8595,1.8282,1.7747,1.7242,1.6989,1.682,1.6752,1.6795,1.7076,1.7394,1.7625,1.7282,1.6918,1.6918,1.7282,1.7516,1.7557,1.7557,1.7557,1.7557,1.7557,1.7516,1.7516,1.7516,1.7503,1.7517,1.7517,1.7504,1.7504,1.7076,1.6795,1.6795,1.6293,1.6001,1.6001,1.5869,1.5792,1.5792,1.4812,1.3691,1.2394,1.0997,1.0091,0.9607,0.9527,0.9435,1.053,0.0,0.0,0.0,0.0,0.0,1.7028,1.7466,1.7899,1.835,1.836,1.839,1.8821,1.8717,1.8452,1.8076,1.7636,1.7199,1.6773,1.6686,1.6633,1.657,1.6686,1.6712,1.657,1.6581,1.6554,1.6409,1.6262,1.6151,1.6151,1.5994,1.5978,1.6176,1.5938,1.5824,1.5911,1.5638,1.5652,1.6037,1.6398,1.6712,1.7,1.7574,1.7356,1.6604,1.6751,1.6417,1.5893,1.6468,1.6691,1.6691,1.6691,1.6789,1.7022,1.7531,1.7947,1.8368,1.9141,1.9617,1.9889,1.996,1.9803,1.9588,1.9442,1.8869,1.8252,1.8159,1.7801,1.7435,1.7353,1.7325,1.7271,1.7312,1.7449,1.7625,1.7666,1.7639,1.7639,1.7988,1.8068,1.8187,1.8592,1.8669,1.8669,1.8669,1.8422,1.8187,1.8068,1.7868,1.7707,1.7666,1.7421,1.7256,1.716,1.6752,1.6479,1.6362,1.6231,1.6144,1.6144,1.61,1.5869,1.5457,1.4789,1.3694,1.2263,1.1488,1.0579,0.9527,0.9653,0.9859,1.1316,1.2549,0.0,1.3826,0.0,0.0,1.64,1.6713,1.7034,1.7342,1.7448,1.7702,1.8381,1.8323,1.827,1.8478,1.8217,1.7837,1.7349,1.7223,1.7142,1.7069,1.7085,1.7027,1.6841,1.685,1.6773,1.6596,1.6532,1.6506,1.6506,1.6448,1.6474,1.6639,1.6367,1.6215,1.6301,1.5994,1.6022,1.6367,1.6449,1.6632,1.6902,1.7176,1.6969,1.6383,1.6383,1.6084,1.561,1.6082,1.6221,1.6104,1.5971,1.6261,1.6803,1.7213,1.7748,1.8329,1.8995,1.9383,1.9507,1.9589,1.9595,1.9607,1.9554,1.8977,1.8323,1.8436,1.8052,1.7612,1.7612,1.772,1.7841,1.7881,1.8068,1.824,1.8279,1.8305,1.8305,1.8226,1.8147,1.8187,1.85,1.8553,1.8553,1.8553,1.8344,1.8187,1.8108,1.8068,1.7988,1.7747,1.776,1.7625,1.738,1.6976,1.6693,1.662,1.6405,1.6275,1.6275,1.6244,1.6013,1.568,1.5164,1.3982,1.2186,1.1479,1.0518,0.9372,0.95,0.9715,1.2733,1.3531,0.0,1.5026,1.5374,0.0,1.6189,1.6272,1.6189,1.5995,1.6373,1.6958,1.7621,1.7593,1.773,1.85,1.8663,1.8501,1.7945,1.7829,1.7759,1.7759,1.7608,1.7415,1.7207,1.7183,1.7101,1.6866,1.7025,1.7117,1.7141,1.7117,1.7117,1.7117,1.6821,1.6675,1.6686,1.6421,1.6405,1.6727,1.6432,1.6432,1.6686,1.6432,1.6188,1.5938,1.5909,1.5853,1.5796,1.5767,1.5624,1.5328,1.5041,1.5645,1.6687,1.6934,1.7583,1.841,1.8755,1.8794,1.871,1.8856,1.9088,1.9358,1.961,1.919,1.8649,1.8914,1.8454,1.7866,1.7935,1.8187,1.8422,1.8553,1.8798,1.9031,1.9078,1.9101,1.886,1.8068,1.7948,1.7948,1.7948,1.7948,1.7908,1.7868,1.7868,1.7868,1.7787,1.8147,1.8266,1.7828,1.8108,1.8187,1.7747,1.7352,1.7115,1.706,1.6595,1.6349,1.6349,1.6231,1.6144,1.6144,1.5433,1.4136,1.2181,1.1252,1.0197,0.9119,0.9119,0.9184,1.2953,1.4403,1.5823,1.462,1.5878,0.0,1.5867,1.6081,1.6486,1.6328,1.6361,1.6611,1.7265,1.7371,1.7386,1.758,1.8129,1.849,1.8389,1.8318,1.822,1.8121,1.8069,1.7941,1.7754,1.7738,1.7579,1.7224,1.7224,1.7337,1.7496,1.7337,1.7264,1.7264,1.71,1.705,1.7175,1.6901,1.6977,1.7384,1.7134,1.7134,1.7384,1.7183,1.6986,1.6834,1.667,1.6554,1.6421,1.6258,1.6022,1.5781,1.5724,1.5699,1.5812,1.6339,1.6649,1.6954,1.7764,1.8268,1.8575,1.881,1.8831,1.8872,1.9515,1.919,1.8663,1.8972,1.8627,1.8221,1.8731,1.8898,1.8936,1.8988,1.9026,1.9064,1.9101,1.9101,1.9064,1.886,1.886,1.886,1.886,1.886,1.8745,1.8422,1.8344,1.8226,1.7828,1.7868,1.7908,1.7787,1.7598,1.7434,1.7323,1.6892,1.6466,1.6095,1.5964,1.5932,1.5932,1.5888,1.5844,1.5732,1.4032,1.2735,1.1959,1.1076,0.9901,0.8469,0.8567,0.8158,1.4324,1.5035,1.5898,1.5508,1.6033,0.0,0.0,1.5973,1.6038,1.635,1.6039,1.6048,1.7142,1.7026,1.6861,1.7244,1.7994,1.8393,1.7969,1.8419,1.8753,1.8608,1.8531,1.8413,1.8217,1.8194,1.8069,1.7776,1.7659,1.7682,1.7898,1.7322,1.7244,1.7737,1.7204,1.7119,1.7591,1.7375,1.7384,1.7612,1.7462,1.7479,1.7612,1.7502,1.7384,1.7224,1.7027,1.6901,1.6825,1.6633,1.6528,1.6474,1.6062,1.6049,1.6263,1.6347,1.6527,1.6726,1.704,1.7349,1.7581,1.7721,1.7915,1.8284,1.8948,1.9144,1.909,1.8761,1.8651,1.8724,1.9029,1.9101,1.9101,1.9101,1.9139,1.9176,1.9176,1.9228,1.9265,1.9265,1.9213,1.9176,1.9101,1.9101,1.895,1.8553,1.85,1.8266,1.7598,1.7489,1.7258,1.6854,1.6587,1.6373,1.6151,1.5944,1.5724,1.5457,1.5445,1.5579,1.5788,1.5788,1.5688,1.541,1.3371,1.1987,1.1173,1.0092,0.9198,0.8534,0.8059,0.7465,1.584,1.5757,1.5982,1.653,1.6371,1.6137,0.0,0.0,0.0,1.6102,1.5628,1.5501,1.6746,1.6456,1.6183,1.6763,1.7597,1.7917,1.717,1.8099,1.8803,1.8709,1.8814,1.8788,1.8467,1.8339,1.8297,1.8303,1.8,1.7942,1.8243,1.7463,1.735,1.8121,1.7322,1.722,1.7967,1.7783,1.7755,1.7844,1.7844,1.7844,1.7844,1.7755,1.7641,1.7486,1.7248,1.7126,1.7093,1.6917,1.6949,1.7032,1.6378,1.6471,1.689,1.6548,1.6608,1.6831,1.6593,1.655,1.6623,1.6675,1.7246,1.7969,1.8467,1.8997,1.9227,1.8513,1.8512,1.874,1.8869,1.8936,1.8988,1.8988,1.9139,1.9302,1.9302,1.9398,1.9435,1.9302,1.9288,1.9288,1.9176,1.9064,1.886,1.8461,1.8252,1.7814,1.7005,1.6799,1.6446,1.5744,1.562,1.5443,1.5153,1.5108,1.5062,1.4971,1.4971,1.5142,1.5522,1.5611,1.5421,1.496,1.3114,1.1523,1.0272,0.8754,0.8122,0.8212,0.7315,0.6758,1.6571,1.7031,1.7381,1.6769,1.7616,1.8017,1.5854,0.0,1.6191,1.5546,0.0,1.5247,1.5424,0.0,0.0,1.5278,1.6033,1.6543,1.6287,1.7029,1.7595,1.7587,1.8622,1.9017,1.8213,1.7776,1.7861,1.8663,1.7932,1.7754,1.842,1.8186,1.7996,1.7949,1.7665,1.7715,1.8166,1.8146,1.831,1.866,1.866,1.866,1.8642,1.829,1.8023,1.782,1.7446,1.7216,1.7108,1.7083,1.7083,1.7083,1.6991,1.6843,1.6627,1.66,1.6464,1.6311,1.6519,1.6591,1.6649,1.694,1.7689,1.8513,1.8642,1.8505,1.8353,1.8654,1.7998,1.7367,1.797,1.8383,1.863,1.8592,1.8936,1.9302,1.9302,1.9588,1.9666,1.9011,1.9095,1.9303,1.9362,1.8898,1.8461,1.8108,1.7312,1.6557,1.6008,1.5579,1.5277,1.5187,1.5187,1.5142,1.5108,1.5108,1.4926,1.4512,1.4466,1.4512,1.4558,1.4971,1.4812,1.3956,1.284,1.1344,0.9438,0.7395,0.6274,0.6145,0.6072,0.5445,1.6773,1.7159,1.7628,1.7359,1.7318,1.7071,1.6163,1.5755,1.5644,1.5892,0.0,0.0,0.0,0.0,0.0,0.0,1.57,1.6075,1.5482,1.6568,1.7398,1.7356,1.7844,1.8041,1.7663,1.7919,1.804,1.7877,1.7821,1.7983,1.8432,1.821,1.8271,1.8698,1.8069,1.8014,1.866,1.8547,1.8623,1.886,1.8825,1.8807,1.8789,1.8489,1.8328,1.8211,1.7693,1.7448,1.737,1.7232,1.7149,1.7174,1.7183,1.7066,1.6873,1.6675,1.6554,1.6485,1.6448,1.6528,1.6697,1.6999,1.7437,1.787,1.8051,1.8121,1.819,1.838,1.8113,1.7765,1.8027,1.8397,1.8707,1.8669,1.9221,1.9747,1.9747,2.012,2.0277,1.9717,1.9332,1.9045,1.893,1.8592,1.8121,1.7489,1.6938,1.6386,1.5856,1.5142,1.4743,1.4858,1.449,1.4222,1.4222,1.4222,1.4129,1.3952,1.4233,1.4373,1.4373,1.4362,1.3899,1.2956,1.1064,0.9211,0.7442,0.5554,0.4604,0.4505,0.4553,0.4303,1.7462,1.7609,1.792,1.7799,1.711,1.6404,1.6125,1.5627,1.5394,1.6062,1.5806,0.0,0.0,0.0,1.5207,1.4991,0.0,1.5526,1.4651,1.5613,1.6475,1.6674,1.6876,1.709,1.7302,1.7692,1.774,1.7264,1.7442,1.7809,1.8291,1.8121,1.8374,1.9166,1.8458,1.8355,1.8984,1.8825,1.8807,1.8966,1.893,1.8913,1.8878,1.8697,1.8582,1.841,1.7975,1.771,1.7635,1.7465,1.7362,1.7306,1.7289,1.7166,1.6991,1.6753,1.6633,1.6607,1.6394,1.6627,1.7114,1.7585,1.7741,1.7758,1.8115,1.811,1.8029,1.8069,1.7989,1.7868,1.7868,1.8293,1.8693,1.8769,1.9464,2.0135,2.0204,2.0512,2.0597,1.9884,1.9236,1.8627,1.8039,1.7814,1.7544,1.6993,1.6471,1.594,1.5242,1.4479,1.4025,1.4179,1.3684,1.342,1.3573,1.3621,1.3621,1.3621,1.3952,1.4186,1.4186,1.3884,1.3178,1.2015,1.0023,0.8057,0.6103,0.471,0.3843,0.3347,0.3514,0.3683,1.9037,1.8944,1.8678,1.7913,1.7576,1.7017,1.5329,1.548,1.5926,1.5759,1.6306,1.6792,1.6616,1.6407,1.6004,1.5217,1.4959,0.0,0.0,1.3801,1.4241,1.5067,1.5798,1.6548,1.7318,1.6714,1.6553,1.7252,1.6644,1.6804,1.8037,1.8093,1.8352,1.8912,1.8753,1.8789,1.9002,1.8861,1.8896,1.9105,1.9219,1.9221,1.9087,1.9019,1.8753,1.8301,1.8232,1.8018,1.7811,1.7854,1.7766,1.7566,1.7288,1.7043,1.6815,1.6789,1.6633,1.6425,1.6398,1.7038,1.8008,1.9014,1.905,1.8854,1.9304,1.8559,1.7557,1.776,1.7434,1.7044,1.7044,1.7679,1.8369,1.8622,1.9434,2.0204,2.053,2.0712,2.0364,1.8852,1.8513,1.8062,1.6552,1.6411,1.6557,1.66,1.5788,1.4744,1.3695,1.3168,1.2861,1.2861,1.2861,1.3064,1.3563,1.3621,1.3621,1.3621,1.3621,1.361,1.361,1.361,1.2861,1.1266,1.0661,0.8919,0.6103,0.5521,0.4385,0.2736,0.3347,0.3904,1.8994,1.923,1.9326,1.8609,1.7761,1.6876,1.5969,1.5768,1.5729,1.5436,1.5926,1.6333,1.5992,1.5871,1.5593,1.4828,1.4655,1.4361,0.0,1.3611,1.3775,1.407,1.5305,1.6044,1.5833,1.6133,1.6221,1.5922,1.6178,1.674,1.7719,1.8232,1.8771,1.9343,1.932,1.9292,1.9248,1.9119,1.9202,1.9438,1.9264,1.923,1.9338,1.9018,1.8878,1.8877,1.8492,1.8211,1.8001,1.7924,1.7738,1.7451,1.741,1.7224,1.6892,1.6633,1.6517,1.6564,1.7209,1.7609,1.7912,1.8715,1.868,1.8314,1.8631,1.8252,1.772,1.7787,1.7679,1.7475,1.7199,1.7557,1.7988,1.808,1.875,1.9332,1.9251,1.9403,1.9286,1.8289,1.6849,1.5526,1.4742,1.3346,1.2956,1.4665,1.4494,1.3763,1.2648,1.2033,1.1805,1.1994,1.1855,1.1814,1.2012,1.2012,1.2159,1.2511,1.256,1.2725,1.3113,1.2861,1.2295,1.1366,0.9813,0.818,0.6411,0.5085,0.4116,0.3564,0.4168,0.4498,1.9412,1.9628,1.9715,1.8904,1.806,1.7256,1.6592,1.6454,1.6229,1.5449,1.5869,1.6047,1.5082,1.4957,1.4751,1.3982,1.389,1.3729,0.0,1.3143,1.3208,1.3208,1.4445,1.5157,1.4827,1.5327,1.5546,1.5194,1.5667,1.632,1.7093,1.7879,1.859,1.9201,1.946,1.9532,1.939,1.9266,1.9298,1.9468,1.9295,1.9277,1.9368,1.9135,1.9052,1.9101,1.8698,1.8395,1.8235,1.8052,1.7783,1.7545,1.7482,1.7256,1.6968,1.6596,1.6436,1.6546,1.7725,1.8155,1.8362,1.9229,1.9163,1.8771,1.8763,1.8447,1.8028,1.8028,1.8028,1.7948,1.7516,1.7612,1.7827,1.7827,1.8207,1.8418,1.7747,1.6254,1.4628,1.3301,1.0207,0.8236,0.9553,0.849,0.8667,1.2187,1.2551,1.2136,1.1247,1.0822,1.0671,1.0806,1.0881,1.1007,1.1166,1.1015,1.1166,1.1665,1.1715,1.1873,1.2304,1.2049,1.1534,1.0712,0.9141,0.777,0.6597,0.5257,0.4611,0.467,0.5105,0.5483]},{"header":{"parameterUnit":"m.s-1","parameterCategory":1,"la1":30.6,"la2":29.2853,"lo1":-89.7004,"lo2":-87.6739,"dy":0.0162,"dx":0.0183,"nx":112,"ny":82,"refTime":"2024-07-30T18:00:00:Z","depth":0,"parameterNumber":3,"parameterNumberName":"V-component_of_WINDS"},"data":[0.0,0.0,0.0,0.0,0.0,0.0,0.0,0.0,0.0,0.0,0.0,0.0,0.0,0.0,0.0,0.0,0.0,0.0,0.0,0.0,0.0,0.0,0.0,0.0,0.0,0.0,0.0,0.0,0.0,0.0,0.0,0.0,0.0,0.0,0.0,0.0,0.0,0.0,0.0,0.0,0.0,0.0,0.0,0.0,0.0,0.0,0.0,0.0,0.0,0.0,0.0,0.0,0.0,0.0,0.0,0.0,0.0,0.0,0.0,0.0,0.0,0.0,0.0,0.0,0.0,0.0,0.0,0.0,0.0,0.0,0.0,0.0,0.0,0.0,0.0,0.0,0.0,0.0,0.0,0.0,0.0,0.0,0.0,0.0,0.0,0.0,0.0,0.0,0.0,0.0,-0.706,-0.8497,-0.8736,-0.884,-0.8908,-0.892,-0.8857,-0.8708,0.0,0.0,0.0,0.0,0.0,0.0,0.0,0.0,0.0,0.0,0.0,0.0,0.0,0.0,0.0,0.0,0.0,0.0,0.0,0.0,0.0,0.0,0.0,0.0,0.0,0.0,0.0,0.0,0.0,0.0,0.0,0.0,0.0,0.0,0.0,0.0,0.0,0.0,0.0,0.0,0.0,0.0,0.0,0.0,0.0,0.0,0.0,0.0,0.0,0.0,0.0,0.0,0.0,0.0,0.0,0.0,0.0,0.0,0.0,0.0,0.0,0.0,0.0,0.0,0.0,0.0,0.0,0.0,0.0,0.0,0.0,0.0,0.0,0.0,0.0,0.0,0.0,0.0,0.0,0.0,0.0,0.0,0.0,0.0,0.0,0.0,0.0,0.0,0.0,0.0,0.0,0.0,0.0,0.0,0.0,0.0,0.0,0.0,0.0,0.0,0.0,0.0,0.0,0.0,-0.7165,-0.8695,-0.8869,-0.8908,-0.8981,-0.8981,-0.8897,-0.8717,0.0,0.0,0.0,0.0,0.0,0.0,0.0,0.0,0.0,0.0,0.0,0.0,0.0,0.0,0.0,0.0,0.0,0.0,0.0,0.0,0.0,0.0,0.0,0.0,0.0,0.0,0.0,0.0,0.0,0.0,0.0,0.0,0.0,0.0,0.0,0.0,0.0,0.0,0.0,0.0,0.0,0.0,0.0,0.0,0.0,0.0,0.0,0.0,0.0,0.0,0.0,0.0,0.0,0.0,0.0,0.0,0.0,0.0,0.0,0.0,0.0,0.0,0.0,0.0,0.0,0.0,0.0,0.0,0.0,0.0,0.0,0.0,0.0,0.0,0.0,0.0,0.0,0.0,0.0,0.0,0.0,0.0,0.0,0.0,0.0,0.0,0.0,0.0,0.0,0.0,0.0,0.0,0.0,0.0,0.0,0.0,0.0,0.0,0.0,0.0,0.0,0.0,0.0,-0.7777,-0.8111,-0.8818,-0.8908,-0.8919,-0.8993,-0.8925,-0.8816,-0.8652,-0.7236,0.0,0.0,0.0,0.0,0.0,0.0,0.0,0.0,0.0,0.0,0.0,0.0,0.0,0.0,0.0,0.0,0.0,0.0,0.0,0.0,0.0,0.0,0.0,0.0,0.0,0.0,0.0,0.0,0.0,0.0,0.0,0.0,0.0,0.0,0.0,0.0,0.0,0.0,0.0,0.0,0.0,0.0,0.0,0.0,0.0,0.0,0.0,0.0,0.0,0.0,0.0,0.0,0.0,0.0,0.0,0.0,0.0,0.0,0.0,0.0,0.0,0.0,0.0,0.0,0.0,0.0,0.0,0.0,0.0,0.0,0.0,0.0,0.0,0.0,0.0,0.0,0.0,0.0,0.0,0.0,0.0,0.0,0.0,0.0,0.0,0.0,0.0,0.0,0.0,0.0,0.0,0.0,0.0,0.0,0.0,0.0,0.0,0.0,0.0,0.0,0.0,0.0,-0.8728,-0.888,-0.8908,-0.8903,-0.8925,-0.8964,-0.8886,-0.8764,-0.8652,-0.7246,0.0,0.0,0.0,0.0,0.0,0.0,0.0,0.0,0.0,0.0,0.0,0.0,0.0,0.0,0.0,0.0,0.0,0.0,0.0,0.0,0.0,0.0,0.0,0.0,0.0,0.0,0.0,0.0,0.0,0.0,0.0,0.0,0.0,0.0,0.0,0.0,0.0,0.0,0.0,0.0,0.0,0.0,0.0,0.0,0.0,0.0,0.0,0.0,0.0,0.0,0.0,0.0,0.0,0.0,0.0,0.0,0.0,0.0,0.0,0.0,0.0,0.0,0.0,0.0,0.0,0.0,0.0,0.0,0.0,0.0,0.0,0.0,0.0,0.0,0.0,0.0,0.0,0.0,0.0,0.0,0.0,0.0,0.0,0.0,0.0,0.0,0.0,0.0,0.0,0.0,0.0,0.0,0.0,0.0,0.0,0.0,0.0,0.0,0.0,0.0,0.0,0.0,-0.8376,-0.8834,-0.8897,-0.8908,-0.8903,-0.8908,-0.8891,-0.8863,-0.8781,-0.7354,0.0,0.0,0.0,0.0,0.0,0.0,0.0,0.0,0.0,0.0,0.0,0.0,0.0,0.0,0.0,0.0,0.0,0.0,0.0,0.0,0.0,0.0,0.0,0.0,0.0,0.0,0.0,0.0,0.0,0.0,0.0,0.0,0.0,0.0,0.0,0.0,0.0,0.0,0.0,0.0,0.0,0.0,0.0,0.0,0.0,0.0,0.0,0.0,0.0,0.0,0.0,0.0,0.0,0.0,0.0,0.0,0.0,0.0,0.0,0.0,0.0,0.0,0.0,0.0,0.0,0.0,0.0,0.0,0.0,0.0,0.0,0.0,0.0,0.0,0.0,0.0,0.0,0.0,0.0,0.0,0.0,0.0,0.0,0.0,0.0,0.0,0.0,0.0,0.0,0.0,0.0,0.0,0.0,0.0,0.0,0.0,0.0,0.0,0.0,0.0,0.0,0.0,-0.8598,-0.8816,-0.8828,-0.8874,-0.8891,-0.8903,-0.8908,-0.8812,-0.8628,0.0,0.0,0.0,0.0,0.0,0.0,0.0,0.0,0.0,0.0,0.0,0.0,0.0,0.0,0.0,0.0,0.0,0.0,0.0,0.0,0.0,0.0,0.0,0.0,0.0,0.0,0.0,0.0,0.0,0.0,0.0,0.0,0.0,0.0,0.0,0.0,0.0,0.0,0.0,0.0,0.0,0.0,0.0,0.0,0.0,0.0,0.0,0.0,0.0,0.0,0.0,0.0,0.0,0.0,0.0,0.0,0.0,0.0,0.0,0.0,0.0,0.0,0.0,0.0,0.0,0.0,0.0,0.0,0.0,0.0,0.0,0.0,0.0,0.0,0.0,0.0,0.0,0.0,0.0,0.0,0.0,0.0,0.0,0.0,0.0,0.0,0.0,0.0,0.0,0.0,0.0,0.0,0.0,0.0,0.0,0.0,0.0,0.0,0.0,0.0,0.0,0.0,-0.8512,-0.8745,-0.8769,-0.8809,-0.8851,-0.8869,-0.8908,-0.8897,-0.8812,-0.8583,0.0,0.0,0.0,0.0,0.0,0.0,0.0,0.0,0.0,0.0,0.0,0.0,0.0,0.0,0.0,0.0,0.0,0.0,0.0,0.0,0.0,0.0,0.0,0.0,0.0,0.0,0.0,0.0,0.0,0.0,0.0,0.0,0.0,0.0,0.0,0.0,0.0,0.0,0.0,0.0,0.0,0.0,0.0,0.0,0.0,0.0,0.0,0.0,0.0,0.0,0.0,0.0,0.0,0.0,0.0,0.0,0.0,0.0,0.0,0.0,0.0,0.0,0.0,0.0,0.0,0.0,0.0,0.0,0.0,0.0,0.0,0.0,0.0,0.0,0.0,0.0,0.0,0.0,0.0,0.0,0.0,0.0,0.0,0.0,0.0,0.0,0.0,0.0,0.0,0.0,0.0,0.0,0.0,0.0,0.0,0.0,0.0,0.0,0.0,0.0,0.0,0.0,-0.8495,-0.8705,-0.8717,-0.8781,-0.88,-0.8818,-0.8897,-0.8897,-0.8846,0.0,0.0,0.0,0.0,0.0,0.0,0.0,0.0,0.0,0.0,0.0,0.0,0.0,0.0,0.0,0.0,0.0,0.0,0.0,0.0,0.0,0.0,0.0,0.0,0.0,0.0,0.0,0.0,0.0,0.0,0.0,0.0,0.0,0.0,0.0,0.0,0.0,0.0,0.0,0.0,0.0,0.0,0.0,0.0,0.0,0.0,0.0,0.0,0.0,0.0,0.0,0.0,0.0,0.0,0.0,0.0,0.0,0.0,0.0,0.0,0.0,0.0,0.0,0.0,0.0,0.0,0.0,0.0,0.0,0.0,0.0,0.0,0.0,0.0,0.0,0.0,0.0,0.0,0.0,0.0,0.0,0.0,0.0,0.0,0.0,0.0,0.0,0.0,0.0,0.0,0.0,0.0,0.0,0.0,0.0,0.0,0.0,0.0,0.0,0.0,0.0,0.0,0.0,-0.8367,-0.864,-0.8705,-0.8717,-0.8781,-0.88,-0.8834,-0.888,-0.8806,-0.8571,0.0,0.0,0.0,0.0,0.0,0.0,0.0,0.0,0.0,0.0,0.0,0.0,0.0,0.0,0.0,0.0,0.0,0.0,0.0,0.0,0.0,0.0,0.0,0.0,0.0,0.0,0.0,0.0,0.0,0.0,0.0,0.0,0.0,0.0,0.0,0.0,0.0,0.0,0.0,0.0,0.0,0.0,0.0,0.0,0.0,0.0,0.0,0.0,0.0,0.0,0.0,0.0,0.0,0.0,0.0,0.0,0.0,0.0,0.0,0.0,0.0,0.0,0.0,0.0,0.0,0.0,0.0,0.0,0.0,0.0,0.0,0.0,0.0,0.0,0.0,0.0,0.0,0.0,0.0,0.0,0.0,0.0,0.0,0.0,0.0,0.0,0.0,0.0,0.0,0.0,0.0,0.0,0.0,0.0,0.0,0.0,0.0,0.0,0.0,0.0,0.0,0.0,-0.8396,-0.8652,-0.8705,-0.8705,-0.8757,-0.8781,-0.8724,-0.8788,-0.87,-0.8434,0.0,0.0,0.0,0.0,0.0,0.0,0.0,0.0,0.0,0.0,0.0,0.0,0.0,0.0,0.0,0.0,0.0,0.0,0.0,0.0,0.0,0.0,0.0,0.0,0.0,0.0,0.0,0.0,0.0,0.0,0.0,0.0,0.0,0.0,0.0,0.0,0.0,0.0,0.0,0.0,0.0,0.0,0.0,0.0,0.0,0.0,0.0,0.0,0.0,0.0,0.0,0.0,0.0,0.0,0.0,0.0,0.0,0.0,0.0,0.0,0.0,0.0,0.0,0.0,0.0,0.0,0.0,0.0,0.0,0.0,0.0,0.0,0.0,0.0,0.0,0.0,0.0,0.0,0.0,0.0,0.0,0.0,0.0,0.0,0.0,0.0,0.0,0.0,0.0,0.0,0.0,0.0,0.0,0.0,0.0,0.0,0.0,0.0,0.0,0.0,0.0,0.0,-0.846,-0.8681,-0.8705,-0.8705,-0.8757,-0.8745,-0.864,-0.8665,-0.8604,-0.8332,0.0,0.0,0.0,0.0,0.0,0.0,0.0,0.0,0.0,0.0,0.0,0.0,0.0,0.0,0.0,0.0,0.0,0.0,0.0,0.0,0.0,0.0,0.0,0.0,0.0,0.0,0.0,0.0,0.0,0.0,0.0,0.0,0.0,0.0,0.0,0.0,0.0,0.0,0.0,0.0,0.0,0.0,0.0,0.0,0.0,0.0,0.0,0.0,0.0,0.0,0.0,0.0,0.0,0.0,0.0,0.0,0.0,0.0,0.0,0.0,-0.8651,-0.8114,0.0,0.0,0.0,0.0,0.0,0.0,0.0,0.0,0.0,0.0,0.0,0.0,0.0,0.0,0.0,0.0,0.0,0.0,0.0,0.0,0.0,0.0,0.0,0.0,0.0,0.0,0.0,0.0,0.0,0.0,0.0,0.0,0.0,0.0,0.0,0.0,0.0,0.0,0.0,0.0,-0.8141,-0.8526,-0.8705,-0.8705,-0.8705,-0.8729,-0.876,-0.8771,-0.8684,-0.8472,-0.7698,0.0,0.0,0.0,0.0,0.0,0.0,0.0,0.0,0.0,0.0,0.0,0.0,0.0,0.0,0.0,0.0,0.0,0.0,0.0,0.0,0.0,0.0,0.0,0.0,0.0,0.0,0.0,0.0,0.0,0.0,0.0,0.0,0.0,0.0,0.0,0.0,0.0,0.0,0.0,0.0,0.0,0.0,0.0,0.0,0.0,0.0,0.0,0.0,0.0,0.0,0.0,0.0,0.0,0.0,0.0,0.0,0.0,0.0,0.0,-0.9796,-0.9324,0.0,0.0,0.0,0.0,0.0,0.0,0.0,0.0,0.0,0.0,0.0,0.0,0.0,0.0,0.0,0.0,0.0,0.0,0.0,0.0,0.0,0.0,0.0,0.0,0.0,0.0,0.0,0.0,0.0,0.0,0.0,0.0,0.0,0.0,0.0,0.0,0.0,0.0,0.0,0.0,-0.8217,-0.8554,-0.8705,-0.8705,-0.8705,-0.8705,-0.8705,-0.8705,-0.864,-0.8501,-0.7844,0.0,0.0,0.0,0.0,0.0,0.0,0.0,0.0,0.0,0.0,0.0,0.0,0.0,0.0,0.0,0.0,0.0,0.0,0.0,0.0,0.0,0.0,0.0,0.0,0.0,0.0,0.0,0.0,0.0,0.0,0.0,0.0,0.0,0.0,0.0,0.0,0.0,0.0,0.0,0.0,0.0,0.0,0.0,0.0,0.0,0.0,0.0,0.0,0.0,0.0,0.0,0.0,0.0,-1.145,-1.1861,-1.2308,-1.125,-1.1086,-1.1566,-1.0905,-1.0413,-1.0047,-0.9635,0.0,0.0,0.0,0.0,0.0,0.0,0.0,0.0,0.0,0.0,0.0,0.0,0.0,0.0,0.0,0.0,0.0,0.0,0.0,0.0,0.0,0.0,-0.967,-1.0303,-1.0447,-0.9985,-0.8297,0.0,0.0,0.0,0.0,0.0,0.0,0.0,0.0,0.0,0.0,0.0,-0.8399,-0.862,-0.8705,-0.8705,-0.8705,-0.8681,-0.8636,-0.8624,-0.8599,-0.8533,-0.7962,-0.7599,0.0,0.0,0.0,0.0,0.0,0.0,0.0,0.0,0.0,0.0,0.0,0.0,0.0,0.0,0.0,0.0,0.0,0.0,0.0,0.0,0.0,0.0,0.0,0.0,0.0,0.0,0.0,0.0,0.0,0.0,0.0,0.0,-0.6766,-0.6836,0.0,0.0,0.0,0.0,0.0,0.0,0.0,0.0,0.0,0.0,0.0,0.0,0.0,-1.15,-1.1729,-1.2349,-1.2637,-1.2629,-1.3303,-1.3652,-1.3727,-1.3546,-1.3539,-1.3606,-1.3515,0.0,-1.0051,-1.0614,0.0,0.0,0.0,0.0,0.0,0.0,0.0,0.0,0.0,0.0,0.0,0.0,0.0,0.0,0.0,0.0,0.0,0.0,0.0,0.0,0.0,0.0,-1.1015,-1.0735,-1.0668,-1.0617,-1.0456,-0.9849,-0.9124,-0.8424,-0.7742,-0.7087,0.0,0.0,0.0,0.0,0.0,0.0,-0.8411,-0.862,-0.8705,-0.8705,-0.8705,-0.8717,-0.8757,-0.8786,-0.8722,-0.8604,-0.8558,-0.8473,-0.835,-0.7709,0.0,0.0,0.0,0.0,0.0,0.0,0.0,0.0,0.0,0.0,0.0,0.0,0.0,0.0,0.0,0.0,0.0,0.0,0.0,0.0,0.0,0.0,0.0,0.0,0.0,0.0,0.0,0.0,0.0,-0.7052,-0.7969,-0.7562,-0.8485,-0.8728,0.0,0.0,0.0,0.0,0.0,0.0,0.0,0.0,0.0,-1.2097,-1.2342,-1.269,-1.3114,-1.3758,-1.4222,-1.4558,-1.5321,-1.5836,-1.6124,-1.579,-1.5624,-1.5624,-1.5461,-1.4702,-1.3467,-1.2706,-1.23,-1.2084,0.0,0.0,0.0,0.0,-1.1901,-1.1725,-1.2069,-1.2013,-1.1718,-1.1214,0.0,0.0,0.0,0.0,0.0,0.0,0.0,-1.1532,-1.17,-1.1652,-1.1639,-1.1974,-1.2041,-1.2108,-1.2271,-1.1638,-1.0785,-1.0001,-0.9837,-0.9461,-0.8284,-0.8067,0.0,0.0,0.0,-0.8769,-0.9025,-0.9206,-0.9312,-0.9312,-0.9312,-0.916,-0.8779,-0.9122,-0.9172,-0.875,-0.8741,-0.8677,-0.8508,-0.8363,-0.8006,0.0,0.0,0.0,0.0,0.0,0.0,0.0,0.0,0.0,0.0,0.0,0.0,0.0,0.0,0.0,0.0,0.0,0.0,0.0,0.0,0.0,0.0,0.0,0.0,0.0,0.0,0.0,0.0,-0.7924,-0.8832,-0.8455,-0.9481,-0.9816,0.0,0.0,0.0,0.0,0.0,0.0,-1.149,-1.2229,-1.2909,-1.3487,-1.3612,-1.3895,-1.4474,-1.5113,-1.5643,-1.6053,-1.6804,-1.7439,-1.7909,-1.744,-1.7319,-1.7394,-1.7174,-1.7078,-1.6905,-1.5082,-1.4428,-1.4503,-1.3836,-1.3561,-1.3573,-1.3912,-1.3779,-1.3502,-1.3905,-1.382,-1.3396,-1.2785,-1.2492,-1.2249,-1.1711,0.0,0.0,0.0,0.0,-1.2691,-1.3053,-1.2742,-1.2483,-1.3038,-1.3173,-1.3208,-1.3363,-1.2907,-1.222,-1.1359,-1.1415,-1.1237,-1.0067,-0.9845,0.0,-0.9087,-0.9585,-0.9999,-0.9954,-1.0095,-1.0192,-1.0192,-1.0192,-0.9961,-0.9413,-0.9838,-0.9838,-0.9174,-0.9107,-0.8935,-0.8608,-0.8755,-0.8488,-0.7719,0.0,0.0,0.0,0.0,0.0,0.0,0.0,0.0,0.0,0.0,0.0,0.0,0.0,0.0,0.0,0.0,0.0,0.0,0.0,0.0,0.0,0.0,0.0,0.0,0.0,0.0,0.0,0.0,0.0,-0.9725,-1.0406,0.0,0.0,0.0,0.0,-1.1758,-1.2411,-1.2894,-1.3074,-1.4066,-1.4834,-1.5185,-1.5497,-1.5692,-1.5794,-1.6353,-1.6637,-1.6667,-1.7324,-1.7893,-1.8269,-1.8238,-1.8391,-1.8702,-1.8686,-1.8828,-1.894,-1.7436,-1.6763,-1.6591,-1.5911,-1.5599,-1.5471,-1.4879,-1.4772,-1.4886,-1.4788,-1.4897,-1.5056,-1.4821,-1.4365,-1.389,-1.3858,-1.3874,0.0,0.0,-1.4374,-1.4738,-1.4258,-1.4098,-1.3953,-1.348,-1.3379,-1.3379,-1.3396,-1.3329,-1.3042,-1.2366,-1.158,-1.1061,-1.1107,0.0,-1.1048,-1.1134,-1.1141,-1.1131,-1.1199,-1.1212,-1.1225,-1.1225,-1.1225,-1.1208,-1.1174,-1.1104,-1.0761,-1.0068,-0.9916,-0.9559,-0.8902,-0.8766,-0.8733,-0.8818,-0.7928,0.0,0.0,0.0,0.0,0.0,0.0,0.0,0.0,0.0,0.0,0.0,0.0,0.0,0.0,0.0,0.0,0.0,0.0,0.0,0.0,0.0,0.0,0.0,0.0,0.0,0.0,0.0,0.0,-1.1087,-1.2111,0.0,-1.1557,-1.2471,-1.3211,-1.3436,-1.4034,-1.4627,-1.516,-1.5507,-1.5829,-1.6184,-1.6323,-1.6608,-1.7058,-1.7516,-1.7929,-1.8309,-1.881,-1.9358,-1.9907,-1.9907,-1.9988,-2.0099,-2.0318,-2.0471,-2.0529,-2.023,-1.9487,-1.8565,-1.8346,-1.8231,-1.8173,-1.7936,-1.793,-1.7897,-1.6884,-1.6623,-1.6586,-1.5595,-1.5151,-1.5018,-1.5383,-1.5616,-1.58,-1.6094,-1.6143,-1.5938,-1.5258,-1.4757,-1.4237,-1.3565,-1.3396,-1.3396,-1.3396,-1.3379,-1.3328,-1.3168,-1.2753,-1.2319,-1.2014,-1.1916,-1.1761,-1.1416,-1.1706,-1.1972,-1.2001,-1.2001,-1.2001,-1.2001,-1.2001,-1.1826,-1.1342,-1.1172,-1.0798,-1.0077,-0.9513,-0.9055,-0.8729,-0.8778,-0.8812,-0.8778,-0.8136,-0.7455,0.0,0.0,0.0,0.0,0.0,0.0,0.0,0.0,0.0,0.0,0.0,0.0,0.0,0.0,0.0,0.0,0.0,0.0,0.0,0.0,0.0,0.0,0.0,0.0,0.0,-1.1182,-1.2224,-1.2448,-1.366,-1.416,-1.3379,-1.4318,-1.5102,-1.5424,-1.5723,-1.6134,-1.6694,-1.6717,-1.6892,-1.7349,-1.7288,-1.75,-1.8082,-1.8548,-1.9014,-1.9403,-1.9893,-2.0448,-2.0958,-2.0958,-2.1023,-2.1135,-2.1371,-2.1464,-2.1495,-2.1708,-2.1218,-2.0323,-2.0075,-1.9975,-1.9959,-1.9684,-1.9611,-1.9531,-1.8577,-1.8268,-1.815,-1.7244,-1.6948,-1.7026,-1.7386,-1.7589,-1.7748,-1.7819,-1.7629,-1.718,-1.6201,-1.5407,-1.4699,-1.3938,-1.3583,-1.3396,-1.3396,-1.3446,-1.3495,-1.3559,-1.3445,-1.3242,-1.2968,-1.2867,-1.271,-1.2304,-1.2626,-1.2912,-1.2912,-1.2912,-1.2912,-1.2912,-1.2912,-1.2704,-1.2214,-1.1784,-1.1239,-1.0531,-0.9655,-0.9021,-0.8712,-0.8789,-0.8835,-0.8835,-0.8295,-0.7787,-0.7305,0.0,0.0,0.0,0.0,0.0,0.0,0.0,0.0,0.0,0.0,0.0,0.0,0.0,0.0,0.0,0.0,0.0,0.0,0.0,0.0,0.0,0.0,0.0,-1.1865,-1.2456,-1.313,-1.381,-1.5049,-1.5972,-1.6335,-1.6897,-1.7399,-1.7753,-1.7441,-1.737,-1.7628,-1.7715,-1.8035,-1.871,-1.8485,-1.8515,-1.8858,-1.9527,-1.9861,-1.9861,-2.0511,-2.099,-2.1325,-2.1325,-2.1495,-2.1781,-2.1781,-2.1781,-2.1797,-2.1797,-2.1797,-2.1715,-2.1002,-2.0749,-2.0666,-1.9942,-1.965,-1.9644,-1.9698,-1.9707,-1.9717,-1.9786,-1.9786,-1.9786,-1.9786,-1.9786,-1.9636,-1.8943,-1.8758,-1.8478,-1.7009,-1.6146,-1.5443,-1.4682,-1.3989,-1.3481,-1.3464,-1.3562,-1.3642,-1.3613,-1.3627,-1.3721,-1.3873,-1.3888,-1.3888,-1.3903,-1.3903,0.0,-1.3888,-1.3888,-1.3888,-1.3888,-1.3888,-1.3888,-1.3888,-1.2961,-1.2084,-1.1429,-1.0432,-0.9572,-0.8925,-0.8789,-0.8846,-0.9109,-0.8444,-0.8164,-0.8297,0.0,0.0,0.0,0.0,0.0,0.0,0.0,0.0,0.0,0.0,0.0,0.0,0.0,0.0,0.0,0.0,0.0,0.0,0.0,0.0,0.0,-1.2178,-1.3207,-1.3232,-1.3825,-1.4663,-1.5771,-1.6484,-1.7115,-1.7698,-1.8122,-1.8584,-1.9165,-1.8649,-1.8421,-1.8749,-1.8563,-1.8625,-1.9044,-1.9264,-1.9657,-2.0242,-2.0671,-2.0893,-2.0893,-2.1336,-2.1526,-2.1528,-2.1528,-2.1481,-2.1433,-2.1433,-2.1433,-2.1464,-2.1708,-2.1738,-2.1648,-2.1536,-2.1483,-2.1466,-2.1267,-2.0853,-2.039,-2.0417,-2.0069,-1.9654,-1.9691,-1.9717,-1.9744,-1.9786,-1.9786,-1.9753,-1.9536,-1.9227,-1.8691,-1.7608,-1.6974,-1.627,-1.4839,-1.4861,-1.5071,-1.4521,-1.4848,-1.5315,-1.5436,-1.547,-1.5153,-1.4081,-1.3809,-1.3791,-1.3959,-1.3933,-1.3888,-1.3888,-1.3888,-1.3888,-1.3888,-1.3888,-1.3888,-1.3888,-1.2491,-1.1531,-1.1338,-0.9924,-0.9024,-0.8829,-0.8942,-0.9085,-0.9312,-0.8607,-0.8305,0.0,0.0,0.0,0.0,0.0,0.0,0.0,0.0,0.0,0.0,0.0,0.0,0.0,0.0,0.0,0.0,0.0,0.0,0.0,0.0,0.0,0.0,-1.379,-1.4648,-1.5224,-1.5431,-1.5935,-1.7073,-1.7622,-1.8223,-1.8967,-1.9044,-1.9293,-1.9843,-1.9233,-1.8967,-1.921,-1.9197,-1.9386,-1.9871,-2.0082,-2.048,-2.099,-2.1183,-2.1309,-2.1309,-2.1495,-2.1556,-2.1481,-2.1481,-2.1419,-2.1309,-2.1309,-2.1371,-2.1526,-2.1738,-2.1768,-2.1694,0.0,0.0,0.0,0.0,-2.1516,-2.118,-2.118,-2.087,-2.0539,-2.0578,-2.0578,-2.0578,-2.0622,-2.065,-2.0583,-2.0267,-1.9807,-1.9215,-1.8377,-1.7582,-1.6743,-1.5788,-1.5724,-1.578,-1.5349,-1.5662,-1.6063,-1.6151,-1.6202,0.0,-1.457,-1.4327,-1.4324,-1.4403,-1.4126,-1.3888,-1.3888,-1.3888,-1.3888,-1.3888,-1.3888,-1.3888,-1.3888,-1.2634,0.0,0.0,0.0,-0.9212,-0.8897,-0.9102,0.0,0.0,0.0,0.0,0.0,-0.8551,0.0,0.0,-0.8095,-0.7795,0.0,0.0,0.0,0.0,0.0,0.0,0.0,0.0,0.0,0.0,0.0,0.0,0.0,0.0,0.0,0.0,-1.5271,-1.6125,-1.7313,-1.7052,-1.7048,-1.7904,-1.8495,-1.9206,-2.0096,-1.983,-1.9736,-2.0031,-1.9528,-1.9232,-1.9364,-1.9714,0.0,0.0,0.0,-2.099,-2.1309,-2.1309,-2.1309,-2.1309,-2.1309,-2.1277,-2.1277,-2.1277,-2.1262,-2.1262,-2.1277,-2.1464,-2.1768,-2.1811,-2.184,-2.184,-2.1911,-2.1899,-2.1797,-2.1797,-2.1797,-2.1797,-2.1797,0.0,0.0,-2.184,-2.184,-2.1886,-2.1886,-2.1886,-2.1736,-2.1088,-2.0495,-1.99,-1.9232,-1.8107,-1.7129,-1.7023,-1.6593,-1.6163,-1.6076,-1.6272,-1.6431,-1.6378,-1.6483,-1.6305,-1.5517,-1.5215,-1.5053,-1.4902,-1.4324,-1.3888,-1.3888,-1.3888,-1.3888,-1.3888,-1.3888,0.0,-1.3888,-1.3095,-1.2259,-1.1468,-1.0659,-0.993,-0.9319,-0.9449,-0.9583,-0.9651,-0.9785,-0.9821,-0.9799,-0.9938,-0.9946,-0.9813,-0.8917,-0.8441,0.0,0.0,0.0,0.0,0.0,0.0,0.0,0.0,0.0,0.0,0.0,0.0,0.0,0.0,0.0,-1.5096,-1.6222,-1.7213,-1.7932,-1.8111,-1.8291,-1.8579,-1.9,-1.9636,-2.0574,-2.0815,-2.0767,-2.036,-2.0409,-2.0242,-1.9747,-2.0299,-2.0679,-2.0794,-2.1055,-2.1214,-2.1309,-2.1309,-2.1309,-2.1309,-2.1309,0.0,-2.1135,-2.1135,-2.1055,-2.0925,-2.1183,-2.134,-2.1433,-2.1924,-2.2068,-2.194,-2.1738,-2.1738,-2.1797,-2.1797,-2.1797,-2.1797,-2.1797,-2.1928,-2.2039,-2.2039,-2.2186,-2.236,-2.236,-2.236,0.0,-2.219,-2.131,-2.0336,-2.0038,-1.9078,-1.8021,-1.7257,-1.7561,-1.7832,-1.7165,-1.757,-1.8046,-1.8046,-1.8065,-1.8012,-1.7854,-1.6255,-1.4814,-1.4202,-1.3991,-1.3888,-1.3888,-1.3888,-1.3888,-1.3888,-1.3888,-1.3888,-1.3888,-1.3095,-1.2488,-1.2204,-1.1386,-1.0985,-1.1177,-1.0664,-1.0428,-1.0557,-1.069,-1.0443,-0.9798,-1.1191,-1.1453,-1.0658,-1.0358,-1.0156,0.0,0.0,0.0,0.0,0.0,0.0,0.0,0.0,0.0,0.0,0.0,-1.2903,-1.3862,0.0,-1.571,-1.6673,-1.7474,-1.8175,-1.8767,-1.9105,-1.9336,-1.9405,-1.9697,-2.017,-2.0893,-2.0925,-2.0778,-2.053,-2.0478,-2.0342,-2.012,-2.041,-2.0646,-2.0794,-2.0958,-2.1055,-2.1055,-2.1055,-2.1055,-2.1055,-2.1055,-2.1023,-2.0958,-2.0958,-2.0893,-2.0794,-2.099,-2.1151,-2.134,-2.1794,-2.2084,-2.2215,-2.1899,-2.1768,-2.1708,-2.1899,-2.1899,-2.1811,-2.1928,-2.2027,-2.2124,-2.2271,-2.2371,-2.2515,-2.2515,-2.2515,-2.2515,-2.2515,-2.1807,-2.0932,-2.0481,-1.9747,-1.8869,-1.8001,-1.8165,-1.838,-1.7993,-1.8222,-1.8485,-1.8485,-1.8485,-1.8362,-1.7976,-1.694,-1.5904,-1.5167,-1.4395,-1.3888,-1.3888,-1.3888,-1.3888,-1.3888,-1.3888,-1.3888,-1.3888,-1.3095,-1.2571,-1.2514,-1.1761,-1.1408,-1.1636,-1.1392,-1.131,-1.1452,-1.1583,-1.1468,-1.1105,-1.1937,-1.205,-1.1506,-1.1836,-1.1688,0.0,0.0,0.0,0.0,0.0,0.0,0.0,-1.1542,-1.174,-1.314,-1.3867,-1.4555,-1.5623,-1.6279,-1.7038,-1.8124,-1.8564,-1.8936,-1.9456,-1.9833,-2.0025,-2.0025,-2.0254,-2.0545,-2.0974,-2.0728,-2.0545,-2.0563,-2.0376,-2.0273,-2.041,-2.0444,-2.0579,-2.0794,-2.0794,-2.0794,-2.0794,-2.0794,-2.0794,-2.0794,-2.0794,-2.0794,-2.0794,-2.0794,-2.0794,-2.0794,-2.086,-2.1103,-2.1509,-2.1781,-2.2101,-2.2426,-2.2243,-2.1957,-2.1724,-2.2027,-2.2044,-2.1915,-2.2084,-2.2169,-2.2226,-2.247,-2.2569,-2.2605,-2.2605,-2.2623,-2.2623,-2.2623,-2.2168,-2.1548,-2.094,-2.0341,-1.9696,-1.8906,-1.8731,-1.8678,-1.852,-1.8485,-1.8485,-1.8485,-1.8485,-1.8292,-1.7641,-1.7396,-1.7045,-1.6308,-1.5009,-1.4114,-1.4114,-1.3991,-1.3888,-1.3888,-1.3888,-1.3888,-1.3888,-1.3235,-1.2808,-1.2854,-1.2274,-1.1977,-1.2078,-1.21,-1.218,-1.2326,-1.2464,-1.2485,-1.2391,-1.2641,-1.2621,-1.2335,-1.3133,-1.2961,-1.0147,-1.0881,-1.163,-1.2241,-1.1924,-1.2247,0.0,-1.4933,-1.4596,-1.6381,-1.6833,-1.6888,-1.7001,-1.7534,-1.8083,-1.8361,-1.8912,-1.9398,-1.9639,-1.9925,-2.008,-2.008,-2.0273,-2.0478,-2.0726,-2.0777,-2.0679,-2.0444,-2.0613,-2.0628,-2.041,-2.0628,-2.0761,-2.0794,-2.0794,-2.0794,-2.0794,-2.0794,-2.0794,-2.0794,-2.0794,-2.0794,-2.0794,-2.0794,-2.0794,-2.0827,-2.1119,-2.1554,-2.2108,-2.2136,-2.2209,-2.2265,-2.2598,-2.2409,-2.1969,-2.2192,-2.2265,-2.2254,-2.2265,-2.2388,-2.2552,-2.2659,-2.2816,-2.297,-2.3003,-2.3028,-2.3028,-2.3028,-2.2509,-2.1937,-2.185,-2.1259,-2.049,-1.9731,-1.9573,-1.9363,-1.8643,-1.8485,-1.8485,-1.8485,-1.8485,-1.8467,-1.838,-1.7764,-1.7045,-1.6308,-1.5448,-1.4869,-1.4869,-1.4307,-1.3888,-1.3888,-1.3888,-1.3888,-1.3888,-1.3693,-1.3626,-1.3751,-1.3572,-1.3561,-1.3819,-1.3213,-1.2959,-1.3151,-1.329,-1.3029,-1.2309,-1.3802,-1.4016,-1.3088,-1.3904,-1.3733,-1.2284,-1.2429,-1.24,-1.3814,-1.3959,-1.4207,-1.5943,-1.5899,-1.5927,-1.7495,-1.783,-1.7967,-1.8402,-1.8695,-1.8943,-1.9129,-1.9531,-1.9833,-1.9925,-2.017,-2.0323,-2.027,-2.0392,-2.0527,-2.0693,-2.0726,-2.0711,-2.0646,-2.0728,-2.0761,-2.0646,-2.0728,-2.0794,-2.0794,-2.0794,-2.0794,-2.0794,-2.0794,-2.0794,-2.0794,-2.0794,-2.0794,-2.0794,-2.0794,-2.0794,-2.0794,-2.0958,-2.137,-2.1969,-2.1969,-2.2169,-2.2517,-2.2668,-2.2588,-2.2409,-2.2443,-2.2405,-2.231,-2.2432,-2.2542,-2.2605,-2.2764,-2.2893,-2.302,-2.3028,-2.307,-2.3095,-2.3095,-2.2891,-2.254,-2.2101,-2.1733,-2.1188,-1.9977,-1.9696,-1.9468,-1.866,-1.8485,-1.8485,-1.8485,-1.8485,-1.8485,-1.8485,-1.8222,-1.7888,-1.7572,-1.6484,-1.5694,-1.5694,-1.5027,-1.4377,-1.3956,-1.3888,-1.3888,-1.3888,-1.3859,-1.3843,-1.3888,-1.3859,-1.3886,-1.4044,-1.3783,-1.3701,-1.3829,-1.4029,-1.3976,-1.3633,-1.439,-1.448,-1.4011,-1.4281,-1.4132,-1.3557,-1.3644,-1.3573,-1.5168,-1.5705,-1.5995,-1.6702,-1.6866,-1.7203,-1.8429,-1.8699,-1.8847,-1.9251,-1.9435,-1.9545,-1.9603,-1.9869,-2.008,-2.015,-2.0323,-2.0441,-2.0388,-2.0407,-2.0509,-2.0626,-2.066,-2.0726,-2.0777,-2.0794,-2.0794,-2.0794,-2.0794,-2.0794,-2.0794,-2.0794,-2.0794,-2.0794,-2.0794,-2.0794,-2.0794,-2.0794,-2.0794,-2.0794,-2.0893,-2.0893,-2.0794,-2.0893,-2.1261,-2.1797,-2.1797,-2.2175,-2.2712,-2.2712,-2.2712,-2.2685,-2.2632,-2.2542,-2.2432,-2.2596,-2.2632,-2.2659,-2.2816,-2.2919,-2.2944,-2.297,-2.302,-2.3028,-2.3028,-2.3028,-2.2905,-2.2387,-2.2247,-2.1861,-2.0342,-1.9973,-1.9693,-1.8713,-1.8485,-1.8485,-1.8485,-1.8485,-1.8485,-1.8485,-1.8485,-1.8485,-1.8485,-1.7537,-1.6747,-1.6536,-1.5624,-1.4711,-1.3991,-1.3888,-1.3888,-1.3888,-1.3888,-1.3888,-1.3888,-1.3888,-1.3933,-1.3998,-1.405,-1.4096,-1.4206,-1.438,-1.4533,-1.4567,-1.4624,-1.4595,-1.4508,-1.4411,-1.4275,-1.3409,-1.4297,-1.5385,-1.6024,-1.6663,-1.7384,-1.8322,-1.8525,-1.8802,-1.9753,-1.994,-1.9782,-1.9281,-1.9536,-1.9717,-1.9442,-1.9726,-2.0061,-2.027,-2.0304,-2.0304,-2.0304,-2.0304,-2.0339,-2.0388,-2.0592,-2.0693,-2.0693,-2.0761,-2.0794,-2.0794,-2.0794,-2.0794,-2.0794,-2.0794,-2.0794,-2.0794,-2.0794,-2.0794,-2.0794,-2.0794,-2.0794,-2.0827,-2.1151,-2.1119,-2.0827,-2.1151,-2.1495,-2.1797,-2.1797,-2.2175,-2.2712,-2.2712,-2.2712,-2.2712,-2.2712,-2.2685,-2.2685,-2.2685,-2.2685,-2.2712,-2.279,-2.2816,-2.2816,-2.2876,-2.2902,-2.2919,-2.2919,-2.2919,-2.2902,-2.2884,-2.2884,-2.2509,-2.1027,-2.066,-2.0263,-1.8818,-1.8485,-1.8485,-1.8485,-1.8485,-1.8485,-1.8485,-1.8485,-1.8485,-1.8485,-1.845,-1.8151,-1.7378,-1.594,-1.4711,-1.3991,-1.3888,-1.3888,-1.3888,-1.3888,-1.3888,-1.3888,-1.3888,-1.3933,-1.3998,-1.3998,-1.4068,-1.4198,-1.4206,-1.4307,-1.4499,-1.4508,-1.4439,-1.4306,-1.4306,-1.415,-1.4906,-1.5574,-1.6169,-1.7258,-1.7708,-1.8098,-1.8983,-1.9203,-1.9334,-1.9758,-1.9521,-1.9116,-1.8806,-1.9031,-1.922,-1.9031,-1.9687,-2.0235,-2.0304,-2.0304,-2.0304,-2.0304,-2.0304,-2.0304,-2.0339,-2.0457,-2.0525,-2.0561,-2.0595,-2.0595,-2.0595,-2.0677,-2.0744,-2.0744,-2.0777,-2.0794,-2.0794,-2.0794,-2.0794,-2.0794,-2.0794,-2.0794,-2.0794,-2.0925,-2.1023,-2.1119,-2.0974,-2.1198,-2.1658,-2.1658,-2.1924,-2.2337,-2.2588,-2.2712,-2.2712,-2.2712,-2.2712,-2.2712,-2.2712,-2.2712,-2.2712,-2.2738,-2.2764,-2.2816,-2.2842,-2.285,-2.2893,-2.2893,-2.2893,-2.2893,-2.2893,-2.2893,-2.2519,-2.0993,-2.0627,-2.0232,-1.8758,-1.8426,-1.8445,-1.8485,-1.8485,-1.8485,-1.8485,-1.8485,-1.8485,-1.8485,-1.8485,-1.8204,-1.7396,-1.6852,-1.6028,-1.4763,-1.4623,-1.443,-1.3941,-1.3888,-1.3888,-1.3888,-1.3888,-1.3903,-1.3915,-1.393,-1.3944,-1.4002,-1.405,-1.4154,-1.4295,-1.438,-1.4404,-1.4356,-1.427,-1.4159,-1.6079,-1.6561,-1.688,-1.8201,-1.8484,-1.8622,-1.9477,-1.9603,-1.9564,-1.971,-1.9296,-1.8714,-1.817,-1.8377,-1.8567,-1.8381,-1.9269,-1.9993,-2.0085,-2.02,-2.0304,-2.0304,-2.0304,-2.0304,-2.0304,-2.0339,-2.0373,-2.0475,-2.0494,-2.0494,-2.0494,-2.0577,-2.0644,-2.0693,-2.0744,-2.0777,-2.0794,-2.0794,-2.0794,-2.0761,-2.0761,-2.0744,-2.0695,-2.0942,-2.1103,-2.1198,-2.1055,-2.1276,-2.1748,-2.1628,-2.1836,-2.2271,-2.2535,-2.2659,-2.2659,-2.2685,-2.2712,-2.2712,-2.2712,-2.2712,-2.2712,-2.2712,-2.2738,-2.2764,-2.2764,-2.279,-2.2842,-2.2842,-2.2842,-2.2842,-2.2842,-2.2842,-2.2513,-2.1288,-2.0975,-2.0582,-1.9115,-1.8784,-1.8717,-1.8515,-1.8465,-1.8465,-1.8502,-1.8485,-1.8485,-1.8485,-1.8485,-1.8204,-1.7396,-1.7308,-1.6817,-1.5553,-1.5167,-1.4798,-1.4324,-1.4029,-1.3856,-1.3888,-1.3888,-1.3856,-1.3856,-1.3856,-1.3856,-1.3841,-1.388,-1.3977,-1.4127,-1.4224,-1.4263,-1.4257,-1.4167,-1.4078,-1.6843,-1.7238,-1.7557,-1.8774,-1.895,-1.8974,-1.9732,-1.963,-1.9456,-1.9575,-1.918,-1.8498,-1.7372,-1.7545,-1.7769,-1.7569,-1.8569,-1.9431,-1.9707,-2.0045,-2.0304,-2.0304,-2.0304,-2.0304,-2.0304,-2.0304,-2.0339,-2.0388,-2.0441,-2.0494,-2.0494,-2.0494,-2.0561,-2.0693,-2.0693,-2.0711,-2.0794,-2.0794,-2.0728,-2.0693,-2.0693,-2.0644,-2.0561,-2.1166,-2.1323,-2.1055,-2.1354,-2.1705,-2.1969,-2.1628,-2.1899,-2.2487,-2.2552,-2.2579,-2.2605,-2.2659,-2.2685,-2.2685,-2.2685,-2.2685,-2.2712,-2.2712,-2.2712,-2.2712,-2.2712,-2.2712,-2.2712,-2.2712,-2.2712,-2.2712,-2.2712,-2.2712,-2.2522,-2.1856,-2.169,-2.1298,-1.9821,-1.9473,-1.9286,-1.8543,-1.8406,-1.8426,-1.8485,-1.8485,-1.8485,-1.8485,-1.8485,-1.8222,-1.7466,-1.736,-1.708,-1.6326,-1.5571,-1.5097,-1.5044,-1.4313,-1.3878,-1.3959,-1.3859,-1.3793,-1.3793,-1.3793,-1.3761,-1.3713,-1.3698,-1.3806,-1.3998,-1.3984,-1.3984,-1.3998,-1.3998,-1.3927,-1.7184,-1.7786,-1.8238,-1.8588,-1.862,-1.8555,-1.8499,-1.8454,-1.83,-1.8044,-1.7302,-1.6443,-1.567,-1.6531,-1.7227,-1.6775,-1.8597,-2.007,-2.0135,-2.0235,-2.0304,-2.0304,-2.0304,-2.0304,-2.0304,-2.0304,-2.0304,-2.0304,-2.0339,-2.0373,-2.0373,-2.0407,-2.0441,-2.0491,-2.0509,-2.0561,-2.0595,-2.0595,-2.0561,-2.0561,-2.0561,-2.0646,-2.0878,-2.1039,-2.1337,-2.1748,-2.1524,-2.1615,-2.1911,-2.1823,-2.1899,-2.2073,-2.2415,-2.2542,-2.2542,-2.2525,-2.2569,-2.2569,-2.2605,-2.2659,-2.2712,-2.2712,-2.2712,-2.2712,-2.2712,-2.2712,-2.2712,-2.2712,-2.2712,-2.2712,-2.2712,-2.2712,-2.2522,-2.1806,-2.1633,-2.1226,-1.9732,-1.9425,-1.9204,-1.8543,-1.8426,-1.8465,-1.8485,-1.8445,-1.8426,-1.8426,-1.8426,-1.8356,-1.8143,-1.8108,-1.7829,-1.704,-1.676,-1.6394,-1.5802,-1.5052,-1.4634,-1.465,-1.4077,-1.3728,-1.3728,-1.3728,-1.3713,-1.3698,-1.37,-1.3776,-1.3938,-1.3894,-1.3877,-1.3938,-1.3938,-1.3848,-1.774,-1.8198,-1.8517,-1.8517,-1.8439,-1.8226,-1.772,-1.7518,-1.7173,-1.6345,-1.5581,-1.4891,-1.4314,-1.5168,-1.6025,-1.6252,-1.8025,-1.951,-1.9969,-2.02,-2.0304,-2.0304,-2.0304,-2.0304,-2.0304,-2.0304,-2.0304,-2.0304,-2.0304,-2.0304,-2.0304,-2.0339,-2.0388,-2.0388,-2.0441,-2.046,-2.0494,-2.0494,-2.0494,-2.0475,-2.0475,-2.0527,-2.0697,-2.0861,-2.1197,-2.1688,-2.1462,-2.1631,-2.2061,-2.1899,-2.1928,-2.2089,-2.2377,-2.246,-2.246,-2.2487,-2.2515,-2.2515,-2.2525,-2.2579,-2.2605,-2.2685,-2.2712,-2.2712,-2.2712,-2.2712,-2.2712,-2.2712,-2.2712,-2.2712,-2.2712,-2.2712,-2.2608,-2.2194,-2.2091,-2.1763,-2.0621,-2.0102,-1.9537,-1.8554,-1.8388,-1.8408,-1.8445,-1.8406,-1.8348,-1.8348,-1.8348,-1.8365,-1.8363,-1.8383,-1.8228,-1.7733,-1.7383,-1.7018,-1.6566,-1.5819,-1.5245,-1.4931,-1.4463,-1.4047,-1.37,-1.37,-1.37,-1.3667,-1.3669,-1.3682,-1.3774,-1.3743,-1.3743,-1.3774,-1.3774,-1.3743,-1.8207,-1.8439,-1.8439,-1.8439,-1.8212,-1.7824,-1.7021,-1.661,-1.5976,-1.4601,-1.401,-1.36,-1.3164,-1.3758,-1.4687,-1.5848,-1.7252,-1.8572,-1.9637,-2.008,-2.0304,-2.0304,-2.0304,-2.0304,-2.0304,-2.0304,-2.0304,-2.0304,-2.0304,-2.0304,-2.0304,-2.0304,-2.0339,-2.0388,-2.0388,-2.0407,-2.046,-2.046,-2.0441,-2.0388,-2.0388,-2.0373,-2.0373,-2.0728,-2.1039,-2.137,-2.1401,-2.1751,-2.2282,-2.1991,-2.2049,-2.231,-2.2349,-2.2394,-2.2377,-2.246,-2.2487,-2.2487,-2.2487,-2.2487,-2.2515,-2.2632,-2.2685,-2.2685,-2.2685,-2.2685,-2.2712,-2.2712,-2.2712,-2.2712,-2.2712,-2.2712,-2.2712,-2.2712,-2.2712,-2.2505,-2.1763,-2.0901,-1.9872,-1.8565,-1.829,-1.8328,-1.8385,-1.8328,-1.8307,-1.8307,-1.8307,-1.8304,-1.8277,-1.836,-1.8365,-1.8287,-1.7713,-1.7329,-1.7329,-1.6512,-1.5714,-1.5072,-1.4794,-1.4345,-1.3704,-1.3686,-1.3653,-1.3605,-1.3605,-1.3605,-1.3605,-1.3605,-1.3605,-1.3605,-1.3605,-1.362,-1.7975,-1.8003,-1.8003,-1.8003,-1.7595,-1.69,-1.5778,-1.5119,0.0,-1.3133,-1.2579,-1.2253,-1.1934,-1.3,-1.4284,-1.5433,-1.7045,-1.8683,-2.0001,-2.027,-2.0304,-2.0304,-2.0304,-2.0304,-2.0304,-2.0304,-2.0304,-2.0304,-2.0304,-2.0304,-2.0304,-2.0304,-2.0304,-2.0304,-2.0304,-2.0304,-2.0339,-2.0339,-2.0339,-2.0304,-2.0304,-2.0475,-2.0728,-2.1055,-2.1401,-2.1721,-2.202,-2.218,-2.2282,-2.2254,-2.2254,-2.231,-2.231,-2.231,-2.231,-2.2338,-2.2338,-2.2338,-2.2405,-2.2422,-2.2432,-2.2515,-2.2569,-2.2623,-2.2623,-2.2659,-2.2712,-2.2712,-2.2712,-2.2712,-2.2712,-2.2712,-2.2712,-2.2712,-2.2712,-2.2505,-2.1763,-2.0528,-1.9312,-1.8471,-1.8304,-1.831,-1.8328,-1.8304,-1.8298,-1.8298,-1.8298,-1.8277,-1.8232,-1.8295,-1.8298,-1.8215,-1.8094,-1.8025,-1.8025,-1.6728,-1.5865,-1.5727,-1.452,-1.3743,-1.3605,-1.362,-1.3605,-1.3605,-1.3605,-1.3605,-1.3605,-1.3605,-1.3605,-1.3605,-1.3605,-1.3605,-1.7787,-1.7882,-1.7882,-1.7882,-1.7434,-1.6593,-1.5074,0.0,0.0,-1.1872,-1.1445,-1.1339,-1.1339,-1.2202,-1.3293,-1.4382,-1.5615,-1.706,-1.896,-1.9223,-1.9469,-2.0227,-2.0304,-2.0304,-2.0304,-2.0304,-2.0304,-2.0304,-2.0304,-2.0304,-2.0304,-2.0304,-2.0304,-2.0304,-2.0304,-2.0304,-2.0304,-2.0304,-2.0304,-2.0304,-2.0304,-2.0373,-2.0543,-2.0712,-2.0958,-2.1293,-2.1631,-2.1886,-2.2049,-2.2049,-2.2152,-2.2282,-2.2123,-2.2152,-2.231,-2.231,-2.231,-2.231,-2.2338,-2.2366,-2.2349,-2.2394,-2.246,-2.2569,-2.2569,-2.2569,-2.2596,-2.2596,-2.2596,-2.2596,-2.2596,-2.2605,-2.2659,-2.2659,-2.2659,-2.2384,-2.1221,-2.0401,-1.9601,-1.8502,-1.826,-1.826,-1.8284,-1.8277,-1.8253,-1.8253,-1.8253,-1.8232,-1.8211,-1.8232,-1.8232,-1.8211,-1.8211,-1.8211,-1.8211,-1.7139,-1.6312,-1.5916,-1.4848,-1.4036,-1.3622,-1.3605,-1.3605,-1.3605,-1.3605,-1.3605,-1.3605,-1.3605,-1.3605,-1.3605,-1.3605,-1.3606,-1.757,-1.7787,-1.7882,-1.7882,-1.7339,-1.6362,-1.468,-1.373,0.0,-1.1058,-1.0681,-1.0729,-1.0944,-1.1468,-1.2217,-1.3337,-1.4225,-1.5525,-1.7745,-1.8251,-1.8851,-2.0097,-2.0235,-2.0235,-2.0235,-2.0235,-2.027,-2.027,-2.027,-2.0304,-2.0304,-2.0304,-2.0304,-2.0304,-2.0304,-2.0304,-2.0304,-2.0304,-2.0304,-2.0304,-2.0304,-2.0304,-2.0304,-2.0373,-2.0561,-2.0827,-2.115,-2.1462,-2.1691,-2.1691,-2.1886,-2.218,-2.1886,-2.202,-2.231,-2.231,-2.231,-2.231,-2.231,-2.231,-2.231,-2.231,-2.2394,-2.2487,-2.2487,-2.2487,-2.2515,-2.2515,-2.2515,-2.2515,-2.2515,-2.2542,-2.2579,-2.2579,-2.2605,-2.2229,-2.0697,-2.0371,-1.9923,-1.8529,-1.8215,-1.8211,-1.8274,-1.8232,-1.8211,-1.8211,-1.8211,-1.8211,-1.8211,-1.8211,-1.8211,-1.8211,-1.8211,-1.8211,-1.8211,-1.7466,-1.676,-1.6174,-1.5314,-1.4519,-1.3881,-1.3691,-1.3605,-1.3605,-1.3605,-1.3589,-1.3606,-1.3606,-1.3591,-1.3591,-1.3591,-1.3576,-1.7068,-1.7475,-1.7882,-1.7882,-1.7027,-1.586,-1.4585,0.0,-1.2224,-1.0976,-1.0632,-1.0621,-1.0632,-1.0856,-1.144,-1.2756,0.0,-1.5326,-1.7369,-1.8404,-1.922,-1.9949,-2.0041,-2.0041,-2.0041,-2.008,-2.0115,-2.0115,-2.022,-2.0304,-2.0304,-2.0304,-2.0304,-2.0304,-2.0304,-2.0304,-2.0304,-2.0304,-2.0304,-2.0304,-2.0304,-2.0304,-2.0304,-2.0628,-2.0761,-2.0827,-2.115,-2.1308,-2.1339,-2.1339,-2.1524,-2.1857,-2.1811,-2.202,-2.231,-2.231,-2.231,-2.231,-2.231,-2.231,-2.231,-2.231,-2.2366,-2.2405,-2.2405,-2.246,-2.2515,-2.2515,-2.2515,-2.2515,-2.2515,-2.2515,-2.2515,-2.2515,-2.2515,-2.2088,-2.0558,-2.0233,-1.9812,-1.8405,-1.8113,-1.8113,-1.8211,-1.8211,-1.8211,-1.8211,-1.8211,-1.8211,-1.8211,-1.8211,-1.8211,-1.8211,-1.8211,-1.8211,-1.8211,-1.7466,-1.6984,-1.6898,-1.559,-1.4779,-1.4692,-1.3985,-1.3605,-1.3605,-1.3605,-1.3591,-1.3594,-1.3594,-1.3578,-1.3495,-1.3495,-1.3512,-1.6606,-1.7276,-1.7666,-1.7342,-1.6588,-1.5577,-1.406,-1.3001,-1.2045,-1.0838,-1.0572,-1.0548,-1.0548,-1.0621,-1.0976,-1.2015,-1.2277,-1.3209,-1.5645,-1.6003,-1.6808,-1.8867,-1.9091,-1.9326,-1.9925,-2.0025,-2.0025,-2.0025,-2.0131,-2.0185,-2.0185,-2.027,-2.0304,-2.0304,-2.0304,-2.0304,-2.0304,-2.0304,-2.0304,-2.0304,-2.0304,-2.0304,-2.0304,-2.0441,-2.0494,-2.0527,-2.0844,-2.1007,-2.1007,-2.1007,-2.1324,-2.1781,-2.1601,-2.1827,-2.231,-2.231,-2.231,-2.231,-2.231,-2.231,-2.231,-2.231,-2.231,-2.2338,-2.2338,-2.2366,-2.2394,-2.2394,-2.2394,-2.2394,-2.2394,-2.2405,-2.246,-2.2487,-2.2515,-2.2224,-2.1165,-2.055,-1.9901,-1.8899,-1.8334,-1.8048,-1.813,-1.8151,-1.8151,-1.8151,-1.8172,-1.8168,-1.8087,-1.8108,-1.813,-1.8087,-1.8151,-1.8211,-1.8211,-1.7466,-1.6981,-1.6944,-1.5965,-1.538,-1.5326,-1.5034,-1.4863,-1.4863,-1.4863,-1.4658,-1.4195,-1.4195,-1.3973,-1.3512,-1.3512,-1.3718,-1.5678,-1.6541,-1.7048,-1.6606,-1.6056,-1.5176,-1.3628,-1.278,-1.1962,-1.0738,-1.0474,-1.0474,-1.0474,-1.0449,-1.0631,0.0,-1.1325,-1.2111,-1.4188,-1.4566,-1.5435,-1.7695,-1.8118,-1.8517,-1.9203,-1.9462,-1.9581,-1.9603,-1.9782,-1.9889,-1.9889,-2.008,-2.0235,-2.0304,-2.0304,-2.0304,-2.0304,-2.0304,-2.0304,-2.0304,-2.0304,-2.0304,-2.0304,-2.0304,-2.0304,-2.0304,-2.0561,-2.0662,-2.0662,-2.0761,-2.1135,-2.1631,-2.1493,-2.1797,-2.231,-2.231,-2.231,-2.231,-2.231,-2.231,-2.231,-2.231,-2.231,-2.231,-2.231,-2.231,-2.231,-2.231,-2.231,-2.231,-2.231,-2.2338,-2.2394,-2.2432,-2.2432,-2.2228,-2.1496,-2.0909,-2.0211,-1.9256,-1.8643,-1.8239,-1.8104,-1.807,-1.807,-1.807,-1.8108,-1.8108,-1.8005,-1.8048,-1.8048,-1.8005,-1.8087,-1.813,-1.813,-1.7631,-1.7285,-1.7226,-1.6524,-1.6094,-1.6053,-1.5831,-1.5712,-1.5712,-1.5712,-1.532,-1.4571,-1.481,-1.4417,-1.3479,-1.3922,-1.4483,-1.4132,-1.4954,-1.5835,-1.5821,-1.5345,-1.4612,-1.3472,-1.2721,-1.1962,-1.0738,-1.0449,-1.0399,-1.0399,-1.0349,-1.0299,-1.0312,-1.1536,-1.2729,-1.3402,-1.4826,-1.6018,-1.6626,-1.7241,-1.7622,-1.7636,-1.8224,-1.8655,-1.8703,-1.9118,-1.9406,-1.9406,-1.9797,-2.0096,-2.0304,-2.0304,-2.0304,-2.0304,-2.0304,-2.0304,-2.0304,-2.0304,-2.0304,-2.0304,-2.0304,-2.0304,-2.0304,-2.0304,-2.0304,-2.0339,-2.0662,-2.1007,-2.1339,-2.1661,-2.1991,-2.231,-2.231,-2.231,-2.231,-2.231,-2.231,-2.231,-2.231,-2.231,-2.231,-2.231,-2.231,-2.231,-2.231,-2.231,-2.231,-2.231,-2.231,-2.231,-2.231,-2.231,-2.2107,-2.1373,-2.1204,-2.0746,-1.9287,-1.8981,-1.8784,-1.812,-1.8005,-1.8005,-1.8005,-1.8005,-1.8005,-1.8005,-1.8005,-1.8005,-1.8005,-1.8005,-1.8005,-1.8005,-1.8005,-1.8005,-1.8005,-1.7304,-1.6874,-1.6891,-1.6121,-1.5712,-1.5712,-1.5712,-1.5301,-1.45,-1.5299,-1.4907,-1.3447,-1.4885,-1.5967,-1.3119,-1.3875,-1.4398,-1.4,-1.3775,-1.3351,-1.2171,-1.1732,-1.1321,-1.0532,-1.0349,-1.0324,-1.0324,-1.0299,-1.056,-1.1342,-1.1545,0.0,-1.3528,-1.4145,-1.4918,-1.6143,-1.7423,-1.8218,-1.8218,-1.8401,-1.8655,-1.8959,-1.8884,-1.8959,-1.9244,-1.9169,-1.9406,-2.0061,-2.015,-2.015,-2.0111,-2.015,-2.015,-2.0096,-2.0096,-2.02,-2.0426,-2.02,-2.027,-2.0577,-2.0475,-2.0323,-2.022,-2.0811,-2.1087,-2.1134,-2.1631,-2.1991,-2.2242,-2.2282,-2.231,-2.231,-2.231,-2.231,-2.231,-2.231,-2.231,-2.231,-2.231,-2.231,-2.231,-2.231,-2.231,-2.231,-2.231,-2.231,-2.231,-2.231,-2.231,-2.2243,-2.2006,-2.1549,-2.0916,-1.9875,-1.929,-1.872,-1.8058,-1.7922,-1.7922,-1.7922,-1.7983,-1.7961,-1.7895,-1.79,-1.7922,-1.7856,-1.7833,-1.7856,-1.7983,-1.8005,-1.7961,-1.7856,-1.7635,-1.7473,-1.7389,-1.7132,-1.7014,-1.7014,-1.7014,-1.6622,-1.5862,-1.6114,-1.5745,-1.4788,-1.5758,-1.6328,0.0,-1.2633,-1.3098,-1.2712,-1.2633,-1.2426,-1.1479,-1.1228,-1.1017,-1.0417,-1.0299,-1.0299,-1.0299,-1.0299,-1.0612,-1.1538,-1.1592,-1.1958,-1.3265,-1.3814,-1.4625,-1.6059,-1.7106,-1.7795,-1.7974,-1.7988,-1.8108,-1.8344,-1.85,-1.8577,-1.8679,-1.8793,-1.9109,-1.9617,-1.9782,-1.9818,-1.9762,-1.9975,-2.0025,-2.0005,-2.0005,-2.0096,-2.0289,-2.0111,-2.0235,-2.061,-2.0392,-2.0289,0.0,-2.0893,-2.1071,-2.1071,-2.1645,-2.1974,-2.2135,-2.2163,-2.2192,-2.2192,-2.2192,-2.2192,-2.2192,-2.2254,-2.2282,-2.231,-2.231,-2.231,-2.231,-2.231,-2.231,-2.231,-2.231,-2.231,-2.231,-2.231,-2.231,-2.231,-2.231,-2.1938,-2.1295,-2.0204,-1.9638,-1.8995,-1.8025,-1.7878,-1.7839,-1.7839,-1.7878,-1.7856,-1.7743,-1.7749,-1.7772,-1.7726,-1.7681,-1.7704,-1.7833,-1.7833,-1.7811,-1.7743,-1.7726,-1.7681,-1.7612,-1.7612,-1.7612,-1.7612,-1.7519,-1.7084,-1.6354,-1.6066,-1.5984,-1.6088,-1.6353,-1.6647,0.0,-1.126,-1.189,-1.189,-1.1861,-1.1718,-1.1212,-1.1122,0.0,-1.0391,-1.0274,-1.0312,-1.0365,-1.0365,-1.056,-1.12,-1.172,-1.2281,-1.2925,-1.3997,-1.5147,-1.631,-1.6454,-1.665,-1.7146,-1.7199,-1.7199,-1.724,-1.7988,-1.8266,-1.7868,-1.863,-1.9064,-1.9064,-1.9273,-1.9406,-1.9406,-1.9797,-1.997,-1.997,-1.999,-1.999,-2.0041,-2.0025,-2.0235,-2.0527,-2.0235,-2.027,-2.0561,-2.091,-2.1039,-2.1103,-2.1748,-2.1998,-2.1982,-2.1998,-2.1998,-2.1998,-2.1998,-2.1998,-2.2027,-2.2152,-2.2225,-2.2282,-2.2282,-2.2282,-2.231,-2.231,-2.231,-2.231,-2.231,-2.231,-2.231,-2.231,-2.231,-2.231,-2.231,-2.231,-2.187,-2.0373,-2.0086,-1.963,-1.8194,-1.7907,-1.7856,-1.7771,-1.7721,-1.7664,-1.7612,-1.7612,-1.7612,-1.7612,-1.7589,-1.7589,-1.7566,-1.7589,-1.7612,-1.7589,-1.7589,-1.7589,-1.7566,-1.7566,-1.7542,-1.7542,-1.7288,-1.6824,-1.6131,-1.5456,-1.5814,-1.715,-1.6706,-1.687,-0.9212,0.0,-1.0704,-1.0704,-1.0534,-1.0363,0.0,-1.0198,-1.016,0.0,0.0,-1.0443,-1.0899,-1.0978,-1.129,-1.2273,-1.2515,-1.2955,-1.3986,-1.5114,-1.6087,-1.6773,-1.685,-1.6944,-1.7186,-1.7199,-1.7323,-1.7639,-1.7828,-1.8068,-1.8305,-1.8539,-1.863,-1.863,-1.8974,-1.931,-1.9639,-1.9762,-1.9797,-1.9762,-2.003,-2.0154,-2.0154,-2.0478,-2.0679,-2.0795,-2.0958,-2.0909,-2.0861,-2.1446,-2.1493,-2.1261,-2.1794,-2.1969,-2.194,-2.1969,-2.1998,-2.1998,-2.1998,-2.1998,-2.1998,-2.2044,-2.2044,-2.2073,-2.2073,-2.2192,-2.231,-2.231,-2.231,-2.231,-2.231,-2.231,-2.231,-2.231,-2.231,-2.231,-2.231,-2.231,-2.204,-2.1092,-2.0906,-2.0593,-1.9572,-1.8932,-1.8521,-1.849,-1.7964,-1.7635,-1.7612,-1.7612,-1.7612,-1.7612,-1.7542,-1.7448,-1.7224,-1.7455,-1.7589,-1.7536,-1.7519,-1.7401,-1.7167,-1.7142,-1.7043,-1.6841,-1.6763,-1.6658,-1.6483,-1.6314,-1.6394,-1.6738,-1.663,-1.6671,-0.8706,-0.9427,-1.0108,-1.0108,-1.0,-0.9891,-0.9891,0.0,0.0,0.0,0.0,-0.999,-1.051,-1.0737,-1.1229,-1.2291,-1.2826,-1.3591,-1.4978,-1.5737,-1.6329,-1.6896,-1.696,-1.7002,-1.7115,-1.7115,-1.724,-1.7516,-1.772,-1.7908,-1.8187,-1.8383,-1.8592,-1.8784,-1.8921,-1.9147,-1.942,-1.9654,-1.9726,-1.9711,-2.005,-2.0208,-2.0208,-2.0613,-2.0909,-2.1071,-2.1087,-2.1087,-2.1103,-2.1479,-2.1495,-2.134,-2.1751,-2.1899,-2.1869,-2.1882,-2.1911,-2.1911,-2.1911,-2.194,-2.194,-2.194,-2.1969,-2.1998,-2.1998,-2.2073,-2.2192,-2.2254,-2.2254,-2.2254,-2.2282,-2.231,-2.231,-2.231,-2.231,-2.231,-2.231,-2.231,-2.2035,-2.1122,-2.096,-2.0655,-1.9629,-1.9247,-1.8934,-1.8491,-1.812,-1.774,-1.737,-1.7216,-1.7142,-1.7142,-1.7117,-1.7018,-1.6876,-1.7043,-1.7167,-1.7281,-1.7281,-1.7208,-1.7018,-1.6892,-1.6686,-1.6421,-1.6421,-1.6355,-1.6219,-1.6355,-1.6421,-1.6421,-1.6528,-1.6596,-0.8448,-0.9156,-0.9772,-0.9799,-0.9823,-0.9828,-0.9747,0.0,0.0,0.0,0.0,0.0,0.0,-1.0456,-1.1015,-1.2127,-1.3126,-1.427,-1.5758,-1.6038,-1.6309,-1.6824,-1.6876,-1.6876,-1.696,-1.696,-1.7044,-1.7157,-1.7585,-1.7868,-1.7868,-1.8383,-1.8822,-1.9176,-1.9072,-1.9072,-1.9139,-1.9472,-1.9654,-1.9654,-2.0,-2.0139,-2.007,-2.0613,-2.0942,-2.1183,-2.0958,-2.1055,-2.1371,-2.1277,-2.1277,-2.134,-2.1617,-2.1721,-2.1738,-2.1781,-2.1797,-2.1797,-2.1797,-2.184,-2.1882,-2.1882,-2.1911,-2.1969,-2.1969,-2.1969,-2.2015,-2.2123,-2.2168,-2.2197,-2.2237,-2.2237,-2.2237,-2.2237,-2.2209,-2.218,-2.218,-2.2152,-2.1836,-2.0916,-2.0743,-2.0414,-1.9386,-1.9269,-1.9039,-1.8291,-1.807,-1.7724,-1.7023,-1.6738,-1.6596,-1.6596,-1.6596,-1.6596,-1.6528,-1.657,-1.6659,-1.6841,-1.6917,-1.6917,-1.6892,-1.6607,-1.6367,-1.6148,-1.6148,-1.6024,-1.5799,-1.6024,-1.6148,-1.6148,-1.6367,-1.649,-0.7836,-0.8602,-0.9254,-0.9351,-0.9494,-0.9455,-0.9057,0.0,0.0,0.0,0.0,0.0,0.0,-1.1539,-1.1773,-1.3071,-1.4228,-1.5122,-1.5668,-1.6245,-1.6629,-1.6705,-1.6718,-1.6761,-1.6876,-1.6918,-1.6918,-1.6918,-1.7652,-1.808,-1.8226,-1.8988,-1.9465,-1.9538,-1.9487,-1.945,-1.9339,-1.9413,-1.945,-1.945,-1.9788,-1.9788,-1.9545,-2.0462,-2.0828,-2.073,-2.1071,-2.1402,-2.1691,-2.1229,-2.115,-2.1325,-2.134,-2.1371,-2.1402,-2.1708,-2.1797,-2.1797,-2.1797,-2.1827,-2.1827,-2.1827,-2.1811,-2.184,-2.184,-2.184,-2.184,-2.1928,-2.1986,-2.2027,-2.2027,-2.2056,-2.2056,-2.2056,-2.1823,-2.1615,-2.1615,-2.1385,-2.1165,-2.0989,-2.0942,-2.0878,-2.0623,-1.9634,-1.8821,-1.8638,-1.7606,-1.6786,-1.6675,-1.6623,-1.6596,-1.6596,-1.6596,-1.6501,-1.6285,-1.6421,-1.6448,-1.6246,-1.6517,-1.6554,-1.6324,-1.6067,-1.5898,-1.5856,-1.5856,-1.5856,-1.5799,-1.5856,-1.5856,-1.5856,-1.5898,-1.5926,-0.6969,-0.7793,-0.8469,-0.8738,-0.9339,-0.983,-0.9606,0.0,0.0,0.0,0.0,0.0,0.0,-1.1263,-1.1756,-1.3622,-1.4808,-1.5629,-1.6053,-1.6413,-1.6577,-1.6577,-1.6577,-1.662,-1.6761,-1.6803,-1.6803,-1.6876,-1.7227,-1.7652,-1.8159,-1.8549,-1.9011,-1.9501,-1.9465,-1.9413,-1.9339,-1.9265,-1.9302,-1.9413,-1.9752,-1.9808,-1.9681,-2.0379,-2.0614,-2.0548,-2.0763,-2.0958,-2.1071,-2.0829,-2.0893,-2.1071,-2.1071,-2.1183,-2.1309,-2.1464,-2.1587,-2.1694,-2.1694,-2.1738,-2.1797,-2.1797,-2.1797,-2.1797,-2.1797,-2.1797,-2.1827,-2.184,-2.1882,-2.194,-2.1998,-2.1882,-2.1718,-2.1718,-2.1477,-2.1229,-2.1229,-2.1103,-2.0942,-2.0764,-2.0731,-2.0648,-2.0361,-1.9637,-1.8982,-1.85,-1.7552,-1.6775,-1.6375,-1.6136,-1.6009,-1.6009,-1.6009,-1.6104,-1.6337,-1.6456,-1.6347,-1.5996,-1.6133,-1.6105,-1.5839,-1.5711,-1.5639,-1.5639,-1.5639,-1.5639,-1.5639,-1.5639,-1.5639,-1.5639,-1.5639,-1.5639,-0.6251,-0.7008,-0.7674,-0.8223,0.0,-0.9912,-1.0015,0.0,0.0,0.0,0.0,0.0,-1.0786,-1.1061,-1.1879,-1.3962,-1.4904,-1.5599,-1.6232,-1.6337,-1.6337,-1.6337,-1.6423,-1.6522,-1.6633,-1.6675,-1.6718,-1.6791,-1.6918,-1.7269,-1.7867,-1.8106,-1.8511,-1.9176,-1.9265,-1.9302,-1.9265,-1.9139,-1.9176,-1.9339,-1.9573,-1.9687,-1.9737,-2.0089,-2.0311,-2.0345,-2.0379,-2.0429,-2.0514,-2.0447,-2.0563,-2.0795,-2.0828,-2.1039,-2.1309,-2.1309,-2.1388,-2.1511,-2.1511,-2.1603,-2.1678,-2.1678,-2.1678,-2.1708,-2.1738,-2.1768,-2.1768,-2.1797,-2.184,-2.1899,-2.194,-2.1705,-2.1462,-2.1462,-2.1134,-2.0797,-2.0797,-2.0764,-2.0599,-2.0345,-2.0311,-2.0189,-1.9797,-1.9448,-1.8943,-1.8157,-1.7486,-1.6787,-1.6031,-1.5682,-1.5507,-1.5507,-1.5699,-1.6129,-1.6843,-1.6903,-1.6697,-1.6182,-1.5928,-1.571,-1.5507,-1.5507,-1.5507,-1.5507,-1.5551,-1.558,-1.558,-1.5624,-1.5653,-1.5653,-1.5653,-1.5639,-0.5931,-0.6513,-0.7024,-0.8045,-0.8659,0.0,-0.9468,-0.953,0.0,-1.0056,0.0,0.0,-1.118,-1.1869,-1.2764,-1.4007,-1.425,-1.4675,-1.5688,-1.5832,-1.5832,-1.5832,-1.6238,-1.6522,-1.6522,-1.6522,-1.6522,-1.6522,-1.6947,-1.7227,-1.7353,-1.812,-1.8577,-1.8669,-1.9064,-1.9228,-1.9101,-1.9101,-1.9101,-1.9101,-1.9139,-1.9176,-1.9176,-1.9457,-1.966,-1.9859,-1.9975,-2.0204,-2.0481,-2.0224,-2.0239,-2.0478,-2.0728,-2.1023,-2.1309,-2.1309,-2.1325,-2.1309,-2.1309,-2.1325,-2.134,-2.134,-2.134,-2.1388,-2.1559,-2.1603,-2.1634,-2.1768,-2.1781,-2.1811,-2.1811,-2.1587,-2.1309,-2.1309,-2.0763,-2.0277,-2.0277,-2.0015,-1.9782,-1.9747,-1.9747,-1.9726,-1.9647,-1.9075,-1.8406,-1.7652,-1.6969,-1.6319,-1.5625,-1.5522,-1.5507,-1.5507,-1.6278,-1.7137,-1.8007,-1.8083,-1.7746,-1.6969,-1.6039,-1.5507,-1.5507,-1.5507,-1.5507,-1.5507,-1.5741,-1.5871,-1.5871,-1.6055,-1.6166,-1.6166,-1.6166,-1.6055,-0.5132,-0.5783,-0.6478,-0.7646,-0.8102,0.0,0.0,-0.9851,-1.0312,-1.0752,-1.1196,-1.1419,-1.1264,-1.2402,-1.3346,-1.3225,-1.3961,-1.4663,-1.5062,-1.5107,-1.5107,-1.5107,-1.5344,-1.549,-1.549,-1.5832,-1.6064,-1.6064,-1.6509,-1.6892,-1.7214,-1.7787,-1.8226,-1.8539,-1.8936,-1.9139,-1.9101,-1.9101,-1.9101,-1.9101,-1.9101,-1.9101,-1.9101,-1.9213,-1.9273,-1.9384,-1.9435,-1.9493,-1.9609,-1.9696,-1.9889,-2.0185,-2.0628,-2.0893,-2.099,-2.099,-2.1055,-2.1199,-2.1199,-2.1214,-2.1309,-2.1309,-2.1309,-2.1309,-2.1388,-2.1419,-2.1419,-2.1464,-2.1495,-2.1556,-2.1768,-2.1386,-2.099,-2.099,-2.0444,-1.9889,-1.9889,-1.9782,-1.969,-1.969,-1.9346,-1.9076,-1.9056,-1.8093,-1.724,-1.6971,-1.6395,-1.5906,-1.5668,-1.5725,-1.5797,-1.5797,-1.6879,-1.7729,-1.8051,-1.8448,-1.8585,-1.8246,-1.6983,-1.6025,-1.5595,-1.5551,-1.5551,-1.5551,-1.5841,-1.5955,-1.5955,-1.587,-1.5812,-1.5812,-1.5812,-1.5784,-0.4693,-0.5293,-0.5958,0.0,0.0,0.0,-0.8958,-0.9808,-1.0548,-1.1084,-1.1446,-1.1624,-1.1541,-1.2411,-1.3118,-1.2999,-1.3643,-1.4258,-1.4433,-1.4479,-1.4479,-1.4479,-1.4709,-1.4903,-1.5028,-1.5466,-1.5832,-1.5976,-1.6293,-1.668,-1.7157,-1.7598,-1.8028,-1.85,-1.8898,-1.9101,-1.9101,-1.9101,-1.9101,-1.9101,-1.9101,-1.9101,-1.9101,-1.9101,-1.9101,-1.9101,-1.9101,-1.9139,-1.925,-1.953,-1.9904,-2.0304,-2.0662,-2.0794,-2.0794,-2.0794,-2.0893,-2.1006,-2.1006,-2.1071,-2.1151,-2.1151,-2.1151,-2.1151,-2.1214,-2.1246,-2.1214,-2.1183,-2.1183,-2.1198,-2.1339,-2.1023,-2.0646,-2.053,-2.01,-1.9654,-1.9617,-1.9617,-1.9669,-1.9617,-1.9096,-1.8708,-1.8972,-1.7858,-1.6979,-1.7041,-1.6488,-1.6007,-1.5812,-1.5911,-1.6192,-1.6705,-1.7563,-1.8329,-1.8855,-1.9285,-1.9377,-1.8931,-1.7758,-1.6757,-1.598,-1.5713,-1.561,-1.561,-1.5911,-1.6052,-1.5996,-1.5883,-1.5797,-1.5726,-1.5726,-1.5697,-0.4719,-0.5048,-0.5451,0.0,0.0,0.0,-0.8328,-0.9246,-1.0164,-1.1034,-1.1175,-1.1328,-1.207,-1.1865,-1.2113,-1.3575,-1.3382,-1.3306,-1.3931,-1.3978,-1.3978,-1.3978,-1.4387,-1.488,-1.5344,-1.5499,-1.582,-1.6349,-1.6479,-1.6693,-1.7157,-1.7598,-1.7988,-1.8461,-1.8898,-1.9101,-1.9101,-1.9101,-1.9101,-1.9101,-1.9101,-1.9101,-1.9101,-1.9101,-1.9101,-1.9101,-1.9101,-1.9236,-1.953,-1.9848,-2.0304,-2.0794,-2.0794,-2.0794,-2.0794,-2.0794,-2.0794,-2.0794,-2.0794,-2.0794,-2.0794,-2.0794,-2.0794,-2.0827,-2.1023,-2.1103,-2.1071,-2.0942,-2.0893,-2.0828,-2.0548,-2.0429,-2.0326,-1.9969,-1.9747,-1.9574,-1.9413,-1.9501,-1.9574,-1.9413,-1.8933,-1.8752,-1.957,-1.8583,-1.7779,-1.7971,-1.7395,-1.6697,-1.6102,-1.6026,-1.6644,-1.8222,-1.8408,-1.9061,-2.0635,-2.0744,-2.0129,-1.8819,-1.8207,-1.7542,-1.6726,-1.598,-1.561,-1.561,-1.6052,-1.6191,-1.5996,-1.6191,-1.6191,-1.5996,-1.5996,-1.587,-0.4668,-0.5048,0.0,-0.6791,0.0,0.0,0.0,-0.9665,0.0,0.0,-1.2099,-1.2332,-1.2236,-1.2373,-1.2565,-1.2646,-1.2809,-1.3027,-1.32,-1.3248,-1.3248,-1.3248,-1.3716,-1.4129,-1.4269,-1.504,-1.5591,-1.5736,-1.61,-1.6405,-1.6607,-1.7338,-1.7828,-1.7988,-1.8707,-1.9101,-1.9101,-1.9101,-1.9101,-1.9101,-1.9101,-1.9101,-1.9101,-1.8936,-1.8988,-1.9101,-1.8936,-1.9087,-1.945,-1.9581,-1.9696,-1.9758,-1.9758,-1.9859,-2.003,-2.003,-2.0115,-2.0235,-2.0235,-2.0357,-2.0512,-2.0512,-2.0662,-2.0794,-2.086,-2.0761,-2.0613,-2.0579,-2.041,-2.017,-1.9874,-1.9803,-1.9803,-1.9864,-1.966,-1.9465,-1.9413,-1.9413,-1.9487,-1.9639,-1.8777,-1.8305,-1.9272,-1.8233,-1.7456,-1.8068,-1.8023,-1.7929,-1.7905,-1.7919,-1.8016,-1.8284,-1.889,-1.9374,-1.9648,-2.0229,-2.0273,-1.959,-1.8522,-1.7378,-1.6259,-1.583,-1.561,-1.561,-1.5911,-1.6052,-1.5996,-1.5854,-1.5769,-1.5726,-1.5726,-1.5784,-0.4856,-0.5334,0.0,-0.7056,-0.7624,-0.8124,-0.9052,0.0,-1.094,-1.1902,-1.2192,-1.2253,-1.2158,-1.2215,-1.2244,-1.2158,-1.2416,-1.2578,-1.2578,-1.2578,-1.2578,-1.2578,-1.3104,-1.3583,-1.3941,-1.4674,-1.5266,-1.568,-1.6013,-1.6318,-1.6552,-1.7047,-1.7503,-1.7868,-1.8383,-1.8784,-1.8988,-1.8912,-1.8912,-1.8988,-1.8912,-1.8851,-1.8851,-1.8912,-1.8936,-1.8988,-1.8974,-1.9035,-1.9199,-1.9354,-1.9361,-1.931,-1.931,-1.9449,-1.969,-1.969,-1.9848,-2.0005,-2.0005,-2.0096,-2.0254,-2.0254,-2.0357,-2.0494,-2.0628,-2.0444,-2.0254,-2.0254,-2.0045,-1.9726,-1.942,-1.9347,-1.9384,-1.9522,-1.9457,-1.9339,-1.9302,-1.9339,-1.9398,-1.9515,-1.8663,-1.8276,-1.9228,-1.8195,-1.753,-1.8371,-1.8423,-1.8392,-1.8529,-1.8633,-1.8683,-1.8703,-1.9169,-1.9494,-1.9538,-2.0023,-2.0081,-1.9416,-1.8643,-1.7601,-1.6189,-1.5772,-1.561,-1.561,-1.5854,-1.5955,-1.5826,-1.5697,-1.5551,-1.5477,-1.5477,-1.561,-0.5082,-0.5729,0.0,-0.7115,-0.7685,0.0,-0.8696,-1.0179,-1.1525,-1.1847,-1.1631,-1.1495,-1.1944,-1.1677,-1.1501,-1.1963,-1.2026,-1.2026,-1.2076,-1.2076,-1.2126,-1.2224,-1.2715,-1.3392,-1.4305,-1.4514,-1.5017,-1.5901,-1.61,-1.6306,-1.671,-1.6795,-1.716,-1.7908,-1.8002,-1.8279,-1.8784,-1.8581,-1.8581,-1.8784,-1.8581,-1.8478,-1.8478,-1.8851,-1.8912,-1.8745,-1.9035,-1.9058,-1.8855,-1.9103,-1.9214,-1.9163,-1.92,-1.9354,-1.9581,-1.9566,-1.969,-1.9848,-1.9884,-1.9919,-1.9919,-1.9955,-1.997,-2.0041,-2.0289,-2.0185,-1.9955,-1.9955,-1.9726,-1.942,-1.9124,-1.9064,-1.9064,-1.9064,-1.9191,-1.9265,-1.9139,-1.9176,-1.9265,-1.9139,-1.8644,-1.8498,-1.939,-1.849,-1.7948,-1.8876,-1.8696,-1.8455,-1.8455,-1.8686,-1.8951,-1.9271,-1.93,-1.9461,-1.9874,-1.9975,-1.9582,-1.8639,-1.8614,-1.7948,-1.643,-1.5903,-1.564,-1.558,-1.5812,-1.5812,-1.558,-1.558,-1.5477,-1.5313,-1.5313,-1.5448,-0.4629,-0.5268,0.0,0.0,-0.8532,-0.9151,-0.8872,-0.9459,-1.0127,-1.0381,-1.0714,-1.1007,-1.134,-1.129,-1.1265,-1.1392,-1.141,-1.156,-1.2026,-1.2076,-1.2412,-1.318,-1.3695,-1.4258,-1.4869,-1.5277,-1.5603,-1.5836,-1.5881,-1.5957,-1.6163,-1.6765,-1.7214,-1.7435,-1.8042,-1.8464,-1.8542,-1.8517,-1.8517,-1.8542,-1.8517,-1.8439,-1.8282,-1.8347,-1.8386,-1.8347,-1.8707,-1.8669,-1.8372,-1.8577,-1.85,-1.8214,-1.8358,-1.8489,-1.8542,-1.8697,-1.8774,-1.8851,-1.9011,-1.9199,-1.9406,-1.9566,-1.9797,-2.0005,-2.0061,-1.9869,-1.9603,-1.9603,-1.9384,-1.9139,-1.8898,-1.886,-1.8822,-1.8659,-1.8889,-1.9139,-1.9101,-1.9101,-1.9213,-1.9384,-1.8889,-1.8737,-1.9728,-1.9155,-1.8872,-1.9637,-1.9691,-1.9634,-1.9634,-1.9668,-1.9596,-1.9277,-1.9364,-1.9367,-1.9072,-1.9199,-1.9103,-1.8569,-1.8354,-1.7841,-1.7046,-1.6407,-1.5854,-1.5373,-1.5418,-1.5418,-1.5358,-1.5358,-1.5328,-1.5313,-1.5477,-1.5668,-0.4501,0.0,0.0,-0.7567,0.0,-0.8806,-0.8384,-0.8508,-0.8786,-0.9059,-0.9713,-1.0214,-1.0349,-1.0532,-1.0648,-1.0648,-1.0939,-1.1309,-1.161,-1.1918,-1.2264,-1.2803,-1.3505,-1.4165,-1.4686,-1.5153,-1.5558,-1.5792,-1.5792,-1.5913,-1.6107,-1.6539,-1.6964,-1.7338,-1.776,-1.8109,-1.8361,-1.8282,-1.8282,-1.8361,-1.8282,-1.8163,-1.8043,-1.8163,-1.8202,-1.8202,-1.8411,-1.8347,-1.8069,-1.8175,-1.8109,-1.7922,-1.8003,-1.8123,-1.8202,-1.8321,-1.8439,-1.8517,-1.8721,-1.8898,-1.9035,-1.9236,-1.9435,-1.9581,-1.9726,-1.953,-1.9347,-1.9457,-1.931,-1.9064,-1.8988,-1.886,-1.8784,-1.8644,-1.8736,-1.8812,-1.8812,-1.8812,-1.8836,-1.8988,-1.8751,-1.8672,-1.9207,-1.8958,-1.8856,-1.9207,-1.9384,-1.9479,-1.9479,-1.9588,-1.9515,-1.9095,-1.9169,-1.9072,-1.8683,-1.8836,-1.8784,-1.8372,-1.8394,-1.8067,-1.7226,-1.6951,-1.6488,-1.5731,-1.5449,-1.5336,-1.5435,-1.5367,-1.5313,-1.5313,-1.5418,-1.5639,-0.436,0.0,-0.6782,-0.7495,-0.7919,0.0,-0.7712,-0.767,-0.7743,-0.8012,-0.8723,-0.9296,-0.936,-0.9652,-0.9891,-0.9891,-1.0564,-1.1103,-1.1152,-1.1701,-1.2137,-1.2243,-1.3044,-1.3779,-1.4236,-1.4698,-1.5189,-1.5736,-1.5792,-1.5947,-1.6355,-1.6353,-1.6599,-1.7247,-1.7195,-1.7397,-1.7846,-1.7649,-1.7649,-1.7846,-1.7758,-1.7719,-1.7773,-1.8028,-1.8163,-1.8163,-1.8163,-1.8043,-1.7882,-1.7882,-1.7882,-1.7882,-1.7922,-1.8043,-1.8163,-1.8202,-1.8282,-1.8439,-1.8644,-1.8721,-1.8721,-1.8912,-1.8988,-1.9026,-1.9273,-1.9161,-1.9026,-1.9273,-1.9176,-1.8988,-1.895,-1.8836,-1.8721,-1.8745,-1.8606,-1.8517,-1.8517,-1.8517,-1.8517,-1.8517,-1.8517,-1.8517,-1.8517,-1.8517,-1.8517,-1.8517,-1.8707,-1.8831,-1.8831,-1.9043,-1.9066,-1.8831,-1.8793,-1.8693,-1.8439,-1.8528,-1.8489,-1.8163,-1.8489,-1.8289,-1.7353,-1.7492,-1.7222,-1.6354,-1.5762,-1.5564,-1.5806,-1.5556,-1.5403,-1.5403,-1.5448,-1.5668,0.0,0.0,-0.6823,0.0,-0.7739,-0.7946,-0.7538,-0.7489,-0.7538,-0.7581,-0.8026,-0.8438,-0.8773,-0.9113,-0.9407,-0.9407,-1.0123,-1.0696,-1.0858,-1.1503,-1.2205,-1.2733,-1.3211,-1.3723,-1.4251,-1.4373,-1.4728,-1.5575,-1.5653,-1.5978,-1.6765,-1.6593,-1.652,-1.6613,-1.638,-1.6312,-1.6386,-1.6349,-1.6349,-1.6399,-1.6864,-1.7122,-1.7136,-1.7691,-1.7922,-1.7922,-1.7922,-1.7922,-1.7882,-1.7882,-1.7882,-1.7922,-1.8083,-1.8083,-1.7963,-1.8123,-1.8123,-1.8003,-1.8189,-1.8268,-1.8307,-1.8503,-1.8595,-1.8595,-1.862,-1.862,-1.8595,-1.862,-1.862,-1.8556,-1.8361,-1.8307,-1.8307,-1.8514,-1.8514,-1.8489,-1.8517,-1.8517,-1.8517,-1.8517,-1.8517,-1.8517,-1.8517,-1.8517,-1.8517,-1.8517,-1.8542,-1.8542,-1.8542,-1.8581,-1.8542,-1.8307,-1.8307,-1.8228,-1.8003,-1.8003,-1.8003,-1.7922,-1.8149,-1.8121,-1.784,-1.7941,-1.7683,-1.7009,-1.6383,-1.6264,-1.665,-1.6099,-1.5814,-1.5842,-1.6067,-1.6191,-0.4343,-0.5327,-0.6236,0.0,-0.693,-0.6839,-0.6634,-0.6846,-0.7063,-0.714,-0.7715,-0.8175,-0.8158,-0.8631,-0.9096,-0.9302,-1.0303,-1.1154,-1.1417,-1.2032,-1.2552,-1.2804,-1.323,-1.3599,-1.3813,-1.4118,-1.4465,-1.4817,-1.4882,-1.5113,-1.5674,-1.5605,-1.5634,-1.5827,-1.5856,-1.5872,-1.5872,-1.6032,-1.6118,-1.6118,-1.6715,-1.6824,-1.6539,-1.7461,-1.7882,-1.7882,-1.7882,-1.7882,-1.7882,-1.7882,-1.7882,-1.7922,-1.8003,-1.7963,-1.7922,-1.8003,-1.7963,-1.7922,-1.8123,-1.8202,-1.8242,-1.8439,-1.8517,-1.8517,-1.8517,-1.8517,-1.8517,-1.8517,-1.8517,-1.8478,-1.84,-1.8464,-1.8567,-1.863,-1.8745,-1.8822,-1.8851,-1.8644,-1.8411,-1.8202,-1.8163,-1.8163,-1.8163,-1.8163,-1.8163,-1.8163,-1.8163,-1.8163,-1.8163,-1.8347,-1.845,-1.8372,-1.8567,-1.8644,-1.8567,-1.8567,-1.8489,-1.8254,-1.8333,-1.8333,-1.8254,-1.8285,-1.8378,-1.8549,-1.7236,-1.6573,-1.6621,-1.6258,-1.6163,-1.6285,-1.6405,-1.6538,0.0,0.0,-0.5377,-0.6159,-0.6115,-0.5874,-0.5893,-0.6295,-0.6683,-0.6803,-0.7474,-0.7979,-0.7878,-0.8488,-0.9114,-0.951,-1.0634,-1.1518,-1.1851,-1.2395,-1.274,-1.2619,-1.302,-1.3298,-1.3298,-1.3673,-1.3978,-1.4201,-1.4279,-1.4522,-1.5018,-1.493,-1.5004,-1.5278,-1.5316,-1.5332,-1.5332,-1.5537,-1.5622,-1.5622,-1.6366,-1.6464,-1.6072,-1.73,-1.776,-1.7611,-1.7814,-1.7882,-1.7882,-1.7882,-1.7882,-1.7882,-1.7882,-1.7882,-1.7882,-1.7882,-1.7882,-1.7922,-1.8083,-1.8123,-1.8163,-1.8321,-1.8361,-1.8361,-1.8361,-1.8361,-1.8361,-1.8361,-1.8439,-1.8503,-1.8503,-1.8683,-1.8898,-1.9011,-1.9124,-1.9199,-1.9139,-1.8784,-1.8397,-1.8095,-1.7963,-1.7882,-1.7882,-1.7882,-1.7882,-1.7882,-1.7882,-1.7922,-1.8029,-1.8319,-1.8553,-1.863,-1.8898,-1.9101,-1.9101,-1.9101,-1.8988,-1.8669,-1.8669,-1.8669,-1.8669,-1.8731,-1.8999,-1.9435,-1.8212,-1.741,-1.7045,-1.6629,-1.6523,-1.6732,-1.6757,-1.693,0.0,-0.4074,0.0,-0.5253,-0.5451,-0.5471,-0.5689,-0.613,-0.6562,-0.6683,-0.714,-0.769,-0.825,-0.9016,-0.9686,-0.9991,-1.0871,-1.1507,-1.1507,-1.223,-1.2567,-1.2194,-1.2495,-1.2746,-1.2746,-1.2758,-1.3143,-1.3951,-1.4268,-1.4741,-1.5597,-1.5358,-1.5188,-1.5188,-1.4647,-1.4382,-1.4382,-1.433,-1.4297,-1.4311,-1.535,-1.5848,-1.5861,-1.7129,-1.7397,-1.6925,-1.7584,-1.7882,-1.7882,-1.7882,-1.7882,-1.7882,-1.7882,-1.7882,-1.7882,-1.7882,-1.7882,-1.7882,-1.7922,-1.7922,-1.7922,-1.7922,-1.7922,-1.7922,-1.7922,-1.7922,-1.7922,-1.7922,-1.8214,-1.8514,-1.8514,-1.8784,-1.9176,-1.9581,-1.9639,-1.9581,-1.9176,-1.8784,-1.85,-1.8461,-1.8135,-1.7882,-1.7882,-1.7882,-1.7882,-1.7882,-1.7882,-1.8029,-1.8436,-1.8475,-1.8669,-1.9026,-1.9101,-1.9101,-1.9101,-1.9101,-1.9101,-1.9064,-1.9064,-1.9064,-1.9064,-1.942,-1.9355,-1.8762,-1.9339,-1.9248,-1.8481,-1.7508,-1.706,-1.7085,-1.7126,-1.7551,0.0,0.0,0.0,-0.448,-0.4548,-0.4518,-0.4591,-0.5339,-0.6002,-0.6087,-0.7217,-0.8226,-0.8439,-0.8886,-0.9509,-1.0397,-1.1073,-1.1664,-1.2186,-1.252,-1.2639,-1.2484,-1.2603,-1.2709,-1.2709,-1.2768,-1.2946,-1.3249,-1.3579,-1.3877,-1.4223,-1.3972,-1.3938,-1.4096,-1.39,-1.3927,-1.4235,-1.4203,-1.4157,-1.4092,-1.5247,-1.5585,-1.5278,-1.6863,-1.7076,-1.6268,-1.6898,-1.7259,-1.7339,-1.7719,-1.7882,-1.7882,-1.7882,-1.7882,-1.7882,-1.7882,-1.7882,-1.7882,-1.7666,-1.757,-1.757,-1.757,-1.757,-1.7611,-1.7828,-1.8069,-1.8293,-1.8293,-1.8553,-1.8898,-1.8898,-1.9199,-1.9581,-1.9975,-2.001,-1.994,-1.9782,-1.9479,-1.9087,-1.845,-1.8214,-1.8055,-1.7693,-1.7652,-1.7652,-1.7652,-1.7909,-1.8149,-1.8358,-1.8784,-1.9139,-1.9347,-1.9545,-1.969,-1.9747,-1.9747,-1.9675,-1.9508,-1.9508,-1.9508,-1.9508,-1.9617,-1.9728,-1.973,-1.9941,-1.9452,-1.8211,-1.8055,-1.7839,-1.7566,-1.8057,-1.8512,-0.2974,0.0,0.0,-0.3643,-0.3692,-0.3703,-0.3898,-0.4804,-0.5666,-0.584,-0.7197,-0.8357,-0.8513,-0.8846,-0.9509,-1.0712,-1.1234,-1.1774,-1.2603,-1.2639,-1.2603,-1.2603,-1.2603,-1.2603,-1.2603,-1.2697,-1.272,-1.272,-1.2965,-1.3104,-1.3104,-1.3047,-1.3104,-1.3297,-1.3446,-1.3648,-1.396,-1.4059,-1.3993,-1.3769,-1.4858,-1.5135,-1.4663,-1.6202,-1.6411,-1.5591,-1.6268,-1.6599,-1.6729,-1.7122,-1.7299,-1.7299,-1.7299,-1.7407,-1.7583,-1.745,-1.7572,-1.7666,-1.7365,-1.724,-1.724,-1.7131,-1.7214,-1.7365,-1.7488,-1.7841,-1.824,-1.8372,-1.8707,-1.9049,-1.9176,-1.9435,-1.9675,-1.9925,-1.9839,-1.9696,-1.9624,-1.9603,-1.9398,-1.8736,-1.8528,-1.8344,-1.7988,-1.7948,-1.7948,-1.7948,-1.8214,-1.8411,-1.8461,-1.8898,-1.9213,-1.9207,-1.9442,-1.9588,-1.9609,-1.9767,-1.9782,-1.9603,-1.9747,-1.9818,-1.9818,-1.9869,-2.001,-2.0304,-2.048,-1.9868,-1.8464,-1.866,-1.8441,-1.7905,-1.8745,-1.9411,0.0,0.0,0.0,-0.2675,-0.2818,-0.3041,-0.3614,-0.4595,-0.5504,-0.5957,-0.7024,-0.8021,-0.8553,-0.8999,-0.9707,-1.0943,-1.133,-1.1774,-1.2567,-1.2484,-1.2365,-1.2377,-1.2365,-1.2365,-1.2377,-1.2377,-1.2377,-1.2413,-1.2473,-1.2508,-1.2508,-1.2754,-1.2881,-1.2881,-1.3263,-1.348,-1.3493,-1.3741,-1.3695,-1.3285,-1.4171,-1.442,-1.4097,-1.5177,-1.5382,-1.491,-1.564,-1.5968,-1.6028,-1.6068,-1.6118,-1.6118,-1.6118,-1.6471,-1.6935,-1.6625,-1.689,-1.7338,-1.6989,-1.6876,-1.6833,-1.657,-1.6795,-1.7115,-1.6879,-1.724,-1.7801,-1.8123,-1.8539,-1.8983,-1.9288,-1.9435,-1.9442,-1.9406,-1.9132,-1.8817,-1.8655,-1.9026,-1.9376,-1.9376,-1.9026,-1.8784,-1.8745,-1.8745,-1.8745,-1.8745,-1.8745,-1.8784,-1.8784,-1.8784,-1.8769,-1.8703,-1.8703,-1.8688,-1.8688,-1.9132,-1.9406,-1.9406,-1.9854,-2.0115,-2.0115,-2.022,-2.0304,-2.0304,-2.0958,-2.0684,-1.9454,-1.9338,-1.8879,-1.8163,-1.9213,-2.0233,-0.2023,0.0,0.0,0.0,0.0,0.0,-0.2735,-0.3593,-0.4504,-0.5089,-0.6188,-0.7244,-0.7844,-0.8382,-0.895,-0.9561,-1.0389,-1.1169,-1.1799,-1.1957,-1.2029,-1.215,-1.1957,-1.192,-1.215,-1.2102,-1.2138,-1.2365,-1.2591,-1.2733,-1.2733,-1.2836,-1.2824,-1.2638,-1.2906,-1.3045,-1.3,-1.3297,-1.3251,-1.2814,-1.376,-1.4023,-1.3705,-1.4422,-1.4563,-1.4181,-1.437,-1.4397,-1.431,-1.556,-1.6118,-1.6118,-1.6118,-1.6213,-1.6366,-1.6709,-1.6809,-1.6757,-1.686,-1.6607,-1.625,-1.6163,-1.6324,-1.6582,-1.6752,-1.7366,-1.8014,-1.808,-1.8433,-1.8779,-1.8855,-1.8907,-1.893,-1.8893,-1.8793,-1.8655,-1.8616,-1.8669,-1.8669,-1.8305,-1.8226,-1.8108,-1.772,-1.7639,-1.7639,-1.7639,-1.7868,-1.8108,-1.8226,-1.8422,-1.8577,-1.8616,-1.8846,-1.8997,-1.9058,-1.9442,-1.9726,-1.9848,-1.9955,-2.0025,-2.0025,-2.0061,-2.022,-2.0512,-2.0926,-2.0986,-2.0612,-2.0831,-2.0322,-1.9213,-2.082,-2.2014,-0.1716,-0.1792,0.0,-0.1667,0.0,0.0,-0.2451,-0.3173,-0.4011,-0.485,-0.5838,-0.6751,-0.7426,-0.7919,-0.8374,-0.8715,-0.9332,-1.004,-1.0788,-1.1025,-1.1185,-1.1297,-1.1308,-1.1431,-1.1737,-1.1689,-1.1799,-1.2113,-1.2233,-1.2269,-1.2269,-1.2282,-1.2246,-1.2089,-1.2389,-1.2555,-1.2508,-1.2836,-1.2801,-1.2389,-1.3143,-1.3289,-1.2911,-1.3419,-1.3619,-1.3565,-1.3565,-1.3496,-1.345,-1.448,-1.4995,-1.5149,-1.5289,-1.5635,-1.6086,-1.6335,-1.6335,-1.6216,-1.6223,-1.5696,-1.5036,-1.4896,-1.5241,-1.5666,-1.5764,-1.6424,-1.7237,-1.7572,-1.8131,-1.864,-1.864,-1.8511,-1.8394,-1.8355,-1.8226,-1.8082,-1.8042,-1.7988,-1.7988,-1.8068,-1.8147,-1.8108,-1.7787,-1.776,-1.776,-1.776,-1.7948,-1.8108,-1.8187,-1.8226,-1.8305,-1.8539,-1.8553,-1.8655,-1.8884,-1.9273,-1.9545,-1.9632,-1.9812,-1.9919,-1.9919,-1.997,-2.0131,-2.0342,-2.0681,-2.1124,-2.1649,-2.1702,-2.1446,-2.0927,-2.198,-2.2887,-0.1423,-0.1303,0.0,-0.1249,-0.1311,0.0,-0.2275,-0.2869,-0.3589,-0.4662,-0.5478,-0.6172,-0.6852,-0.7287,-0.7617,-0.7853,-0.8018,-0.848,-0.9642,-0.9934,-1.0099,-1.0099,-1.0475,-1.0829,-1.1121,-1.1159,-1.1319,-1.17,-1.1538,-1.1437,-1.14,-1.1437,-1.1437,-1.1437,-1.1833,-1.2004,-1.1957,-1.2318,-1.2306,-1.1932,-1.227,-1.227,-1.1957,-1.227,-1.2591,-1.2906,-1.2941,-1.301,-1.3079,-1.3113,-1.3344,-1.3741,-1.4026,-1.4782,-1.5698,-1.5517,-1.5556,-1.5585,-1.5323,-1.4552,-1.3656,-1.3388,-1.3868,-1.4587,-1.4444,-1.5061,-1.5998,-1.6881,-1.7666,-1.826,-1.833,-1.8108,-1.7868,-1.776,-1.7529,-1.7363,-1.7253,-1.7199,-1.7434,-1.8226,-1.8344,-1.8344,-1.8344,-1.8344,-1.8383,-1.8422,-1.8422,-1.8422,-1.85,-1.8147,-1.8028,-1.8461,-1.8187,-1.8108,-1.8539,-1.8936,-1.9176,-1.9199,-1.9603,-1.9833,-1.9833,-1.9955,-2.0025,-2.0025,-2.0481,-2.1256,-2.2434,-2.2084,-2.2247,-2.2857,-2.2857,-2.3168,-0.119,-0.0944,-0.0725,-0.0511,-0.0173,0.0,-0.0623,-0.1019,-0.1587,-0.2659,-0.344,-0.418,-0.491,-0.5104,-0.5191,-0.5291,-0.55,-0.6412,-0.8673,-0.9133,-0.9284,-0.9433,-0.9658,-0.9894,-1.0147,-1.0293,-1.0562,-1.1132,-1.1132,-1.0992,-1.0774,-1.0992,-1.1105,-1.1105,-1.1426,-1.1501,-1.1207,-1.1616,-1.1505,-1.0916,-1.1234,-1.1234,-1.0916,-1.1159,-1.1457,-1.1678,-1.1945,-1.2138,-1.2318,-1.2532,-1.2801,-1.3067,-1.3135,-1.3527,-1.405,-1.4456,-1.4666,-1.4673,-1.4775,-1.4401,-1.3807,-1.3417,-1.3556,-1.3964,-1.4309,-1.5061,-1.6011,-1.6933,-1.6994,-1.6917,-1.7315,-1.7393,-1.7352,-1.7323,-1.7282,-1.724,-1.7199,-1.7199,-1.724,-1.7434,-1.7434,-1.7434,-1.7434,-1.7434,-1.7557,-1.7868,-1.7948,-1.8068,-1.8461,-1.8422,-1.8383,-1.85,-1.8707,-1.886,-1.8988,-1.9347,-1.9711,-1.9965,-2.007,-2.012,-2.012,-2.0154,-2.0189,-2.0227,-2.1301,-2.2169,-2.273,-2.2216,-2.2636,-2.3916,-2.386,-2.3693,-0.0594,-0.0361,-0.0104,0.0068,0.0245,0.0,0.0,-0.0349,-0.0735,-0.1574,-0.2218,-0.2794,-0.3216,-0.3503,-0.3622,-0.3508,-0.3743,-0.4373,-0.5752,-0.7117,-0.8105,-0.848,-0.874,-0.903,-0.9332,-0.9421,-0.9658,-1.0108,-1.035,-1.0312,-0.9972,-1.0153,-1.0208,-1.0138,-1.0389,-1.0491,-1.0466,-1.0857,-1.0916,-1.0582,-1.0753,-1.0764,-1.0582,-1.0725,-1.0916,-1.1132,-1.1431,-1.1616,-1.1726,-1.2029,-1.2174,-1.2246,-1.2719,-1.3171,-1.3647,-1.421,-1.4241,-1.4097,-1.4362,-1.38,-1.295,-1.2758,-1.2956,-1.3345,-1.3893,-1.5024,-1.6233,-1.6671,-1.6794,-1.6859,-1.7133,-1.7199,-1.7199,-1.7199,-1.7157,-1.7115,-1.7115,-1.7086,-1.7044,-1.7044,-1.7073,-1.7115,-1.7199,-1.7199,-1.7365,-1.776,-1.7787,-1.8028,-1.8707,-1.8755,-1.8916,-1.9303,-1.9507,-1.9687,-1.9945,-2.0135,-2.0308,-2.0512,-2.0496,-2.0395,-2.0208,-2.0208,-2.0261,-2.0449,-2.1608,-2.2427,-2.2909,-2.2936,-2.3351,-2.41,-2.4263,-2.4228,0.0069,0.0378,0.0663,0.0649,0.0715,0.0705,0.0,0.0,0.0,-0.0597,-0.1059,-0.1424,-0.1539,-0.1875,-0.2023,-0.1762,-0.2044,-0.2319,-0.2451,-0.4429,-0.6155,-0.6902,-0.7554,-0.8024,-0.827,-0.8503,-0.8776,-0.9076,-0.937,-0.944,-0.9195,-0.9383,-0.9469,-0.9433,-0.9601,-0.9743,-0.9806,-1.0215,-1.0302,-1.0147,-1.0147,-1.0147,-1.0147,-1.0302,-1.0495,-1.0715,-1.1094,-1.1282,-1.1367,-1.1627,-1.1649,-1.1597,-1.2342,-1.2926,-1.3435,-1.3824,-1.3752,-1.3509,-1.3739,-1.3047,-1.2077,-1.2004,-1.2415,-1.3115,-1.3853,-1.5179,-1.6494,-1.6596,-1.6889,-1.7247,-1.7366,-1.7352,-1.7323,-1.7323,-1.7157,-1.7002,-1.7002,-1.6863,-1.682,-1.7002,-1.6989,-1.6989,-1.7115,-1.724,-1.7434,-1.7828,-1.8014,-1.8447,-1.9221,-1.9325,-1.96,-2.0243,-2.0265,-2.04,-2.0761,-2.0794,-2.0827,-2.0893,-2.0893,-2.0745,-2.0413,-2.0345,-2.0465,-2.0781,-2.1719,-2.2494,-2.3071,-2.373,-2.4098,-2.4191,-2.4498,-2.4576,0.0615,0.1154,0.1674,0.1504,0.2046,0.2452,0.1806,0.0,0.1595,0.1121,0.0,0.0466,0.0404,0.0,0.0,0.0667,0.028,-0.0108,-0.0249,-0.1191,-0.2512,-0.4303,-0.5693,-0.6502,-0.6494,-0.7408,-0.8093,-0.8309,-0.822,-0.8326,-0.8835,-0.9266,-0.967,-1.0,-1.0302,-1.0176,-0.9558,-0.9597,-0.9279,-0.8553,-0.8553,-0.8553,-0.8594,-0.9319,-0.9785,-1.0031,-1.0743,-1.118,-1.1485,-1.1522,-1.1522,-1.1522,-1.1623,-1.1904,-1.2303,-1.2339,-1.252,-1.2686,-1.2448,-1.222,-1.2041,-1.1697,-1.2501,-1.3825,-1.5029,-1.5805,-1.6453,-1.7168,-1.738,-1.7519,-1.8048,-1.7908,-1.7679,-1.772,-1.7352,-1.7002,-1.7002,-1.6582,-1.6429,-1.7269,-1.7118,-1.6854,-1.6905,-1.7393,-1.7828,-1.8187,-1.8893,-1.9558,-2.0035,-2.0395,-2.0646,-2.0712,-2.0712,-2.0745,-2.0794,-2.0794,-2.0925,-2.1214,-2.1246,-2.1214,-2.1183,-2.0893,-2.0958,-2.1491,-2.2018,-2.2628,-2.3361,-2.4188,-2.4704,-2.4877,-2.4815,-2.456,0.121,0.1917,0.2556,0.2363,0.2898,0.328,0.2452,0.2531,0.2723,0.2411,0.0,0.0,0.0,0.0,0.0,0.0,0.2241,0.1938,0.1798,0.105,-0.038,-0.2788,-0.3793,-0.4582,-0.5148,-0.565,-0.6036,-0.6331,-0.6486,-0.6724,-0.7029,-0.7636,-0.8135,-0.8423,-0.8619,-0.8689,-0.8553,-0.8797,-0.8635,-0.8103,-0.8185,-0.8226,-0.8267,-0.8918,-0.9288,-0.943,-1.037,-1.085,-1.1012,-1.1298,-1.1459,-1.1421,-1.1373,-1.1511,-1.176,-1.2004,-1.2138,-1.2198,-1.2282,-1.2174,-1.2075,-1.2522,-1.3562,-1.4862,-1.597,-1.6824,-1.749,-1.7827,-1.7877,-1.7921,-1.8185,-1.7922,-1.7598,-1.7639,-1.7005,-1.6423,-1.6423,-1.5932,-1.57,-1.6398,-1.6731,-1.6998,-1.7271,-1.772,-1.8201,-1.8755,-1.9229,-1.9702,-2.0204,-2.0745,-2.1055,-2.0926,-2.1182,-2.1386,-2.1386,-2.1386,-2.1448,-2.1587,-2.1402,-2.1309,-2.1309,-2.1293,-2.1505,-2.1995,-2.281,-2.3535,-2.4153,-2.4796,-2.5148,-2.5226,-2.5178,-2.5043,0.1835,0.2553,0.32,0.2979,0.3481,0.3787,0.3025,0.3322,0.3731,0.3708,0.3686,0.0,0.0,0.0,0.4146,0.4476,0.0,0.416,0.4029,0.339,0.1877,-0.091,-0.1811,-0.2592,-0.352,-0.3559,-0.3811,-0.4465,-0.4633,-0.5065,-0.5899,-0.6461,-0.6961,-0.7405,-0.7598,-0.7744,-0.7912,-0.8283,-0.8275,-0.7904,-0.7938,-0.7979,-0.8062,-0.8521,-0.8814,-0.9079,-0.9913,-1.038,-1.0544,-1.086,-1.1061,-1.1185,-1.1174,-1.1362,-1.1623,-1.1895,-1.2029,-1.2066,-1.2354,-1.2303,-1.2264,-1.3433,-1.4495,-1.5505,-1.6455,-1.7489,-1.8347,-1.8307,-1.8386,-1.8503,-1.8503,-1.8055,-1.7585,-1.7503,-1.6697,-1.5944,-1.5856,-1.5457,-1.5311,-1.6102,-1.6722,-1.737,-1.8118,-1.8447,-1.8731,-1.9207,-1.963,-2.0039,-2.0599,-2.1166,-2.1493,-2.1321,-2.1688,-2.1899,-2.1827,-2.1797,-2.1797,-2.1797,-2.1587,-2.1433,-2.1433,-2.1584,-2.1931,-2.2479,-2.3329,-2.4078,-2.4707,-2.5109,-2.5335,-2.5425,-2.5403,-2.5398,0.2337,0.3,0.3504,0.3239,0.3736,0.4164,0.3751,0.4184,0.4755,0.5159,0.5495,0.5823,0.6254,0.6629,0.6835,0.6735,0.6738,0.0,0.0,0.6217,0.4834,0.1817,0.031,-0.0686,-0.1249,-0.1205,-0.1703,-0.3159,-0.2785,-0.361,-0.6167,-0.6363,-0.6907,-0.7931,-0.83,-0.8267,-0.7919,-0.825,-0.8167,-0.7719,-0.7377,-0.7426,-0.7712,-0.7878,-0.8349,-0.9124,-0.939,-0.9834,-1.0283,-1.005,-1.0205,-1.0659,-1.1067,-1.1442,-1.1774,-1.1811,-1.2029,-1.2377,-1.2413,-1.2436,-1.2726,-1.4198,-1.5018,-1.5542,-1.6342,-1.7612,-1.8745,-1.8553,-1.886,-1.9265,-1.9265,-1.863,-1.7894,-1.7518,-1.6672,-1.5856,-1.54,-1.5187,-1.5555,-1.7124,-1.7491,-1.7984,-1.9639,-1.9732,-1.9558,-1.9522,-2.0208,-2.0959,-2.1497,-2.1915,-2.2164,-2.2164,-2.2164,-2.2068,-2.1811,-2.1797,-2.1797,-2.1797,-2.1797,-2.1781,-2.1781,-2.1781,-2.2164,-2.2972,-2.3259,-2.3856,-2.4707,-2.4903,-2.5188,-2.5498,-2.5425,-2.5365,0.2796,0.3738,0.4329,0.404,0.4801,0.5321,0.4167,0.4671,0.5493,0.6003,0.6515,0.7059,0.78,0.8043,0.7988,0.7596,0.7548,0.7436,0.0,0.6712,0.6133,0.5086,0.2733,0.0981,0.0449,0.007,-0.0566,-0.1533,-0.2058,-0.2914,-0.4254,-0.4928,-0.5739,-0.6755,-0.6937,-0.707,-0.7245,-0.7579,-0.7419,-0.6836,-0.7202,-0.7238,-0.6943,-0.7829,-0.816,-0.8013,-0.882,-0.943,-0.9825,-0.9884,-1.0293,-1.0957,-1.0985,-1.1239,-1.1664,-1.2029,-1.2222,-1.2257,-1.2332,-1.2445,-1.2895,-1.4622,-1.5536,-1.6203,-1.7222,-1.8014,-1.8592,-1.85,-1.863,-1.8822,-1.9101,-1.8745,-1.8305,-1.8159,-1.7409,-1.6731,-1.6735,-1.6498,-1.6545,-1.7584,-1.8549,-1.9519,-2.0384,-2.1255,-2.1563,-2.0751,-2.099,-2.15,-2.2129,-2.2513,-2.2678,-2.2556,-2.2652,-2.2695,-2.2591,-2.2591,-2.2512,-2.2341,-2.2313,-2.2265,-2.2152,-2.2276,-2.2527,-2.2923,-2.3545,-2.4099,-2.4568,-2.4996,-2.5272,-2.5356,-2.5244,-2.5187,0.3161,0.4038,0.4642,0.467,0.5392,0.5857,0.4915,0.5545,0.6598,0.7577,0.8261,0.9079,1.0366,1.0376,0.995,0.9343,0.9021,0.862,0.0,0.7665,0.7434,0.7434,0.508,0.3187,0.2515,0.2086,0.136,0.0166,-0.0718,-0.1679,-0.2822,-0.3719,-0.4721,-0.587,-0.6089,-0.6441,-0.6914,-0.7251,-0.7167,-0.6751,-0.7118,-0.7112,-0.6859,-0.7538,-0.7746,-0.7572,-0.8423,-0.9022,-0.9341,-0.9649,-1.0215,-1.0805,-1.0871,-1.1153,-1.1553,-1.2113,-1.233,-1.2412,-1.2819,-1.289,-1.3037,-1.4755,-1.5657,-1.6245,-1.7193,-1.7814,-1.8266,-1.8266,-1.8266,-1.8344,-1.8784,-1.864,-1.838,-1.838,-1.7892,-1.7478,-1.7747,-1.6613,-1.5894,-1.6872,-1.6903,-1.7365,-1.9265,-2.0372,-2.1186,-2.1761,-2.1959,-2.2236,-2.2807,-2.3077,-2.3147,-2.3041,-2.3071,-2.3076,-2.3021,-2.3093,-2.3021,-2.2772,-2.2746,-2.2686,-2.2544,-2.266,-2.2883,-2.3236,-2.3814,-2.4275,-2.462,-2.5,-2.5187,-2.5196,-2.5091,-2.4991]}]]